[[{"header":{"parameterUnit":"m.s-1","parameterCategory":1,"la1":30.6,"la2":28.766,"lo1":-90.7593,"lo2":-88.6598,"dy":0.0162,"dx":0.0183,"nx":116,"ny":114,"refTime":"2023-06-11T06:00:00:Z","depth":0,"parameterNumber":2,"parameterNumberName":"U-component_of_WINDS"},"data":[0.0,0.0,0.0,0.0,0.0,0.0,0.0,0.0,0.0,0.0,0.0,0.0,0.0,0.0,0.0,0.0,0.0,0.0,0.0,0.0,0.0,0.0,0.0,0.0,0.0,0.0,0.0,0.0,0.0,0.0,0.0,0.0,0.0,0.0,0.0,0.0,0.0,0.0,0.0,0.0,0.0,0.0,0.0,0.0,0.0,0.0,0.0,0.0,0.0,0.0,0.0,0.0,0.0,0.0,0.0,0.0,0.0,0.0,0.0,0.0,0.0,0.0,0.0,0.0,0.0,0.0,0.0,0.0,0.0,0.0,0.0,0.0,0.0,0.0,0.0,0.0,0.0,0.0,0.0,0.0,0.0,0.0,0.0,0.0,0.0,0.0,0.0,0.0,0.0,0.0,0.0,0.0,0.0,0.0,0.0,0.0,0.0,0.0,0.0,0.0,0.0,0.0,0.0,0.0,0.0,0.0,0.0,0.0,0.0,0.0,0.0,0.0,0.0,0.0,0.0,0.0,0.0,0.0,0.0,0.0,0.0,0.0,0.0,0.0,0.0,0.0,0.0,0.0,0.0,0.0,0.0,0.0,0.0,0.0,0.0,0.0,0.0,0.0,0.0,0.0,0.0,0.0,0.0,0.0,0.0,0.0,0.0,0.0,0.0,0.0,0.0,0.0,0.0,0.0,0.0,0.0,0.0,0.0,0.0,0.0,0.0,0.0,0.0,0.0,0.0,0.0,0.0,0.0,0.0,0.0,0.0,0.0,0.0,0.0,0.0,0.0,0.0,0.0,0.0,0.0,0.0,0.0,0.0,0.0,0.0,0.0,0.0,0.0,0.0,0.0,0.0,0.0,0.0,0.0,0.0,0.0,0.0,0.0,0.0,0.0,0.0,0.0,0.0,0.0,0.0,0.0,0.0,0.0,0.0,0.0,0.0,0.0,0.0,0.0,0.0,0.0,0.0,0.0,0.0,0.0,0.0,0.0,0.0,0.0,0.0,0.0,0.0,0.0,0.0,0.0,0.0,0.0,0.0,0.0,0.0,0.0,0.0,0.0,0.0,0.0,0.0,0.0,0.0,0.0,0.0,0.0,0.0,0.0,0.0,0.0,0.0,0.0,0.0,0.0,0.0,0.0,0.0,0.0,0.0,0.0,0.0,0.0,0.0,0.0,0.0,0.0,0.0,0.0,0.0,0.0,0.0,0.0,0.0,0.0,0.0,0.0,0.0,0.0,0.0,0.0,0.0,0.0,0.0,0.0,0.0,0.0,0.0,0.0,0.0,0.0,0.0,0.0,0.0,0.0,0.0,0.0,0.0,0.0,0.0,0.0,0.0,0.0,0.0,0.0,0.0,0.0,0.0,0.0,0.0,0.0,0.0,0.0,0.0,0.0,0.0,0.0,0.0,0.0,0.0,0.0,0.0,0.0,0.0,0.0,0.0,0.0,0.0,0.0,0.0,0.0,0.0,0.0,0.0,0.0,0.0,0.0,0.0,0.0,0.0,0.0,0.0,0.0,0.0,0.0,0.0,0.0,0.0,0.0,0.0,0.0,0.0,0.0,0.0,0.0,0.0,0.0,0.0,0.0,0.0,0.0,0.0,0.0,0.0,0.0,0.0,0.0,0.0,0.0,0.0,0.0,0.0,0.0,0.0,0.0,0.0,0.0,0.0,0.0,0.0,0.0,0.0,0.0,0.0,0.0,0.0,0.0,0.0,0.0,0.0,0.0,0.0,0.0,0.0,0.0,0.0,0.0,0.0,0.0,0.0,0.0,0.0,0.0,0.0,0.0,0.0,0.0,0.0,0.0,0.0,0.0,0.0,0.0,0.0,0.0,0.0,0.0,0.0,0.0,0.0,0.0,0.0,0.0,0.0,0.0,0.0,0.0,0.0,0.0,0.0,0.0,0.0,0.0,0.0,0.0,0.0,0.0,0.0,0.0,0.0,0.0,0.0,0.0,0.0,0.0,0.0,0.0,0.0,0.0,0.0,0.0,0.0,0.0,0.0,0.0,0.0,0.0,0.0,0.0,0.0,0.0,0.0,0.0,0.0,0.0,0.0,0.0,0.0,0.0,0.0,0.0,0.0,0.0,0.0,0.0,0.0,0.0,0.0,0.0,0.0,0.0,0.0,0.0,0.0,0.0,0.0,0.0,0.0,0.0,0.0,0.0,0.0,0.0,0.0,0.0,0.0,0.0,0.0,0.0,0.0,0.0,0.0,0.0,0.0,0.0,0.0,0.0,0.0,0.0,0.0,0.0,0.0,0.0,0.0,0.0,0.0,0.0,0.0,0.0,0.0,0.0,0.0,0.0,0.0,0.0,0.0,0.0,0.0,0.0,0.0,0.0,0.0,0.0,0.0,0.0,0.0,0.0,0.0,0.0,0.0,0.0,0.0,0.0,0.0,0.0,0.0,0.0,0.0,0.0,0.0,0.0,0.0,0.0,0.0,0.0,0.0,0.0,0.0,0.0,0.0,0.0,0.0,0.0,0.0,0.0,0.0,0.0,0.0,0.0,0.0,0.0,0.0,0.0,0.0,0.0,0.0,0.0,0.0,0.0,0.0,0.0,0.0,0.0,0.0,0.0,0.0,0.0,0.0,0.0,0.0,0.0,0.0,0.0,0.0,0.0,0.0,0.0,0.0,0.0,0.0,0.0,0.0,0.0,0.0,0.0,0.0,0.0,0.0,0.0,0.0,0.0,0.0,0.0,0.0,0.0,0.0,0.0,0.0,0.0,0.0,0.0,0.0,0.0,0.0,0.0,0.0,0.0,0.0,0.0,0.0,0.0,0.0,0.0,0.0,0.0,0.0,0.0,0.0,0.0,0.0,0.0,0.0,0.0,0.0,0.0,0.0,0.0,0.0,0.0,0.0,0.0,0.0,0.0,0.0,0.0,0.0,0.0,0.0,0.0,0.0,0.0,0.0,0.0,0.0,0.0,0.0,0.0,0.0,0.0,0.0,0.0,0.0,0.0,0.0,0.0,0.0,0.0,0.0,0.0,0.0,0.0,0.0,0.0,0.0,0.0,0.0,0.0,0.0,0.0,0.0,0.0,0.0,0.0,0.0,0.0,0.0,0.0,0.0,0.0,0.0,0.0,0.0,0.0,0.0,0.0,0.0,0.0,0.0,0.0,0.0,0.0,0.0,0.0,0.0,0.0,0.0,0.0,0.0,0.0,0.0,0.0,0.0,0.0,0.0,0.0,0.0,0.0,0.0,0.0,0.0,0.0,0.0,0.0,0.0,0.0,0.0,0.0,0.0,0.0,0.0,0.0,0.0,0.0,0.0,0.0,0.0,0.0,0.0,0.0,0.0,0.0,0.0,0.0,0.0,0.0,0.0,0.0,0.0,0.0,0.0,0.0,0.0,0.0,0.0,0.0,0.0,0.0,0.0,0.0,0.0,0.0,0.0,0.0,0.0,0.0,0.0,0.0,0.0,0.0,0.0,0.0,0.0,0.0,0.0,0.0,0.0,0.0,0.0,0.0,0.0,0.0,0.0,0.0,0.0,0.0,0.0,0.0,0.0,0.0,0.0,0.0,0.0,0.0,0.0,0.0,0.0,0.0,0.0,0.0,0.0,0.0,0.0,0.0,0.0,0.0,0.0,0.0,0.0,0.0,0.0,0.0,0.0,0.0,0.0,0.0,0.0,0.0,0.0,0.0,0.0,0.0,0.0,0.0,0.0,0.0,0.0,0.0,0.0,0.0,0.0,0.0,0.0,0.0,0.0,0.0,0.0,0.0,0.0,0.0,0.0,0.0,0.0,0.0,0.0,0.0,0.0,0.0,0.0,0.0,0.0,0.0,0.0,0.0,0.0,0.0,0.0,0.0,0.0,0.0,0.0,0.0,0.0,0.0,0.0,0.0,0.0,0.0,0.0,0.0,0.0,0.0,0.0,0.0,0.0,0.0,0.0,0.0,0.0,0.0,0.0,0.0,0.0,0.0,0.0,0.0,0.0,0.0,0.0,0.0,0.0,0.0,0.0,0.0,0.0,0.0,0.0,0.0,0.0,0.0,0.0,0.0,0.0,0.0,0.0,0.0,0.0,0.0,0.0,0.0,0.0,0.0,0.0,0.0,0.0,0.0,0.0,0.0,0.0,0.0,0.0,0.0,0.0,0.0,0.0,0.0,0.0,0.0,0.0,0.0,0.0,0.0,0.0,0.0,0.0,0.0,0.0,0.0,0.0,0.0,0.0,0.0,0.0,0.0,0.0,0.0,0.0,0.0,0.0,0.0,0.0,0.0,0.0,0.0,0.0,0.0,0.0,0.0,0.0,0.0,0.0,0.0,0.0,0.0,0.0,0.0,0.0,0.0,0.0,0.0,0.0,0.0,0.0,0.0,0.0,0.0,0.0,0.0,0.0,0.0,0.0,0.0,0.0,0.0,0.0,0.0,0.0,0.0,0.0,0.0,0.0,0.0,0.0,0.0,0.0,0.0,0.0,0.0,0.0,0.0,0.0,0.0,0.0,0.0,0.0,0.0,0.0,0.0,0.0,0.0,0.0,0.0,0.0,0.0,0.0,0.0,0.0,0.0,0.0,0.0,0.0,0.0,0.0,0.0,0.0,0.0,0.0,0.0,0.0,0.0,0.0,0.0,0.0,0.0,0.0,0.0,0.0,0.0,0.0,0.0,0.0,0.0,0.0,0.0,0.0,0.0,0.0,0.0,0.0,0.0,0.0,0.0,0.0,0.0,0.0,0.0,0.0,0.0,0.0,0.0,0.0,0.0,0.0,0.0,0.0,0.0,0.0,0.0,0.0,0.0,0.0,0.0,0.0,0.0,0.0,0.0,0.0,0.0,0.0,0.0,0.0,0.0,0.0,0.0,0.0,0.0,0.0,0.0,0.0,0.0,0.0,0.0,0.0,0.0,0.0,0.0,0.0,0.0,0.0,0.0,0.0,0.0,0.0,0.0,0.0,0.0,0.0,0.0,0.0,0.0,0.0,0.0,0.0,0.0,0.0,0.0,0.0,0.0,0.0,0.0,0.0,0.0,0.0,0.0,0.0,0.0,0.0,0.0,0.0,0.0,0.0,0.0,0.0,0.0,0.0,0.0,0.0,0.0,0.0,0.0,0.0,0.0,0.0,0.0,0.0,0.0,0.0,0.0,0.0,0.0,0.0,0.0,0.0,0.0,0.0,0.0,0.0,0.0,0.0,0.0,0.0,0.0,0.0,0.0,0.0,0.0,0.0,0.0,0.0,0.0,0.0,0.0,0.0,0.0,0.0,0.0,0.0,0.0,0.0,0.0,0.0,0.0,0.0,0.0,0.0,0.0,0.0,0.0,0.0,0.0,0.0,0.0,0.0,0.0,0.0,0.0,0.0,0.0,0.0,0.0,0.0,0.0,0.0,0.0,0.0,0.0,0.0,0.0,0.0,0.0,0.0,0.0,0.0,0.0,0.0,0.0,0.0,0.0,0.0,0.0,0.0,0.0,0.0,0.0,0.0,0.0,0.0,0.0,0.0,0.0,0.0,0.0,0.0,0.0,0.0,0.0,0.0,0.0,0.0,0.0,0.0,0.0,0.0,0.0,0.0,0.0,0.0,0.0,0.0,0.0,0.0,0.0,0.0,0.0,0.0,0.0,0.0,0.0,0.0,0.0,0.0,0.0,0.0,0.0,0.0,0.0,0.0,0.0,0.0,0.0,0.0,0.0,0.0,0.0,0.0,0.0,0.0,0.0,0.0,0.0,0.0,0.0,0.0,0.0,0.0,0.0,0.0,0.0,0.0,0.0,0.0,0.0,0.0,0.0,0.0,0.0,0.0,0.0,0.0,0.0,0.0,0.0,0.0,0.0,0.0,0.0,0.0,0.0,0.0,0.0,0.0,0.0,0.0,0.0,0.0,0.0,0.0,0.0,0.0,0.0,0.0,0.0,0.0,0.0,0.0,0.0,0.0,0.0,0.0,0.0,0.0,0.0,0.0,0.0,0.0,0.0,0.0,0.0,0.0,0.0,0.0,0.0,0.0,0.0,0.0,0.0,0.0,0.0,0.0,0.0,0.0,0.0,0.0,0.0,0.0,0.0,0.0,0.0,0.0,0.0,0.0,0.0,0.0,0.0,0.0,0.0,0.0,0.0,0.0,0.0,0.0,0.0,-2.0916,0.0,0.0,0.0,0.0,0.0,0.0,0.0,0.0,0.0,0.0,0.0,0.0,0.0,0.0,0.0,0.0,0.0,0.0,0.0,0.0,0.0,0.0,0.0,0.0,0.0,0.0,0.0,0.0,0.0,0.0,0.0,0.0,0.0,0.0,0.0,0.0,0.0,0.0,0.0,0.0,0.0,0.0,0.0,0.0,0.0,0.0,0.0,0.0,0.0,0.0,0.0,0.0,0.0,0.0,0.0,0.0,0.0,0.0,0.0,0.0,0.0,0.0,0.0,0.0,0.0,0.0,0.0,0.0,0.0,0.0,0.0,0.0,0.0,0.0,0.0,0.0,0.0,0.0,0.0,0.0,0.0,0.0,0.0,0.0,0.0,0.0,0.0,0.0,0.0,0.0,0.0,0.0,0.0,0.0,0.0,0.0,0.0,0.0,0.0,0.0,0.0,0.0,0.0,0.0,0.0,0.0,0.0,0.0,0.0,0.0,0.0,0.0,0.0,0.0,0.0,0.0,-2.1841,0.0,0.0,0.0,0.0,0.0,0.0,0.0,0.0,0.0,0.0,0.0,0.0,0.0,0.0,0.0,0.0,0.0,0.0,0.0,0.0,0.0,0.0,0.0,0.0,0.0,0.0,0.0,0.0,0.0,0.0,0.0,0.0,0.0,0.0,0.0,0.0,0.0,0.0,0.0,0.0,0.0,0.0,0.0,0.0,0.0,0.0,0.0,0.0,0.0,0.0,0.0,0.0,0.0,0.0,0.0,0.0,0.0,0.0,0.0,0.0,0.0,0.0,0.0,0.0,0.0,0.0,0.0,0.0,0.0,0.0,0.0,0.0,0.0,0.0,0.0,0.0,0.0,0.0,0.0,0.0,0.0,0.0,0.0,0.0,0.0,0.0,0.0,0.0,0.0,0.0,0.0,0.0,0.0,0.0,0.0,0.0,0.0,0.0,0.0,0.0,0.0,0.0,0.0,0.0,0.0,0.0,0.0,0.0,-2.5215,-2.5489,-2.5121,-2.4326,-2.3794,-2.3454,-2.2486,-2.2066,-2.1772,-2.0608,0.0,0.0,0.0,0.0,0.0,0.0,0.0,0.0,0.0,0.0,0.0,0.0,0.0,0.0,0.0,0.0,0.0,0.0,0.0,0.0,0.0,0.0,0.0,0.0,0.0,0.0,0.0,0.0,0.0,0.0,0.0,0.0,0.0,0.0,0.0,0.0,0.0,0.0,-2.0092,-2.2474,-2.3788,-2.4025,0.0,0.0,0.0,0.0,0.0,0.0,0.0,0.0,0.0,0.0,0.0,0.0,0.0,0.0,0.0,0.0,0.0,0.0,0.0,0.0,0.0,0.0,0.0,0.0,0.0,0.0,0.0,0.0,0.0,0.0,0.0,0.0,0.0,0.0,0.0,0.0,0.0,0.0,0.0,0.0,0.0,0.0,0.0,0.0,-1.6329,-1.7884,0.0,0.0,0.0,0.0,0.0,0.0,0.0,0.0,0.0,0.0,0.0,0.0,0.0,-2.4525,-2.5102,-2.5954,-2.6481,-2.6602,-2.7461,-2.6902,-2.5153,-2.5442,-2.4746,-2.3337,-2.2317,0.0,-2.1295,-1.9452,0.0,0.0,0.0,0.0,0.0,0.0,0.0,0.0,0.0,0.0,0.0,0.0,0.0,0.0,0.0,0.0,0.0,0.0,0.0,0.0,0.0,0.0,0.0,0.0,0.0,0.0,0.0,0.0,0.0,0.0,0.0,0.0,0.0,0.0,0.0,0.0,0.0,0.0,-2.2208,-2.3833,-2.4694,-2.4755,-2.3526,-2.3332,-2.4023,-2.3934,0.0,0.0,0.0,0.0,0.0,0.0,0.0,0.0,0.0,0.0,0.0,0.0,0.0,0.0,0.0,0.0,0.0,0.0,0.0,0.0,0.0,0.0,0.0,0.0,0.0,0.0,0.0,0.0,0.0,0.0,0.0,0.0,0.0,0.0,0.0,0.0,0.0,0.0,0.0,-1.6263,-1.7981,-1.8961,-2.0383,-2.0894,0.0,0.0,0.0,0.0,0.0,0.0,0.0,0.0,0.0,-2.4878,-2.6003,-2.6621,-2.6816,-2.7666,-2.8086,-2.8096,-2.8711,-2.811,-2.6238,-2.5605,-2.4433,-2.2852,-2.1486,-2.0805,-2.0554,-1.9217,-1.8478,-1.813,0.0,0.0,0.0,0.0,-1.7154,-1.7341,0.0,0.0,0.0,0.0,0.0,0.0,0.0,0.0,0.0,0.0,0.0,0.0,0.0,0.0,0.0,-1.5618,0.0,0.0,0.0,0.0,0.0,0.0,0.0,0.0,0.0,0.0,0.0,0.0,0.0,0.0,0.0,-2.4756,-2.5028,-2.4628,-2.3982,-2.4127,-2.4908,-2.5728,-2.4396,0.0,0.0,0.0,0.0,0.0,0.0,0.0,0.0,0.0,0.0,0.0,0.0,0.0,0.0,0.0,0.0,0.0,0.0,0.0,0.0,0.0,0.0,0.0,0.0,0.0,0.0,0.0,0.0,0.0,0.0,0.0,0.0,0.0,0.0,0.0,0.0,0.0,0.0,-1.7552,-1.9195,-1.9937,-2.1854,-2.2495,0.0,0.0,0.0,0.0,0.0,0.0,-2.3962,-2.4802,-2.5879,-2.748,-2.8027,-2.832,-2.832,-2.9053,-2.9191,-2.8726,-2.9154,-2.8251,-2.614,-2.5066,-2.3658,-2.2132,-2.0937,-2.0454,-2.0381,-1.9432,-1.8778,-1.835,-1.7963,-1.7816,-1.7829,-1.7989,-1.8143,-1.8357,0.0,0.0,0.0,0.0,0.0,0.0,0.0,0.0,0.0,0.0,0.0,0.0,0.0,0.0,-1.6152,-1.9454,-1.972,-2.0028,0.0,0.0,0.0,0.0,0.0,0.0,0.0,0.0,0.0,0.0,0.0,0.0,0.0,0.0,-2.5598,-2.4288,-2.4707,-2.4366,-2.3582,-2.4456,-2.2309,-1.8213,0.0,0.0,0.0,0.0,0.0,0.0,0.0,0.0,0.0,0.0,0.0,0.0,0.0,0.0,0.0,0.0,0.0,0.0,0.0,0.0,0.0,0.0,0.0,0.0,0.0,0.0,0.0,0.0,0.0,0.0,0.0,0.0,0.0,0.0,0.0,0.0,0.0,0.0,0.0,-2.1114,-2.3398,0.0,0.0,0.0,0.0,-2.2221,-2.3414,-2.4597,-2.5605,-2.7256,-2.8262,-2.8809,-2.9639,-3.0068,-3.0068,-3.0547,-3.0052,-2.8446,-2.8473,-2.679,-2.3762,-2.3645,-2.2783,-2.1188,-2.1062,-2.1062,-2.0975,-1.982,-1.9325,-1.9245,-1.8671,-1.8444,-1.8417,-1.8143,-1.8404,-1.8844,0.0,0.0,0.0,0.0,0.0,0.0,0.0,0.0,0.0,0.0,0.0,0.0,0.0,-1.5272,-1.7081,-1.9365,-2.0018,-2.0063,-1.9494,0.0,0.0,0.0,0.0,0.0,0.0,0.0,0.0,0.0,0.0,0.0,0.0,0.0,0.0,-2.3712,-2.329,-2.2867,-2.2564,-2.312,-2.227,-2.0576,-1.8764,-1.8642,0.0,0.0,0.0,0.0,0.0,0.0,0.0,0.0,0.0,0.0,0.0,0.0,0.0,0.0,0.0,0.0,0.0,0.0,0.0,0.0,0.0,0.0,0.0,0.0,0.0,0.0,0.0,0.0,0.0,0.0,0.0,0.0,0.0,0.0,0.0,0.0,0.0,-2.3985,-2.5741,0.0,-2.428,-2.4508,-2.4675,-2.4602,-2.5432,-2.6818,-2.8535,-2.9482,-3.0156,-3.0576,-2.9903,-2.9313,-2.9043,-2.8226,-2.7452,-2.6832,-2.6832,-2.5749,-2.3574,-2.3574,-2.2709,-2.1109,-2.1109,-2.1109,-2.1076,-2.0661,-2.0374,-2.0167,-1.9766,-1.9613,-1.9599,-1.9492,-1.9706,-2.004,0.0,0.0,0.0,0.0,0.0,0.0,0.0,0.0,0.0,0.0,0.0,-1.1908,-1.3827,-1.5296,-1.697,-1.8822,-1.8967,-1.8767,-1.8286,0.0,0.0,0.0,0.0,0.0,0.0,0.0,0.0,0.0,0.0,0.0,0.0,0.0,0.0,-2.2925,-2.2328,-2.1811,-2.1517,-2.1486,-2.1511,-2.1473,-1.9647,-1.8669,-1.8074,0.0,0.0,0.0,0.0,0.0,0.0,0.0,0.0,0.0,0.0,0.0,0.0,0.0,0.0,0.0,0.0,0.0,0.0,0.0,0.0,0.0,0.0,0.0,0.0,0.0,0.0,0.0,0.0,0.0,0.0,0.0,0.0,0.0,0.0,0.0,-2.4771,-2.6044,-2.7432,-2.7796,-2.6595,-2.6831,-2.7259,-2.7659,-2.7618,-2.8214,-2.9837,-2.9673,-2.9638,-2.9758,-2.8903,-2.8097,-2.7572,-2.6587,-2.5855,-2.5138,-2.5138,-2.4286,-2.2709,-2.2709,-2.2097,-2.1109,-2.1109,-2.1109,-2.1109,-2.1109,-2.0995,-2.0802,-2.0608,-2.0528,-2.0514,-2.0414,-2.0568,-2.0822,0.0,0.0,0.0,0.0,0.0,0.0,0.0,0.0,0.0,0.0,-0.9725,-1.1672,-1.3144,-1.4151,-1.5745,-1.8096,-1.6736,-1.6161,-1.7098,-1.4023,0.0,0.0,0.0,0.0,0.0,0.0,0.0,0.0,0.0,0.0,0.0,0.0,0.0,-2.1876,-2.1876,-2.1364,-2.043,-1.9687,-1.9778,-2.0461,-2.0537,-1.7934,-1.4058,0.0,0.0,0.0,0.0,0.0,0.0,0.0,0.0,0.0,0.0,0.0,0.0,0.0,0.0,0.0,0.0,0.0,0.0,0.0,0.0,0.0,0.0,0.0,0.0,0.0,0.0,0.0,0.0,0.0,0.0,0.0,0.0,0.0,-2.3593,-2.5071,-2.6377,-2.7075,-2.8623,-2.9482,-2.8953,-2.9653,-3.049,-3.1346,-2.9786,-2.8957,-2.9466,-2.7866,-2.6816,-2.643,-2.6665,-2.651,-2.6017,-2.6109,-2.5373,-2.3589,-2.3589,-2.2724,-2.1109,-2.1109,-2.1109,-2.1109,-2.1109,-2.1109,-2.1109,-2.1109,-2.1109,-2.1109,-2.1109,-2.1109,-2.1076,-2.0795,-2.0869,-2.1109,0.0,0.0,0.0,0.0,0.0,0.0,0.0,0.0,0.0,0.0,-0.8602,-1.0258,-1.3008,-1.3612,-1.4633,-1.6657,-1.5517,-1.4405,-1.3645,0.0,0.0,0.0,0.0,0.0,0.0,0.0,0.0,0.0,0.0,0.0,0.0,0.0,-1.9902,-1.8594,-1.8594,-1.8443,-1.823,-1.801,-1.7887,-1.7912,-1.86,-1.6915,-1.4174,0.0,0.0,0.0,0.0,0.0,0.0,0.0,0.0,0.0,0.0,0.0,0.0,0.0,0.0,0.0,0.0,0.0,0.0,0.0,0.0,0.0,0.0,0.0,0.0,0.0,0.0,0.0,0.0,0.0,0.0,0.0,0.0,-2.5779,-2.6864,-2.791,-2.8896,-2.9766,-3.0791,-3.0901,-2.9527,-2.96,-2.9324,-2.8187,-2.7704,-2.7605,-2.8094,-2.7607,-2.73,-2.7194,-2.6139,-2.5336,-2.4899,-2.3716,-2.2849,-2.2185,-2.2185,-2.182,-2.1109,-2.1109,-2.1109,-2.1109,-2.1109,-2.1109,-2.1109,-2.1109,-2.1109,-2.1109,-2.1109,-2.1109,-2.1096,-2.1022,-2.1042,-2.1109,0.0,0.0,0.0,0.0,0.0,0.0,0.0,0.0,0.0,0.0,-0.7856,-0.9085,-1.0971,-1.1668,-1.2357,-1.3397,-1.2701,-1.187,-1.1069,0.0,0.0,0.0,0.0,0.0,0.0,0.0,0.0,0.0,0.0,0.0,0.0,0.0,-1.8258,-1.7342,-1.7342,-1.7342,-1.7261,-1.6916,-1.6438,-1.5827,-1.5864,-1.5431,-1.4874,-1.5569,-1.5416,-1.4904,-1.5552,-1.5821,-1.5852,-1.6378,0.0,0.0,0.0,0.0,0.0,0.0,0.0,0.0,0.0,0.0,0.0,0.0,0.0,0.0,0.0,0.0,0.0,0.0,0.0,0.0,0.0,0.0,0.0,0.0,-2.3184,-2.5977,-2.7105,-2.9117,-3.0084,-2.9113,-3.0232,-3.0442,-2.8811,-2.8702,-2.8264,-2.7536,-2.6769,-2.6466,-2.6664,-2.6021,-2.5563,-2.5419,-2.4642,-2.3973,-2.3392,-2.2497,-2.1844,-2.155,-2.143,-2.1276,-2.1109,-2.1109,-2.1109,-2.1109,-2.1109,-2.1109,-2.1109,-2.1109,-2.1109,0.0,0.0,0.0,0.0,0.0,-2.1109,-2.1109,0.0,0.0,0.0,0.0,0.0,0.0,0.0,0.0,0.0,0.0,0.0,-0.815,-0.8229,-0.9157,-0.9747,-0.9855,-0.9499,-0.917,0.0,0.0,0.0,0.0,0.0,0.0,0.0,0.0,0.0,0.0,0.0,0.0,0.0,-1.7568,-1.7357,-1.6935,-1.6838,-1.6748,-1.669,-1.5863,-1.4933,-1.3889,-1.2803,-1.374,-1.5828,-1.5812,-1.5841,-1.5757,-1.5812,-1.5412,-1.512,-1.6192,0.0,0.0,0.0,0.0,0.0,0.0,0.0,0.0,0.0,0.0,0.0,0.0,0.0,0.0,0.0,0.0,0.0,0.0,0.0,0.0,0.0,0.0,0.0,0.0,-2.3066,-2.4792,-2.5465,-2.8747,-2.9878,-2.6827,-2.8196,-2.8855,-2.7393,-2.7296,-2.7426,-2.7619,-2.6046,-2.5248,-2.5248,0.0,0.0,0.0,0.0,-2.2592,-2.2038,-2.2038,-2.1877,-2.155,-2.1289,-2.1142,-2.1109,-2.1109,-2.1109,-2.1109,-2.1109,-2.1109,-2.1109,-2.1109,-2.1109,-2.1109,-2.1109,-2.0976,-2.0849,-2.0849,-2.0849,-2.0849,0.0,0.0,0.0,0.0,0.0,0.0,0.0,0.0,0.0,-0.6338,-0.6644,-0.7217,-0.8137,-0.8591,-0.935,-1.0543,-0.9816,-0.8622,0.0,0.0,0.0,0.0,0.0,0.0,0.0,0.0,0.0,0.0,0.0,0.0,-1.5567,-1.623,-1.5933,-1.4657,-1.3685,-1.3243,-1.3178,-1.2237,-1.1619,-1.13,-1.0448,-1.2412,-1.5819,-1.5803,-1.5833,-1.5822,-1.5789,-1.3051,-0.9537,-0.9824,-0.9751,-0.9501,-0.9555,0.0,0.0,0.0,0.0,0.0,0.0,0.0,0.0,0.0,0.0,0.0,0.0,0.0,0.0,0.0,0.0,0.0,0.0,0.0,0.0,-1.9966,-2.2144,-2.3514,-2.2532,-2.5858,-2.7942,-2.7016,-2.7819,-2.772,-2.6073,-2.5947,-2.5316,-2.406,-2.3665,-2.3393,-2.3393,-2.3133,-2.2839,-2.2779,-2.2832,-2.2692,-2.2338,-2.2338,-2.2071,-2.155,0.0,0.0,-2.1109,-2.1109,-2.1109,-2.1109,-2.1109,-2.1109,-2.1109,-2.1109,-2.1109,-2.1109,-2.1109,-2.0195,-1.9024,-1.9024,-1.9024,-1.9024,0.0,0.0,0.0,0.0,0.0,0.0,0.0,0.0,0.0,0.0,-0.6383,-0.6683,-0.7234,-0.7482,-0.7874,-0.853,-0.8141,0.0,0.0,0.0,0.0,0.0,0.0,0.0,0.0,0.0,0.0,0.0,0.0,0.0,-1.4226,-1.4399,-1.4202,-1.3523,-1.21,-1.1451,-1.1478,-1.0953,-1.0367,-0.9689,-0.9418,-1.0186,-1.1522,-1.1782,-1.1879,-1.19,-1.1858,-1.0207,-0.8007,-0.7967,-0.8001,-0.8038,-0.8041,-0.9774,-1.1864,0.0,0.0,0.0,0.0,0.0,0.0,0.0,0.0,0.0,0.0,0.0,0.0,0.0,0.0,-1.8618,0.0,0.0,-1.9773,-2.0361,-2.1811,-2.2608,-2.1874,-2.3562,-2.4833,-2.4807,-2.6005,-2.618,-2.4324,-2.4188,-2.3795,-2.2996,-2.2859,-2.2859,-2.2859,-2.2859,-2.2859,-2.2859,-2.2859,-2.2719,-2.2418,-2.2271,-2.1984,-2.155,-2.1403,-2.1256,-2.1109,-2.1109,-2.1109,-2.1109,-2.1109,-2.1109,-2.1109,-2.1109,-2.1109,-2.1109,-2.1109,-2.0068,-1.8506,-1.8506,-1.7988,-1.7211,0.0,0.0,0.0,0.0,0.0,0.0,0.0,0.0,0.0,0.0,0.0,-0.6999,-0.6839,-0.6638,-0.6424,0.0,0.0,0.0,0.0,0.0,0.0,0.0,0.0,0.0,0.0,0.0,0.0,0.0,0.0,-1.2824,-1.3,-1.2643,-1.254,-1.2535,-1.0987,-1.0406,-1.0571,-1.0164,-0.9473,-0.8581,-0.875,-0.8162,-0.7158,-0.7614,-0.7872,-0.7988,-0.7973,-0.7957,-0.7984,-0.8031,-0.8048,-0.8041,-0.7994,-0.7977,-0.8014,-0.7969,-1.0254,0.0,0.0,0.0,0.0,0.0,0.0,0.0,0.0,0.0,-2.0588,-1.9395,-1.9009,-1.9058,-1.9533,-2.0054,-2.0575,-2.1109,-2.1683,-2.2071,-2.2071,-2.2325,-2.2505,-2.2505,-2.4033,-2.4452,-2.2996,-2.2859,-2.2859,-2.2859,-2.2859,-2.2859,-2.2859,-2.2859,-2.2859,-2.2859,-2.2859,-2.2692,-2.2338,-2.2104,-2.181,-2.1463,-2.1223,-2.1109,-2.1109,-2.1109,-2.1109,-2.1109,-2.1109,-2.1109,-2.1109,-2.1109,-2.1109,-2.1109,-2.1109,-1.9807,-1.7988,-1.7988,-1.6953,-1.5399,0.0,0.0,0.0,0.0,0.0,0.0,0.0,0.0,0.0,0.0,0.0,0.0,0.0,0.0,0.0,0.0,0.0,0.0,0.0,0.0,0.0,0.0,0.0,0.0,0.0,0.0,0.0,0.0,-1.0,-1.0564,-1.1686,-1.1436,-1.1334,-1.1268,-1.003,-0.9591,-0.9846,-0.8566,-0.7784,-0.7308,-0.7729,-0.7521,-0.7149,-0.7177,-0.7511,-0.8,-0.7966,-0.7967,-0.7962,-0.7979,-0.7985,-0.7982,-0.7965,-0.7959,-0.8014,-0.7976,0.0,-0.8989,-1.4157,-1.6471,-1.7932,-2.0023,-1.8466,-1.6813,0.0,0.0,-2.0302,-2.0517,-2.0414,-2.0448,-2.0514,-2.0795,-2.1116,-2.145,-2.1991,-2.2372,-2.2372,-2.2625,-2.2812,-2.2812,-2.3113,-2.3126,-2.2859,-2.2859,-2.2859,-2.2859,-2.2859,-2.2859,-2.2859,-2.2859,-2.2859,-2.2859,-2.2859,-2.2592,-2.2038,-2.1997,-2.171,-2.1156,-2.1122,-2.1109,-2.1109,-2.1109,-2.1109,-2.1109,-2.1109,-2.1109,-2.1109,-2.1109,-2.1109,-2.1109,-2.1109,-1.903,-1.6172,-1.6172,-1.5139,-1.3582,0.0,0.0,0.0,0.0,0.0,0.0,0.0,0.0,0.0,0.0,0.0,0.0,0.0,0.0,0.0,0.0,0.0,0.0,0.0,0.0,0.0,0.0,0.0,0.0,0.0,0.0,0.0,-0.8825,-0.9235,-0.9865,-1.0637,-1.0224,-1.0314,-1.0747,-0.8997,-0.8419,-0.863,-0.6263,-0.517,-0.5045,-0.5274,-0.6138,-0.7367,-0.7139,-0.7248,-0.7535,-0.7845,-0.601,0.0,0.0,-0.3303,-0.3888,-0.7018,-0.8007,-0.7987,-0.7984,-0.7791,0.0,-1.0632,-1.389,-1.6925,-1.8597,-1.8993,-1.9132,-1.9874,-2.0414,-2.0653,-2.0561,-2.0802,-2.0982,-2.1156,-2.1283,-2.1463,0.0,-2.2004,-2.2164,-2.2164,-2.2418,-2.2539,-2.2372,-2.2498,-2.2672,-2.2846,-2.2859,-2.2859,-2.2859,-2.2859,-2.2859,-2.2859,-2.2859,-2.2786,-2.2612,-2.2605,-2.2325,-2.1737,-2.1737,-2.1523,-2.1109,-2.1109,-2.1109,-2.1109,-2.1109,-2.1109,-2.1109,-2.1109,-2.1109,-2.0982,-2.0062,-1.9546,-1.9546,-1.8506,-1.656,-1.4488,-1.5524,-1.4101,-1.1762,0.0,0.0,0.0,0.0,0.0,0.0,0.0,0.0,0.0,0.0,0.0,0.0,0.0,0.0,0.0,0.0,0.0,0.0,0.0,0.0,0.0,0.0,0.0,0.0,0.0,0.0,0.0,-0.8038,-0.8702,-0.9194,-0.9418,-0.9064,-0.9292,-0.976,-0.7527,-0.7027,-0.7841,-0.5749,-0.3962,-0.2607,-0.2604,-0.4643,-0.7591,-0.7462,-0.7248,-0.6951,-0.6125,-0.33,0.0,0.0,-0.0,-0.0948,-0.6086,-0.7722,-0.7722,-0.7749,-0.7828,-0.7986,-0.8014,-1.1005,-1.4345,-1.5266,-1.686,-1.8771,-2.0657,-2.1157,-2.0788,-1.9856,-2.0067,-2.0259,-2.0071,-2.0042,-2.0285,-2.0479,-2.058,-2.0762,-2.1172,-2.1479,-2.1671,-2.2011,-2.2171,-2.2385,-2.2599,-2.2619,-2.2652,-2.2732,-2.2665,-2.2619,-2.2619,-2.2619,-2.2519,-2.2305,-2.2298,-2.2058,-2.1557,-2.155,-2.1403,-2.1109,-2.1109,-2.1109,-2.1109,-2.1109,-2.1109,-2.1109,-2.1109,-2.1109,-2.0982,-1.968,-1.8854,-1.8279,-1.7055,-1.549,-1.4025,-1.4855,-1.3325,-1.0721,0.0,0.0,0.0,0.0,0.0,0.0,0.0,0.0,0.0,0.0,0.0,0.0,0.0,0.0,0.0,0.0,0.0,0.0,0.0,0.0,0.0,0.0,0.0,0.0,0.0,0.0,-0.7889,-0.8038,-0.8035,-0.8045,-0.8072,-0.8062,-0.8069,-0.7985,-0.5325,-0.5536,-0.8019,-0.7908,-0.4845,-0.0101,-0.0101,-0.3123,-0.7613,-0.7858,-0.7606,-0.6502,-0.1922,0.0,0.0,0.0,-0.0,-0.0856,-0.5623,-0.7149,0.0,-0.7174,-0.7511,-0.7979,-0.8007,-0.8937,-1.0008,-1.0029,-1.0568,-1.2737,-1.9499,-2.114,-2.0496,-1.8108,-1.8173,-1.8122,-1.6441,-1.6362,-1.6516,-1.6522,-1.684,-1.7518,-1.9276,-1.9554,-2.0099,-2.1852,-2.1991,-2.2004,0.0,-2.2011,-2.2131,-2.2412,-2.2171,-2.2011,-2.2011,-2.2011,-2.2004,-2.1997,-2.1997,-2.1857,-2.1557,-2.155,-2.1403,-2.1109,-2.1109,-2.1109,-2.1109,-2.1109,-2.1109,-2.1109,-2.1109,-2.1109,-2.1109,-2.0982,-1.9903,-1.8279,-1.8406,-1.7324,-1.5488,-1.39,-1.2281,-1.0721,0.0,0.0,0.0,0.0,0.0,0.0,0.0,0.0,0.0,0.0,0.0,0.0,0.0,0.0,0.0,0.0,0.0,0.0,0.0,0.0,0.0,0.0,0.0,0.0,0.0,0.0,-0.7987,-0.8038,-0.7955,-0.7965,-0.7972,-0.6139,-0.4418,-0.2607,-0.1703,-0.0902,-0.0,-0.0,-0.0,-0.0,-0.0,-0.1008,-0.2927,-0.6566,-0.5674,-0.2211,0.0,0.0,0.0,0.0,0.0,-0.4954,-0.6569,-0.7144,-0.7181,-0.7604,-0.7818,-0.8146,-0.8966,-0.9457,-0.9792,-0.9744,-1.0278,-1.1272,-1.3682,-1.4189,-1.4627,-1.6183,-1.6467,-1.6412,-1.5926,-1.5772,-1.5715,-1.6018,-1.7033,-1.8045,-1.8741,-1.9974,-2.0955,-2.1295,-2.1577,0.0,0.0,0.0,0.0,-2.2124,-2.2038,-2.2071,-2.2265,-2.2091,-2.1984,-2.1984,-2.1797,-2.1557,-2.1263,-2.1256,-2.1209,-2.1109,-2.1109,-2.1109,-2.1109,-2.1109,-2.1109,-2.1109,-2.1109,-2.1109,-2.0976,-1.9807,-1.8873,-1.8022,-1.7118,-1.6295,-1.5483,-1.5187,-1.4619,-1.397,0.0,0.0,0.0,0.0,0.0,0.0,0.0,0.0,0.0,0.0,0.0,0.0,0.0,0.0,0.0,0.0,0.0,0.0,0.0,0.0,0.0,0.0,0.0,0.0,0.0,-0.7729,-0.7695,-0.7801,-0.7868,-0.7435,-0.6484,-0.4808,-0.2609,0.01,0.2008,0.382,0.5441,0.5434,0.441,0.2692,0.0797,-0.0,-0.0399,-0.3798,-0.2975,0.0,0.0,0.0,0.0,0.0,-0.457,-0.7078,-0.7061,-0.7155,-0.7363,-0.7837,-0.8119,-0.8336,-0.929,-1.0162,-1.0646,-0.995,-1.0119,-1.0461,-1.0638,-1.1671,-1.2808,-1.373,-1.4318,-1.4557,-1.3858,-1.3836,-1.4058,-1.4332,-1.5797,-1.7207,-1.8057,-1.9283,-2.0436,-2.0976,-2.1276,-2.1416,0.0,0.0,0.0,-2.1871,-2.175,-2.1757,-2.1944,-2.177,-2.167,-2.167,-2.149,-2.1303,-2.1109,-2.1109,-2.1109,-2.1109,-2.1109,-2.1109,-2.1109,-2.1109,-2.1109,-2.1102,-2.1002,-2.1009,-2.0963,-1.972,-1.8644,-1.7877,-1.6894,-1.6428,-1.6127,-1.5727,-1.5987,-1.6455,0.0,0.0,0.0,0.0,0.0,0.0,0.0,0.0,0.0,0.0,0.0,0.0,0.0,0.0,0.0,0.0,0.0,0.0,0.0,0.0,0.0,0.0,0.0,0.0,0.0,-0.7525,-0.725,-0.7538,-0.7605,-0.6409,-0.4193,-0.407,-0.2607,0.0101,0.5242,0.7585,0.7788,0.7769,0.7796,0.7586,0.2442,0.0293,-0.0,-0.0282,0.0,0.0,0.0,0.0,0.0,0.0,0.0,-0.7098,-0.7098,-0.7471,-0.7897,-0.8095,-0.843,-0.8759,-0.9065,-1.092,-1.2357,-1.0535,-1.0095,-1.0318,-1.0548,-1.3366,-1.4782,-1.1009,-1.185,-1.2538,0.0,0.0,-1.1921,-1.1938,-1.3291,-1.5147,-1.7334,-1.7778,-1.8593,0.0,0.0,0.0,0.0,0.0,0.0,-2.1494,0.0,-2.1109,-2.1109,-2.1109,-2.1116,-2.1129,-2.1116,-2.1109,-2.1109,-2.1109,-2.1109,-2.1109,-2.1109,-2.1109,-2.1109,-2.1096,-2.1089,-2.1069,-2.0782,-2.0808,-2.1022,-2.0461,-1.9351,-1.7964,-1.7854,-1.77,-1.7379,-1.5787,-1.6528,-1.8034,0.0,0.0,0.0,0.0,0.0,0.0,0.0,0.0,0.0,0.0,0.0,0.0,0.0,0.0,0.0,0.0,0.0,0.0,0.0,0.0,0.0,0.0,0.0,0.0,0.0,0.0,0.0,0.0,0.0,-0.7237,-0.6716,-0.467,-0.2982,-0.1536,-0.0096,0.1919,0.4231,0.4227,0.5684,0.7842,0.0,0.3556,-0.0384,0.0,0.0,0.0,0.0,0.0,0.0,0.0,0.0,0.0,-0.7507,-0.8838,-1.0573,-1.0872,-1.1274,-1.1883,-1.2715,-1.3676,-1.4249,-1.3301,-1.272,-1.195,-1.0674,-1.2931,-1.4178,-1.0415,-1.1075,-1.2035,0.0,0.0,0.0,-1.351,-1.5443,0.0,-1.811,-1.9342,0.0,-2.1089,0.0,-2.1109,-2.1109,-2.1109,0.0,0.0,-2.1162,-2.1249,-2.1402,-2.1249,-2.1209,-2.1436,-2.1223,-2.1109,-2.1109,-2.1109,-2.1109,-2.1109,-2.1109,-2.1109,-2.1102,-2.0882,-2.0788,-2.0768,-2.0474,-2.0388,-2.0448,-2.0294,-1.9859,-1.9315,-1.9523,-1.9432,-1.9218,-1.9006,-1.9413,-1.9917,0.0,0.0,0.0,0.0,0.0,0.0,0.0,0.0,0.0,0.0,0.0,0.0,0.0,0.0,0.0,0.0,0.0,0.0,0.0,0.0,0.0,0.0,0.0,0.0,0.0,0.0,0.0,0.0,0.0,0.0,0.0,-0.6737,-0.5791,-0.5415,-0.4116,-0.2554,-0.0638,0.0,0.0,0.0,0.0,0.0,0.0,0.0,0.0,0.0,0.0,0.0,0.0,0.0,0.0,-0.8709,-0.8786,-1.005,-1.1677,-1.2289,0.0,-1.2843,-1.3429,-1.4534,-1.5183,-1.4261,-1.4326,-1.4193,-1.2556,-1.26,-1.2495,-1.1224,-1.1435,-1.1872,-1.1657,-1.3051,-1.4407,0.0,0.0,0.0,-1.91,-2.0086,-2.0822,0.0,-2.1109,0.0,-2.1109,-2.1109,-2.1109,0.0,-2.1109,-2.1116,-2.1396,-2.1249,-2.1189,-2.1349,-2.1196,-2.1049,-2.0922,-2.1042,-2.0982,-2.0728,-2.0855,-2.0915,-2.0909,-2.0615,-2.0555,-2.0655,0.0,-2.0114,-2.0214,-1.996,-1.9833,-1.9806,-1.984,-1.9753,-1.9633,-1.9793,-2.004,-2.0294,0.0,0.0,0.0,0.0,0.0,0.0,0.0,0.0,0.0,0.0,0.0,0.0,0.0,0.0,0.0,0.0,0.0,0.0,0.0,0.0,0.0,0.0,0.0,0.0,0.0,0.0,0.0,0.0,0.0,0.0,0.0,0.0,0.0,0.0,0.0,0.0,0.0,0.0,0.0,0.0,0.0,0.0,0.0,0.0,0.0,0.0,0.0,0.0,0.0,0.0,-1.1663,-1.0282,-1.0456,-1.115,-1.2136,-1.2775,-1.2915,-1.2863,-1.2894,-1.4312,-1.5557,-1.4724,-1.568,-1.6663,-1.5555,-1.3208,-1.1583,-1.2928,-1.2729,-1.2486,-1.2562,-1.4173,-1.5523,-1.5861,0.0,-1.9225,-2.0107,-2.0267,-2.0481,-2.0989,-2.1082,-2.1109,-2.1109,-2.1109,-2.1109,-2.1109,-2.1109,-2.1109,-2.1109,-2.1109,-2.1109,-2.1109,-2.1109,-2.0989,-2.0735,-2.0949,-2.0795,-2.0294,-2.0514,-2.0615,-2.0608,-2.0314,-2.0314,-2.0528,-1.998,-1.9887,-2.008,-1.9579,-1.9512,-1.972,-1.9466,-1.9366,-1.9366,-1.9366,-1.9553,-1.98,0.0,0.0,0.0,0.0,0.0,0.0,0.0,0.0,0.0,0.0,-1.4271,-1.4025,0.0,0.0,0.0,0.0,0.0,0.0,0.0,0.0,0.0,0.0,0.0,0.0,0.0,0.0,0.0,0.0,0.0,0.0,0.0,0.0,0.0,0.0,0.0,0.0,0.0,0.0,0.0,0.0,0.0,0.0,0.0,0.0,0.0,0.0,0.0,0.0,0.0,0.0,-1.3475,-1.1392,-1.1432,-1.2452,-1.3329,-1.2383,-1.2986,-1.4067,-1.4381,-1.4906,-1.5617,-1.699,-1.7528,-1.7967,-1.8444,-1.7388,0.0,0.0,-1.5148,-1.4856,-1.3814,-1.5208,-1.6721,-1.7488,-1.8269,-1.9225,-2.0107,-2.0441,-2.0641,0.0,-2.0962,-2.1109,-2.1109,-2.1109,0.0,0.0,-2.1109,-2.1109,-2.1109,-2.1109,-2.1109,-2.1109,-2.1109,-2.1082,-2.1036,-2.0848,-2.0702,-2.0601,-2.0401,-2.0307,-2.0301,-2.0007,-1.99,-1.9933,-1.9593,0.0,-1.9506,-1.9412,-1.9399,-1.9432,-1.9386,-1.9366,-1.9366,-1.9366,-1.9553,-1.98,0.0,0.0,0.0,0.0,0.0,0.0,0.0,-1.2601,-1.3276,-1.4719,-1.4897,-1.4946,-1.5005,-1.5271,-1.4635,0.0,0.0,0.0,0.0,0.0,0.0,0.0,0.0,0.0,0.0,0.0,0.0,0.0,0.0,0.0,0.0,0.0,0.0,0.0,0.0,0.0,0.0,0.0,0.0,0.0,0.0,0.0,0.0,0.0,0.0,0.0,0.0,0.0,0.0,0.0,-1.4436,-1.3818,-1.385,-1.3671,-1.3465,-1.3097,-1.3084,-1.3319,-1.3554,-1.443,-1.5497,-1.6565,-1.7488,-1.8232,-1.883,0.0,0.0,0.0,-1.5757,-1.5622,-1.5006,-1.5901,0.0,-1.7468,-1.8076,-1.8771,-1.9659,-2.0034,-2.0274,-2.0428,-2.0842,-2.1049,0.0,-2.1022,-2.1029,-2.0953,-2.0995,-2.1109,-2.1109,-2.1109,-2.1042,-2.0889,-2.0882,-2.0735,-2.0428,-2.0441,-2.0294,-1.9993,-2.0,-2.0007,-2.0,-1.9706,-1.9659,-1.9786,-1.9492,-1.9366,-1.9366,-1.9366,-1.9366,-1.9366,-1.9366,-1.9366,-1.9366,-1.9366,-1.9452,-1.9579,0.0,0.0,0.0,0.0,0.0,0.0,0.0,-1.343,-1.3979,-1.4994,-1.5679,-1.603,-1.5896,-1.6118,-1.5545,0.0,0.0,0.0,0.0,0.0,0.0,0.0,0.0,0.0,0.0,0.0,0.0,-1.2592,0.0,0.0,0.0,0.0,0.0,0.0,0.0,0.0,0.0,0.0,0.0,0.0,0.0,0.0,0.0,0.0,0.0,0.0,0.0,0.0,0.0,0.0,-1.4718,-1.5449,-1.5685,-1.464,-1.3233,-1.3205,-1.2602,-1.1959,-1.2059,-1.3209,-1.4444,-1.5325,-1.647,-1.7595,-1.8177,-1.7879,0.0,-1.6005,-1.5832,-1.5832,-1.5832,-1.6206,-1.6733,0.0,-1.7859,-1.8408,-1.9487,-1.9932,-2.0162,0.0,-2.0715,0.0,-2.0708,-2.0882,0.0,-2.0725,-2.0788,-2.0975,-2.1102,-2.1049,-2.0942,-2.0775,-2.0648,-2.0388,-1.9993,-2.0087,-1.9913,-1.9459,-1.9626,-1.9706,-1.97,-1.9472,-1.9492,-1.9693,-1.9466,-1.9366,0.0,-1.9366,-1.9366,-1.9366,-1.9366,-1.9366,-1.9366,-1.9366,-1.9366,-1.9366,0.0,0.0,0.0,0.0,0.0,0.0,0.0,-1.3802,-1.4167,-1.5811,-1.5937,-1.5896,-1.5896,-1.5566,-1.482,0.0,0.0,0.0,0.0,0.0,0.0,0.0,0.0,0.0,0.0,0.0,0.0,-1.36,-1.3673,0.0,0.0,0.0,0.0,0.0,0.0,-1.7725,0.0,0.0,0.0,0.0,0.0,0.0,0.0,0.0,0.0,0.0,0.0,0.0,0.0,0.0,0.0,-1.4398,-1.5445,-1.4644,-1.2907,-1.1347,0.0,0.0,-1.0549,-1.0835,-1.1661,-1.3946,-1.4764,-1.5535,-1.7306,0.0,-1.6573,-1.5959,-1.5832,-1.5832,-1.5832,-1.5872,-1.6471,-1.8112,0.0,-1.884,-2.0098,-2.0688,-2.0743,-1.9918,0.0,0.0,-2.0708,-2.0702,-2.0702,-2.0668,-2.0448,-2.0548,-2.1082,-2.0862,-2.0822,-2.1062,-2.0548,-2.0381,-2.0595,-2.0094,-1.9813,-1.976,-1.9519,-1.9406,-1.9406,-1.9379,-1.9379,-1.9406,-1.9379,-1.9366,0.0,-1.9366,-1.9366,-1.9366,-1.9366,-1.9366,-1.9366,-1.9366,-1.9366,-1.9366,0.0,0.0,0.0,0.0,0.0,0.0,-1.4085,-1.3864,-1.4055,-1.544,-1.5358,-1.4951,-1.4413,-1.4316,-1.4117,-1.3558,0.0,0.0,0.0,0.0,0.0,0.0,0.0,0.0,0.0,0.0,-1.2607,-1.3159,-1.4398,0.0,0.0,0.0,0.0,0.0,0.0,-1.8252,-1.8008,0.0,0.0,0.0,0.0,0.0,0.0,0.0,0.0,0.0,0.0,0.0,0.0,0.0,0.0,0.0,-1.8875,-1.8446,0.0,0.0,-1.1844,-1.1473,-1.1449,-1.1811,-1.2411,-1.3825,-1.4052,-1.441,-1.656,0.0,-1.6104,-1.5817,-1.5832,-1.6015,-1.6756,-1.6943,-1.7391,-1.8856,0.0,0.0,-2.0194,-2.003,-1.9967,-2.0131,-2.0089,0.0,0.0,0.0,-2.0408,-2.0408,-2.014,-2.0147,-2.0561,-2.0474,-2.0381,-2.0321,-2.0094,-1.9947,-1.9887,-1.9659,-1.9539,-1.9539,-1.9419,-1.9366,-1.9366,-1.9366,-1.9366,-1.9366,-1.9366,-1.9366,0.0,-1.9366,-1.9366,-1.9366,-1.9366,-1.9366,-1.9366,-1.9366,-1.9366,-1.9366,0.0,0.0,0.0,0.0,0.0,-1.3914,-1.4154,-1.3678,-1.3733,-1.5138,-1.4723,-1.4039,-1.3464,-1.3323,-1.3317,-1.3317,-1.3317,0.0,0.0,0.0,0.0,0.0,0.0,0.0,0.0,0.0,-1.2553,-1.3058,-1.4906,-1.6049,0.0,0.0,-1.9098,-1.8794,0.0,0.0,0.0,0.0,0.0,0.0,0.0,0.0,0.0,0.0,0.0,0.0,0.0,0.0,0.0,0.0,0.0,0.0,0.0,0.0,0.0,0.0,-1.3773,-1.2745,-1.274,-1.278,-1.283,-1.2536,-1.2606,-1.3293,0.0,0.0,-1.5751,-1.579,-1.6109,-1.6669,-1.7505,-1.7956,-1.8596,0.0,0.0,-2.0205,-2.0853,-2.0402,-2.0241,0.0,0.0,-2.0338,0.0,-2.1149,-2.1349,-2.1249,-2.0957,-2.0921,-2.1228,-2.1156,-2.0677,-1.9927,-1.976,-1.9619,-1.9499,-1.9412,-1.9366,-1.9366,-1.9366,-1.9366,-1.9366,-1.9366,-1.9366,-1.9366,-1.9366,-1.9366,0.0,-1.9366,-1.9366,-1.9366,-1.9366,-1.9366,-1.9366,-1.9366,-1.9366,-1.9366,0.0,0.0,0.0,0.0,0.0,0.0,-1.4085,-1.3189,-1.3107,-1.5074,-1.4134,-1.3386,-1.3708,-1.2879,-1.2298,-1.2298,-1.2298,0.0,0.0,0.0,0.0,0.0,0.0,0.0,0.0,0.0,-1.2739,-1.368,-1.5081,-1.6812,-1.8705,-1.9115,-1.9847,-2.0723,0.0,0.0,0.0,0.0,0.0,0.0,0.0,0.0,0.0,0.0,0.0,0.0,0.0,0.0,0.0,0.0,0.0,0.0,0.0,0.0,0.0,0.0,-1.604,-1.3784,-1.3784,-1.321,-1.1961,-0.9235,-0.9912,-1.1978,0.0,0.0,-1.5751,-1.579,-1.6756,-1.7692,-1.7692,-1.868,-1.9852,-2.1114,-2.1293,0.0,-2.2111,-2.2364,-2.2253,0.0,0.0,-2.2269,-2.295,-2.3729,-2.4113,-2.3751,-2.3398,0.0,-2.3702,-2.339,-2.2243,-2.0322,-1.9673,-1.9506,-1.9793,-1.9512,-1.9366,-1.9366,-1.9366,-1.9366,-1.9366,-1.9366,-1.9366,-1.9366,-1.9366,-1.9366,0.0,-1.9366,-1.9366,-1.9366,-1.9366,-1.9366,-1.9366,-1.9366,-1.9366,-1.9366,0.0,0.0,0.0,0.0,0.0,0.0,0.0,-1.2235,-1.2569,-1.4261,-1.353,-1.3058,-1.3379,-1.2753,-1.2305,-1.2305,-1.2305,0.0,0.0,0.0,0.0,0.0,0.0,0.0,0.0,0.0,-1.3492,-1.4007,-1.5869,-1.755,-1.8997,-1.9463,-2.0139,-2.0765,-1.9862,-1.9346,0.0,0.0,0.0,0.0,0.0,0.0,0.0,0.0,0.0,0.0,0.0,0.0,0.0,0.0,0.0,0.0,0.0,0.0,0.0,0.0,0.0,0.0,-1.774,-1.6532,-1.5163,-1.4354,-1.3009,-1.2661,-1.5245,0.0,-1.7472,-1.716,-1.8041,-1.9222,-2.0034,-2.0486,-2.1123,-2.2306,-2.2492,0.0,0.0,0.0,0.0,-2.2798,-2.3059,-2.3312,0.0,0.0,-2.3946,-2.383,-2.3714,-2.3706,-2.3813,-2.3714,-2.3367,-2.2689,-2.2487,-2.2433,-2.2534,-2.2433,-2.1926,-2.0923,-2.0923,-2.0364,-1.9366,-1.9366,-1.9366,-1.9366,-1.9366,-1.9366,0.0,-1.9366,-1.9366,-1.9366,-1.9366,-1.9366,-1.9366,-1.9366,-1.9366,-1.9366,0.0,0.0,0.0,0.0,0.0,0.0,0.0,-1.1531,-1.1892,-1.3407,-1.3109,-1.2953,-1.3394,-1.341,-1.3426,-1.3616,-1.3623,0.0,0.0,0.0,0.0,0.0,0.0,0.0,0.0,-1.36,-1.4126,-1.5138,-1.6523,-1.8075,-1.9746,-1.9826,-2.0366,-2.1198,-2.0302,-1.9766,0.0,0.0,0.0,0.0,0.0,0.0,-1.8716,0.0,0.0,0.0,0.0,0.0,0.0,0.0,0.0,0.0,0.0,0.0,0.0,0.0,-2.2128,-2.0972,0.0,-1.8715,-1.7559,-1.7741,-1.6326,0.0,0.0,-1.8225,-1.8643,-1.8419,-1.9314,-2.0395,-2.1203,-2.1658,-2.2217,-2.296,-2.3474,0.0,0.0,0.0,0.0,-2.5767,0.0,0.0,0.0,-2.698,-2.7295,-2.7027,-2.6369,-2.6045,-2.6191,-2.5666,-2.5348,-2.5489,-2.4378,-2.3822,-2.3822,-2.3822,-2.3375,-2.2476,-2.2476,-2.1707,-2.0256,-2.0256,-1.9924,-1.9366,-1.9366,0.0,0.0,-1.9366,-1.9366,-1.9366,-1.9366,-1.9366,-1.9366,-1.9366,-1.9366,-1.9366,0.0,0.0,0.0,0.0,0.0,0.0,0.0,-1.117,-1.1219,-1.2565,-1.2848,-1.3157,-1.3742,-1.4593,-1.532,-1.5773,0.0,0.0,0.0,0.0,0.0,0.0,0.0,0.0,0.0,-1.433,-1.4752,-1.6636,-1.7044,-1.8504,-2.0854,-2.0282,-2.0717,-2.1964,-2.0597,-2.0007,0.0,0.0,0.0,0.0,0.0,0.0,0.0,0.0,0.0,0.0,0.0,0.0,0.0,0.0,0.0,0.0,0.0,0.0,0.0,0.0,0.0,0.0,0.0,-2.0061,-1.9333,-1.9628,-1.9445,0.0,0.0,-2.018,0.0,-1.9588,-2.0576,-2.1471,-2.156,-2.2482,-2.3222,-2.3299,-2.4241,0.0,0.0,-2.7217,0.0,0.0,-3.1106,0.0,-3.1072,-3.233,-3.2869,-3.2297,-3.0813,-2.9968,-3.0338,-2.8739,-2.7986,-2.8281,-2.5608,-2.4156,-2.4156,-2.4156,-2.4044,-2.3933,-2.3933,-2.3151,-2.1586,-2.1586,-2.0809,0.0,-1.9366,0.0,0.0,-1.9366,-1.9366,-1.9366,-1.9366,-1.9366,-1.9366,-1.9366,-1.9366,-1.9366,0.0,0.0,0.0,0.0,0.0,0.0,0.0,0.0,0.0,0.0,-1.3302,-1.3958,-1.4735,-1.4386,-1.4621,0.0,0.0,0.0,0.0,0.0,0.0,0.0,0.0,0.0,0.0,-1.5138,-1.5652,-1.6636,-1.7572,-1.9153,-2.1229,-2.0989,-2.149,-2.2512,-2.1397,-2.0747,0.0,0.0,0.0,0.0,0.0,0.0,0.0,0.0,0.0,0.0,-2.0879,-2.3139,0.0,0.0,0.0,0.0,0.0,0.0,0.0,0.0,-2.3135,-2.3047,-2.2648,0.0,-2.2143,-2.2198,-2.2217,-2.1814,0.0,0.0,0.0,-2.0845,0.0,0.0,-2.3836,-2.419,-2.4713,-2.5557,0.0,0.0,-2.6849,0.0,0.0,-3.1009,-3.2162,-3.2499,-3.1513,-3.2085,-3.2483,-3.2361,-3.1929,-3.1302,-3.0346,-2.9879,-2.9306,-2.8291,-2.7618,-2.7276,-2.7276,-2.7276,-2.6717,-2.5599,-2.5599,-2.4147,-2.1586,-2.1586,-2.0809,-1.9366,0.0,0.0,-1.9366,-1.9366,-1.9366,-1.9366,-1.9366,-1.9366,-1.9366,-1.9366,-1.9366,-1.9366,0.0,0.0,0.0,0.0,0.0,0.0,0.0,0.0,0.0,0.0,0.0,0.0,0.0,0.0,0.0,0.0,0.0,0.0,0.0,0.0,0.0,0.0,0.0,0.0,-1.579,-1.5568,-1.5979,-1.722,-1.8552,-2.0114,-2.1843,-2.2007,-2.2536,-2.3153,-2.2048,-2.1631,0.0,0.0,0.0,0.0,-2.2132,0.0,0.0,0.0,0.0,0.0,-2.2637,-2.4683,0.0,-2.6526,-2.653,-2.5931,0.0,0.0,0.0,0.0,-2.3093,-2.3093,-2.3093,-2.3115,-2.3065,-2.3065,-2.3082,-2.2862,-2.203,0.0,0.0,0.0,0.0,0.0,0.0,0.0,0.0,0.0,-2.774,0.0,0.0,0.0,-3.2711,-3.361,-3.4323,-3.4548,0.0,-3.4433,-3.4498,-3.4205,-3.3566,-3.2636,-3.1331,-3.0641,-2.9713,-2.8291,-2.8291,-2.8291,-2.8291,-2.8291,-2.795,-2.7159,-2.7159,-2.5489,-2.2589,-2.2589,-2.1487,-1.9366,0.0,0.0,-1.9366,-1.9366,-1.9366,-1.9366,-1.9366,-1.9366,-1.9379,-1.9512,-1.9486,-1.9372,0.0,0.0,0.0,0.0,0.0,0.0,0.0,0.0,0.0,0.0,0.0,0.0,0.0,0.0,0.0,0.0,0.0,0.0,0.0,0.0,0.0,0.0,0.0,-1.5213,-1.6784,-1.6053,-1.6603,-1.8402,-1.9933,-2.14,-2.2898,-2.3308,-2.3549,-2.3595,-2.2381,-2.2297,0.0,0.0,-2.3894,-2.5161,-2.3818,0.0,0.0,0.0,0.0,0.0,0.0,0.0,0.0,-2.6463,-2.6129,-2.5207,-2.2871,0.0,0.0,0.0,0.0,0.0,-2.3073,-2.312,-2.3076,-2.3125,-2.3319,-2.3406,-2.3387,0.0,0.0,0.0,0.0,0.0,0.0,-2.6787,0.0,0.0,0.0,0.0,-3.3946,-3.4424,-3.4977,-3.6219,-3.6508,0.0,-3.691,-3.7014,-3.6793,-3.6136,-3.5,-3.3679,-3.2106,-3.0959,-2.9713,-2.8291,-2.8291,-2.8291,-2.8291,-2.8291,-2.8291,-2.8291,-2.8291,-2.6726,-2.3822,-2.3822,-2.2161,-1.9366,0.0,0.0,-1.9366,-1.9366,-1.9366,-1.9366,-1.9366,-1.9366,-1.9399,-1.9646,-1.9579,-1.9488,0.0,0.0,0.0,0.0,0.0,0.0,0.0,0.0,0.0,0.0,0.0,0.0,0.0,0.0,0.0,0.0,0.0,0.0,0.0,0.0,0.0,0.0,-1.8252,-1.7862,-1.7803,-1.7786,-1.8853,-2.083,-2.1445,-2.3042,-2.5529,-2.501,-2.4134,-2.2797,-2.1809,-2.1926,-2.2928,-2.3229,-2.4292,-2.5666,-2.5094,0.0,0.0,0.0,0.0,0.0,0.0,0.0,0.0,-2.6527,-2.4237,-2.1693,-2.2859,0.0,0.0,0.0,0.0,0.0,-2.2879,-2.3123,-2.3061,-2.3066,-2.4044,-2.4998,-2.4648,0.0,0.0,0.0,0.0,0.0,0.0,-2.8209,-2.8867,0.0,0.0,-3.3908,0.0,0.0,-3.7123,-3.6445,0.0,-3.7236,-3.5918,-3.6232,-3.6019,-3.4846,-3.4481,-3.3261,-3.0716,-3.0402,-2.9713,-2.8291,-2.8291,-2.8291,-2.8291,-2.8291,-2.8291,-2.8291,-2.8291,-2.6726,-2.3822,-2.3822,-2.2161,-1.9366,0.0,-1.9366,-1.9366,-1.9366,-1.9366,-1.9366,-1.9366,-1.9366,-1.9372,-1.9419,-1.9406,-1.9366,0.0,0.0,0.0,0.0,0.0,0.0,0.0,0.0,0.0,0.0,0.0,0.0,0.0,0.0,0.0,0.0,0.0,0.0,0.0,0.0,0.0,-1.9316,-1.9574,-1.9123,-1.7939,-1.8414,-1.9637,-2.1498,-2.3005,-2.4413,-2.5683,-2.5045,-2.402,-2.2713,-2.2849,-2.3484,-2.4522,-2.5284,-2.6549,-2.7885,0.0,0.0,0.0,0.0,0.0,0.0,0.0,0.0,0.0,0.0,-2.5264,-2.3939,-2.4842,0.0,0.0,0.0,0.0,0.0,-2.1665,-2.3294,-2.4914,-2.4911,-2.5189,-2.5444,-2.5663,0.0,0.0,0.0,0.0,0.0,0.0,0.0,-3.0897,-3.2945,0.0,-3.5265,-3.6621,-3.6734,-3.6709,0.0,0.0,-3.631,-3.5428,-3.5356,-3.4774,-3.3346,-3.3284,-3.235,-3.0401,-3.0318,-2.9713,-2.8291,-2.8291,-2.8291,-2.8291,-2.8291,-2.8291,-2.8291,-2.7501,-2.5936,-2.3822,-2.2927,-2.1487,-1.9366,0.0,-1.9366,-1.9366,-1.9366,-1.9366,-1.9366,-1.9366,-1.9366,-1.9366,-1.9366,-1.9499,-1.9639,0.0,0.0,0.0,0.0,0.0,0.0,0.0,0.0,0.0,0.0,0.0,0.0,0.0,0.0,0.0,0.0,0.0,0.0,0.0,0.0,-2.0117,-1.9463,-2.0175,-1.9864,-1.8228,-1.9328,-2.0723,-2.2408,-2.4323,-2.5203,-2.5172,-2.4456,-2.3734,-2.3118,-2.3886,-2.5015,-2.6302,-2.7219,-2.8492,-2.9677,0.0,0.0,0.0,0.0,0.0,0.0,0.0,0.0,0.0,0.0,0.0,0.0,0.0,0.0,0.0,-2.3841,-2.1958,-2.0625,-2.0628,-2.3514,-2.6603,-2.713,-2.6657,-2.6157,-2.6741,0.0,0.0,0.0,0.0,0.0,0.0,-3.1148,0.0,-3.4763,-3.5479,-3.6081,-3.7048,-3.6571,-3.6383,-3.7098,-3.6136,-3.5304,-3.5083,-3.4386,-3.3369,-3.1938,-3.183,-3.1245,-2.9922,-2.9807,-2.9408,-2.8291,-2.8291,-2.8291,-2.8291,-2.8291,-2.8291,-2.8291,-2.6825,-2.527,-2.371,-2.2251,-2.0809,-1.9366,-1.9366,-1.9366,-1.9366,-1.9366,-1.9366,-1.9366,-1.9366,-1.9366,-1.9366,-1.9366,-1.9553,-1.9641,0.0,0.0,0.0,0.0,0.0,0.0,0.0,0.0,0.0,0.0,0.0,0.0,0.0,0.0,0.0,0.0,0.0,0.0,0.0,0.0,-1.9932,-1.9873,-2.0339,-2.0174,-1.9243,-2.1498,-2.3428,-2.4873,-2.5197,-2.5092,-2.4455,-2.3746,-2.3655,-2.4212,-2.4186,-2.5414,-2.7448,-2.7834,-2.873,-2.9792,-2.9664,0.0,0.0,0.0,0.0,0.0,0.0,0.0,0.0,0.0,0.0,0.0,0.0,0.0,-2.6104,-2.405,-2.2105,-2.0625,-2.0586,-2.3472,-2.6989,-2.9028,-2.8749,0.0,-2.7936,-2.9168,0.0,-3.0386,0.0,0.0,0.0,-3.1461,-3.2554,-3.3809,-3.5303,-3.6508,-3.7098,0.0,-3.7663,-3.7236,-3.6076,-3.5059,-3.4469,-3.3277,-3.1836,-3.0525,-3.0432,-2.9828,-2.8495,-2.8388,-2.8398,-2.8291,-2.8291,-2.8291,-2.8291,-2.8291,-2.8291,-2.8291,-2.6825,-2.527,-2.371,-2.2251,-2.0809,-1.9366,-1.9366,-1.9366,-1.9366,-1.9366,-1.9366,-1.9366,-1.9366,-1.9366,-1.9366,-1.9366,-1.9386,-1.9406,0.0,0.0,0.0,0.0,0.0,0.0,0.0,0.0,0.0,0.0,0.0,0.0,0.0,0.0,0.0,0.0,0.0,0.0,0.0,0.0,-2.0083,-2.0452,-2.1041,-2.1393,-2.1388,-2.2457,-2.3531,-2.4601,-2.4413,-2.3779,-2.2736,-2.3168,-2.3597,-2.3881,-2.6124,-2.7512,-2.8196,-2.9466,-3.0074,-3.0054,-2.9859,-2.921,0.0,0.0,0.0,0.0,0.0,0.0,0.0,0.0,-2.6531,-2.6527,0.0,-2.6483,-2.6367,-2.5624,-2.3982,-2.2717,-2.3908,-2.5819,-2.7758,-2.8811,0.0,0.0,0.0,0.0,0.0,-3.0168,-3.0372,0.0,0.0,0.0,-3.2702,-3.4545,-3.573,-3.6671,-3.7575,-3.7575,-3.7412,-3.7211,-3.5771,-3.428,-3.3178,-3.1836,-3.0514,-2.9207,-2.9112,-2.8804,-2.8291,-2.8291,-2.8291,-2.8291,-2.8291,-2.8291,-2.8291,-2.8291,-2.7843,-2.6943,-2.538,-2.3933,-2.2363,-2.0721,-1.9745,-1.9359,-1.9172,-1.9092,-1.9092,-1.9092,-1.8985,-1.8844,-1.9018,-1.9092,-1.9112,-1.9299,-1.9366,-1.9366,0.0,0.0,0.0,0.0,0.0,0.0,0.0,0.0,0.0,0.0,0.0,0.0,0.0,0.0,0.0,0.0,0.0,0.0,0.0,-2.0012,-2.0627,-2.1392,-2.1998,-2.25,-2.29,-2.317,-2.3526,-2.3891,-2.3133,-2.2453,-2.1794,-2.2823,-2.3721,-2.4469,-2.7488,-2.8921,-2.922,-3.0487,-3.0724,-3.0217,-2.9995,-2.9606,0.0,0.0,0.0,0.0,0.0,0.0,0.0,0.0,-2.5927,0.0,0.0,0.0,0.0,-2.6527,-2.5075,-2.3796,-2.5177,-2.6796,-2.8225,0.0,0.0,0.0,0.0,0.0,0.0,0.0,-3.0483,0.0,0.0,0.0,0.0,0.0,-3.5629,-3.642,-3.7349,-3.6858,-3.6319,-3.6319,-3.4379,-3.2755,-3.1735,-3.0421,-2.9313,-2.8398,-2.8291,-2.8291,-2.8291,-2.8291,-2.8291,-2.8291,-2.8291,-2.8291,-2.8291,-2.8291,-2.7286,-2.5371,-2.4259,-2.2871,-2.1421,-1.9666,-1.8985,-1.9078,-1.8878,-1.8784,-1.8784,-1.8784,-1.8671,-1.851,-1.8711,-1.8818,-1.8778,-1.9105,-1.9259,-1.9236,0.0,0.0,0.0,0.0,0.0,0.0,0.0,0.0,0.0,0.0,0.0,0.0,0.0,0.0,0.0,0.0,0.0,0.0,-2.1196,-2.1174,-2.1677,-2.2659,-2.3074,-2.329,-2.329,-2.3747,-2.3678,-2.3,-2.1638,-2.1279,-2.1897,-2.2597,-2.415,-2.6372,-2.784,-2.93,-3.0596,-3.0596,-3.0456,-3.0237,-3.0178,-3.0054,-2.9679,0.0,0.0,0.0,0.0,0.0,0.0,0.0,-2.4614,-2.6521,0.0,0.0,0.0,-2.6482,-2.5111,-2.3555,-2.3555,-2.573,-2.8176,0.0,0.0,0.0,0.0,0.0,0.0,-3.1399,0.0,-3.1562,-3.2114,0.0,0.0,-3.3709,-3.4813,-3.5717,-3.627,-3.5259,-3.4374,-3.4374,-3.1927,-3.0307,-3.0307,-2.9092,-2.8281,-2.8281,-2.8281,-2.8281,-2.8281,-2.8281,-2.8281,-2.8281,-2.8281,-2.8281,-2.8281,-2.8281,-2.6825,-2.3813,-2.3568,-2.263,-2.0974,-1.9569,-1.8764,-1.849,-1.849,-1.849,-1.849,-1.8484,-1.8484,-1.8484,-1.8484,-1.8479,-1.8526,-1.8778,-1.8897,-1.8964,0.0,0.0,0.0,0.0,0.0,0.0,0.0,0.0,0.0,0.0,0.0,0.0,0.0,0.0,0.0,0.0,0.0,0.0,-2.0792,-2.1051,-2.18,-2.322,-2.3305,-2.379,-2.4925,-2.4432,-2.3412,-2.1701,-2.107,-2.1023,-2.1576,-2.3772,-2.5548,-2.6974,-2.9791,-3.102,-3.0984,-3.1423,-3.0992,-2.9916,-3.0122,-2.9796,-2.9176,0.0,0.0,0.0,0.0,0.0,0.0,0.0,0.0,0.0,0.0,0.0,0.0,-2.6701,-2.6042,-2.5634,-2.5587,-2.6695,0.0,-2.8182,0.0,0.0,0.0,0.0,0.0,0.0,0.0,-3.0809,-3.124,0.0,0.0,-3.317,-3.3922,-3.4292,-3.3971,-3.3563,-3.2983,-3.2099,-3.0427,-2.9352,-2.9352,-2.8468,-2.7851,-2.7851,-2.7851,-2.7851,-2.7851,-2.7851,-2.7715,-2.7402,-2.7695,-2.7851,-2.7851,-2.7549,-2.6559,-2.4966,-2.351,-2.1744,-1.9562,-1.8712,-1.8377,-1.8477,-1.827,-1.8183,-1.8163,-1.7943,-1.7849,-1.7876,-1.8096,-1.8141,-1.826,-1.8662,-1.8905,-1.8964,0.0,0.0,0.0,0.0,0.0,0.0,0.0,0.0,0.0,0.0,0.0,0.0,0.0,0.0,0.0,0.0,0.0,0.0,0.0,0.0,-2.2586,-2.3964,-2.3911,-2.4529,-2.5925,-2.4852,-2.3765,-2.2674,-2.2143,-2.2121,-2.265,-2.4779,-2.6584,-2.812,-3.0347,-3.1424,-3.1679,-3.1804,-3.1257,-3.0294,-3.0092,-2.9626,-2.9177,0.0,0.0,0.0,0.0,0.0,0.0,0.0,0.0,0.0,0.0,0.0,0.0,-2.7741,-2.7155,-2.6574,-2.7033,-2.7607,0.0,-2.8323,-2.9114,-2.988,-3.0218,0.0,0.0,0.0,0.0,-3.1222,-3.1756,-3.1683,0.0,-3.3233,-3.3684,-3.3628,-3.3023,-3.243,-3.1651,-3.0392,-2.9042,-2.8176,-2.8176,-2.7908,-2.7598,-2.7422,-2.7568,-2.7588,-2.7412,-2.7402,-2.7285,-2.7021,-2.7266,-2.7402,-2.7402,-2.7148,-2.6389,-2.5101,-2.3966,-2.1897,-1.9313,-1.8414,-1.8076,-1.8123,-1.7936,-1.7862,-1.7849,-1.7662,-1.7582,-1.7602,-1.7789,-1.7903,-1.8084,-1.8577,-1.8783,-1.8964,0.0,0.0,0.0,0.0,0.0,0.0,0.0,0.0,0.0,0.0,0.0,0.0,0.0,0.0,0.0,0.0,0.0,0.0,0.0,0.0,-2.369,-2.477,-2.4921,-2.546,-2.6584,-2.5294,-2.4761,-2.5158,-2.4146,-2.3933,-2.4578,-2.5778,-2.7485,-2.9597,-3.0067,-3.1041,-3.2384,-3.1645,-3.1117,-3.0697,-2.9914,-2.9443,-2.9193,-2.9552,0.0,0.0,0.0,0.0,0.0,0.0,0.0,0.0,-2.6502,0.0,-2.6905,-2.8885,-2.8138,-2.6873,-2.7868,0.0,0.0,-2.8825,-2.9402,0.0,-2.9839,-3.091,-3.2181,-3.2754,0.0,-3.2218,-3.2893,-3.2566,-3.2566,-3.3471,-3.3633,-3.3338,-3.2509,-3.1335,-3.0174,-2.8817,-2.7673,-2.6894,-2.6894,-2.7295,-2.7383,-2.6992,-2.7324,-2.7383,-2.6982,-2.6963,-2.6943,-2.6894,-2.6934,-2.6963,-2.6963,-2.6914,-2.6273,-2.4914,-2.4302,-2.2766,-2.0182,-1.8835,-1.7943,-1.7542,-1.7542,-1.7542,-1.7549,-1.7569,-1.7582,-1.7582,-1.7582,-1.7728,-1.8,-1.8379,-1.8638,-1.8964,0.0,0.0,0.0,0.0,0.0,0.0,0.0,0.0,0.0,0.0,0.0,0.0,0.0,0.0,0.0,0.0,0.0,0.0,0.0,0.0,-2.4117,-2.4795,-2.5649,-2.6427,-2.7092,-2.6826,-2.6474,-2.6176,-2.4084,-2.4038,-2.5896,-2.7328,-2.8761,-3.0139,-3.0908,-3.1186,-3.0895,-3.0263,-2.923,-2.8056,-2.8298,-2.7904,-2.7214,-2.8087,-2.8486,0.0,0.0,0.0,0.0,0.0,0.0,0.0,-2.6481,-2.6528,-2.6588,-2.7101,-2.7678,-2.8235,0.0,-2.7835,0.0,0.0,-2.9691,-3.0294,-2.9864,-3.0049,-3.0457,-3.1035,-3.0692,-3.07,-3.2122,-3.2303,-3.2077,-3.1837,-3.1757,-3.1066,-2.9069,-2.8537,-2.7883,-2.6573,-2.6202,-2.6016,-2.6016,-2.6406,-2.6631,-2.6533,-2.6611,0.0,-2.6533,-2.6523,-2.6367,-2.6025,-2.6348,-2.6523,-2.6523,-2.6182,-2.5983,0.0,-2.3485,-2.197,-2.1264,-1.994,-1.854,-1.7241,-1.7241,-1.7241,-1.7261,-1.7488,-1.7582,-1.7582,-1.7582,-1.7776,-1.8083,-1.8366,-1.8625,-1.8964,0.0,0.0,0.0,0.0,0.0,0.0,0.0,0.0,0.0,0.0,0.0,0.0,0.0,0.0,0.0,0.0,0.0,0.0,0.0,0.0,0.0,-2.685,-2.7559,-2.8035,-2.8331,-2.7944,-2.7406,-2.6854,-2.5733,-2.5832,-2.7157,-2.7881,-2.9188,-3.0926,-3.0713,-3.0807,-3.0943,-2.961,-2.8537,-2.7736,-2.7297,-2.6767,-2.6374,-2.7075,-2.7314,-2.7258,-2.6731,0.0,0.0,0.0,0.0,0.0,0.0,0.0,-2.7898,-2.6795,-2.7426,-2.8359,0.0,0.0,0.0,-2.9126,0.0,-2.9346,-2.9032,-2.8586,-2.8433,-2.9253,-2.9649,-3.0278,-3.1934,-3.2215,-3.1953,-3.1081,-3.1056,-3.0232,-2.743,-2.7306,-2.7043,-2.5631,-2.5605,-2.5742,-2.5742,-2.6133,-2.6299,-2.6094,0.0,-2.6299,-2.6084,-2.6074,-2.5977,-2.5742,-2.5957,-2.6074,-2.6074,-2.585,-2.5742,-2.5752,-2.3692,-2.1954,-2.0633,-1.9162,-1.7997,-1.7141,-1.7001,-1.6941,-1.6961,-1.7255,-1.7375,-1.7388,-1.7528,-1.7716,-1.8057,-1.8237,-1.8526,-1.8964,0.0,0.0,0.0,0.0,0.0,0.0,0.0,0.0,0.0,0.0,0.0,0.0,0.0,0.0,0.0,0.0,0.0,0.0,0.0,0.0,0.0,-2.9351,-2.9511,-2.9485,-2.9521,-2.862,-2.7826,-2.7143,-2.7291,-2.764,-2.8195,-2.8413,-2.9653,-3.152,-3.0312,-3.032,-3.1136,-2.8954,-2.8022,-2.7783,-2.6343,-2.5783,-2.5782,-2.5845,-2.6136,-2.6483,-2.6476,-2.7659,-2.9261,-2.9243,0.0,0.0,0.0,0.0,-2.9413,-2.7606,-2.7434,-2.7877,0.0,0.0,-2.9214,-2.9792,-2.901,0.0,-2.8203,-2.7348,-2.6801,-2.7855,-2.8879,-3.0001,-3.166,-3.1938,-3.1534,-3.0307,-3.0484,-2.9699,-2.6483,-2.6765,-2.6802,-2.5415,-2.5508,-2.5742,-2.5742,-2.6064,-2.6133,-2.5762,0.0,-2.6084,-2.5644,-2.5577,-2.5577,-2.5605,-2.5577,-2.5616,-2.5616,-2.5635,-2.54,-2.4925,-2.3739,-2.1804,-1.9125,-1.7654,-1.7027,-1.7061,-1.676,-1.6627,-1.6653,-1.6947,-1.7101,-1.7174,-1.7415,-1.7694,-1.8061,-1.807,-1.8361,-1.8794,0.0,0.0,0.0,0.0,0.0,0.0,0.0,0.0,0.0,0.0,0.0,0.0,0.0,0.0,0.0,0.0,0.0,0.0,-2.6349,0.0,0.0,-3.0466,-3.0152,-2.9807,-2.9508,-2.8894,-2.7971,-2.6634,-2.6123,0.0,0.0,0.0,0.0,-3.1501,-3.0799,-3.0241,-2.9717,-2.7637,-2.6363,-2.5744,-2.4851,-2.4528,-2.4493,-2.3816,-2.4782,-2.6483,-2.6476,-2.6684,-2.6968,-2.6966,-2.8195,0.0,0.0,0.0,-2.974,-2.9463,-2.8114,-2.7127,0.0,0.0,-2.9817,0.0,-2.9279,-2.8203,0.0,0.0,-2.6801,0.0,-2.8203,-2.8799,-3.0468,-3.0821,-3.0204,-2.8568,-2.862,-2.8094,-2.5628,-2.5698,-2.5897,-2.5654,-2.5703,-2.5742,-2.5742,-2.5791,-2.5801,0.0,-2.5791,-2.5625,-2.5176,-2.515,-2.515,-2.5153,-2.5218,-2.5217,-2.5217,-2.5139,-2.4961,-2.4429,-2.2136,-1.981,-1.749,-1.674,-1.6526,-1.6747,-1.646,-1.6333,-1.6353,-1.6647,-1.6914,-1.7154,-1.7194,-1.7528,-1.8009,-1.8279,-1.8509,-1.8574,0.0,0.0,0.0,0.0,0.0,0.0,0.0,0.0,0.0,0.0,0.0,0.0,0.0,0.0,0.0,-2.7003,-2.6429,-2.6318,-2.7014,-2.7869,-2.9192,-3.1094,-3.0375,-2.9827,-2.9767,-2.8533,-2.7301,-2.5975,-2.6229,0.0,0.0,-2.8989,-3.025,0.0,0.0,-2.9174,-2.8759,-2.6301,-2.5063,-2.4738,-2.3943,-2.3603,-2.3577,-2.3244,-2.3703,-2.4785,-2.6013,-2.6504,-2.6483,-2.6515,-2.7181,-2.7966,-2.794,0.0,0.0,0.0,-2.9147,-2.8575,-2.953,-2.9756,-2.9854,0.0,-2.9108,-2.8155,-2.8381,0.0,-2.7522,-2.8004,-2.8597,-2.9357,-3.0428,-3.062,-2.9922,-2.7918,-2.7939,-2.7182,-2.4405,-2.457,-2.4912,-2.4668,-2.4853,-2.5,-2.5,-2.5,-2.5,0.0,-2.5,-2.4912,-2.4717,-2.4736,-2.4727,-2.4741,-2.474,-2.4716,-2.4746,-2.4697,-2.3916,-2.2247,-2.0222,-1.8356,-1.6887,-1.6466,-1.6339,-1.6446,-1.6152,-1.6025,-1.6059,-1.6513,-1.678,-1.6934,-1.7261,-1.7555,-1.7796,-1.7956,-1.809,-1.8258,0.0,0.0,0.0,0.0,0.0,0.0,0.0,0.0,0.0,0.0,0.0,0.0,0.0,0.0,0.0,0.0,-2.7152,-2.705,-2.7744,-2.8781,-3.0001,-3.1437,-3.0659,-3.0095,-3.003,-2.8326,-2.684,-2.5598,0.0,0.0,-2.6929,-2.7461,-2.8834,0.0,-2.9088,-2.8197,0.0,-2.5612,-2.4641,-2.4556,-2.3531,-2.3072,-2.3085,-2.3115,-2.3117,-2.3487,-2.6675,-2.7325,-2.6738,-2.6559,-2.7064,-2.7613,-2.6791,-2.7652,0.0,0.0,0.0,-2.9783,0.0,0.0,-2.9829,-2.9967,-2.9034,-2.8211,0.0,0.0,-2.8176,0.0,-2.9197,-2.9917,-3.0331,-3.0407,-2.9721,-2.7856,-2.785,-2.7223,-2.4477,-2.4804,-2.4997,-2.4426,-2.4675,-2.468,-2.4414,-2.4414,-2.4414,0.0,-2.4414,-2.4375,-2.4258,-2.4232,-2.4274,-2.4232,-2.4232,-2.4219,-2.421,-2.4134,-2.2833,-2.0371,-1.9115,-1.783,-1.6587,-1.6293,-1.6159,-1.6146,-1.5925,-1.5832,-1.5858,-1.6306,-1.6526,-1.6647,-1.7161,-1.7402,-1.7488,-1.7642,-1.7796,-1.7909,0.0,0.0,0.0,0.0,0.0,0.0,0.0,0.0,0.0,0.0,0.0,0.0,-2.7906,-2.733,-2.7412,-2.8479,-2.7912,-2.7808,-2.8495,-2.9197,-3.0152,-3.1422,-3.1287,0.0,-3.003,-2.8569,-2.709,0.0,0.0,0.0,-2.6865,-2.6436,-2.7269,-2.9101,-2.8339,-2.7732,-2.7166,0.0,0.0,0.0,-2.3774,-2.3083,-2.3103,-2.3111,-2.3132,-2.3819,-2.9305,-2.9633,-2.7414,-2.672,-2.8616,-3.0686,-2.7494,-2.6595,-2.664,0.0,0.0,0.0,0.0,-2.9792,0.0,-3.0444,0.0,0.0,0.0,0.0,0.0,-2.9456,-2.9792,-2.9804,-2.9829,-2.9829,-2.9415,-2.8223,-2.8409,-2.8314,-2.7071,-2.7247,-2.7118,-2.6072,-2.6014,-2.5583,-2.4506,-2.4414,-2.4414,0.0,-2.4414,-2.4238,-2.3838,-2.3826,-2.3879,-2.3819,-2.3809,-2.3819,-2.3829,-2.3427,-2.211,-1.9919,-1.962,-1.8325,-1.6286,-1.5985,-1.5852,-1.5852,-1.5838,-1.5832,-1.5832,-1.5858,-1.6039,-1.6326,-1.6633,-1.6921,-1.7241,-1.7816,-1.7849,-1.7662,0.0,0.0,0.0,0.0,0.0,0.0,0.0,0.0,0.0,0.0,0.0,0.0,0.0,-2.7911,-2.8067,-2.8547,-2.7979,-2.773,-2.7919,-2.8966,-2.954,-2.9462,-2.9661,-2.937,-2.8556,-2.7522,-2.6391,0.0,0.0,-2.4659,-2.5063,-2.5167,-2.5434,-2.585,-2.6481,-2.6902,-2.6907,-2.4866,0.0,0.0,0.0,0.0,0.0,0.0,0.0,0.0,0.0,0.0,-2.7795,-2.9245,-3.0499,-3.1257,-3.0099,-2.8238,-2.679,-2.8188,-2.8657,-2.89,0.0,0.0,0.0,-2.9942,-2.9605,-2.9337,-2.9952,-2.9592,-2.9287,-2.9702,-2.9792,-2.9792,-2.9792,-2.9792,-2.9443,-2.8267,-2.825,-2.7964,-2.6896,-2.6201,-2.5701,-2.5291,-2.4625,-2.4028,-2.3594,-2.3594,-2.3594,0.0,0.0,-2.3525,-2.3379,-2.3329,-2.3359,-2.3378,-2.3378,-2.3378,-2.3378,-2.1606,-2.0387,-1.9637,-1.7925,-1.6718,-1.5985,-1.5879,-1.5832,-1.5832,-1.5832,-1.5832,-1.5845,-1.6039,-1.6179,-1.6299,-1.6593,-1.6887,-1.7174,-1.7388,-1.7515,-1.7721,0.0,0.0,0.0,0.0,0.0,0.0,0.0,0.0,0.0,0.0,0.0,0.0,0.0,0.0,-2.8361,-2.8599,-2.8173,-2.8008,-2.8284,-2.928,-2.9533,-2.8642,-2.8895,-2.862,-2.7736,-2.6547,-2.5548,0.0,0.0,0.0,0.0,-2.4495,-2.4558,-2.4681,-2.5159,-2.5595,0.0,0.0,0.0,-2.4919,0.0,0.0,-2.3366,0.0,0.0,0.0,0.0,0.0,-2.8024,-3.0624,-3.1501,-3.1529,-3.1517,-2.9179,-2.6794,-2.8254,-2.816,-2.7717,-2.8462,0.0,0.0,0.0,0.0,-2.9792,-2.9792,0.0,-2.9792,-2.9792,-2.9792,-2.9792,-2.9792,-2.9792,-2.9534,-2.8767,-2.8688,-2.8267,-2.7209,-2.6367,-2.5608,-2.4872,-2.4125,-2.3551,-2.3135,-2.3135,-2.3135,0.0,0.0,0.0,-2.3135,-2.3135,-2.3135,-2.3135,-2.2698,-2.2454,-2.2536,-2.0529,-1.9298,-1.8907,-1.7203,-1.6204,-1.5832,-1.5832,-1.5832,-1.5832,-1.5832,-1.5832,-1.5845,-1.6046,-1.6126,-1.6152,-1.6446,-1.674,-1.7001,-1.7001,-1.7551,-1.8408,0.0,0.0,0.0,0.0,0.0,0.0,0.0,0.0,0.0,-2.9347,0.0,0.0,0.0,0.0,0.0,-2.8629,-2.8622,-2.8906,-2.9549,-3.0163,-3.0155,-2.9333,-2.9119,-2.8556,-2.767,-2.5844,-2.4858,0.0,0.0,0.0,0.0,0.0,-2.4707,-2.5778,-2.4606,-2.4104,-2.4242,0.0,-2.6411,-2.6303,0.0,-2.3358,-2.3989,0.0,0.0,0.0,-2.7697,-2.7722,0.0,-3.063,0.0,0.0,0.0,-2.9094,-2.6519,-2.6519,-2.6527,-2.6493,0.0,0.0,0.0,0.0,0.0,0.0,-2.9792,0.0,-2.9792,-2.9792,-2.9792,-2.9792,-2.9792,-2.9792,-2.9792,-2.9792,-2.9792,-2.9365,-2.8255,-2.8004,-2.7186,-2.5031,-2.4787,-2.4296,-2.3222,-2.3135,-2.3135,0.0,-2.3135,-2.3135,-2.3135,-2.3047,-2.3038,-2.3028,-2.1876,-2.1273,-2.1216,-2.007,-1.8875,-1.7684,-1.7688,-1.7037,-1.5832,-1.5832,-1.5832,-1.5832,-1.5832,-1.5832,-1.5832,-1.5832,-1.5832,-1.5858,-1.6146,-1.644,-1.6693,-1.6693,-1.7957,-1.9575,0.0,0.0,0.0,0.0,0.0,0.0,-2.8801,-2.9435,-3.0009,0.0,0.0,0.0,-2.9621,-2.9358,-2.9258,-2.9325,-2.931,-2.9385,-2.9564,-3.0163,-2.984,-2.8396,-2.8747,-2.8298,-2.685,-2.6287,-2.5799,0.0,0.0,0.0,0.0,0.0,0.0,0.0,-2.4746,-2.4494,-2.3414,-2.3862,0.0,-2.6306,-2.4032,-2.4477,0.0,0.0,0.0,0.0,0.0,-3.0393,-3.0514,0.0,-3.1495,-3.1066,0.0,-2.7242,-2.6534,-2.6534,-2.6527,-2.6511,-2.6535,0.0,0.0,0.0,0.0,0.0,0.0,0.0,0.0,-2.9792,-2.9792,-2.9792,-2.9792,-2.9792,-2.9792,-2.9792,-2.9106,-2.8438,-2.8176,-2.6685,-2.5535,-2.4872,-2.4039,-2.3474,-2.3135,-2.3135,-2.3135,0.0,-2.3135,-2.3135,-2.3135,-2.2233,-2.1425,-2.0535,-2.0202,-2.0009,-2.005,-1.8816,-1.8003,-1.7684,-1.6753,-1.6109,-1.5832,-1.5832,-1.5832,-1.5832,-1.5832,-1.5832,-1.5832,-1.5832,-1.5832,-1.5838,-1.5919,-1.6697,-1.7732,-1.7732,-1.8807,-2.0295,0.0,0.0,0.0,0.0,0.0,-2.9997,-2.978,-3.0304,-3.0826,0.0,0.0,0.0,-2.987,-2.99,-2.9968,-2.9968,-2.9968,-3.0088,-3.0372,-3.0462,-3.0029,-2.9017,-2.9069,-2.8425,-2.7027,-2.6973,-2.6557,0.0,0.0,0.0,0.0,0.0,0.0,0.0,0.0,0.0,0.0,0.0,0.0,0.0,-2.4681,0.0,0.0,-3.0915,-3.1494,0.0,0.0,0.0,-3.1477,-3.1486,-3.0543,0.0,0.0,0.0,0.0,0.0,0.0,-2.6469,-2.6519,-2.7276,-2.8185,0.0,0.0,0.0,-2.9792,-2.9792,-2.9792,0.0,-2.9792,-2.9792,-2.9792,-2.9792,-2.9792,-2.9792,-2.8858,-2.7924,-2.7522,-2.5953,-2.4787,-2.4787,-2.38,-2.3309,-2.38,-2.3387,-2.3135,-2.3135,-2.3135,-2.2862,-2.2403,-2.1175,-2.0269,-1.9477,-1.897,-1.8764,-1.8791,-1.7567,-1.6918,-1.6911,-1.6157,-1.5832,-1.5832,-1.5832,-1.5832,-1.5832,-1.5832,-1.6109,-1.6574,-1.6574,-1.6574,-1.6574,-1.6574,-1.756,-1.8851,-1.8768,-1.9814,-2.1318,0.0,0.0,-2.9616,-2.9038,-2.9779,-3.0566,-3.0759,-3.1176,-3.1711,0.0,-3.1943,-3.1243,-3.0687,-3.0612,-3.0612,-3.0612,-3.0612,-3.0881,-3.1437,-3.0956,-3.0524,-3.03,-2.9736,-2.8881,-2.7723,-2.767,-2.7024,0.0,0.0,0.0,0.0,0.0,0.0,0.0,0.0,0.0,0.0,0.0,0.0,-2.3692,-2.6107,-2.885,0.0,0.0,-3.1507,-3.1501,-3.1498,-3.1514,-3.1501,-3.1308,-2.9124,0.0,0.0,0.0,0.0,0.0,-2.6684,-2.6536,-2.6678,-2.7356,-2.8122,-2.8185,-2.9001,0.0,-2.9792,-2.9792,-2.9792,0.0,-2.9792,-2.9792,-2.9792,-2.9792,-2.9792,-2.9792,-2.8858,-2.7763,-2.6801,-2.5714,-2.4957,-2.4957,-2.3963,-2.3724,-2.4702,-2.38,-2.3135,-2.3135,-2.296,-2.2306,-2.1016,-1.9844,-1.9279,-1.9047,-1.8089,-1.7465,-1.7465,-1.6374,-1.5832,-1.5832,-1.5832,-1.5906,-1.5981,-1.6001,-1.6096,-1.6197,-1.6197,-1.685,-1.787,-1.787,-1.787,-1.787,-1.7885,-1.8746,-2.0074,-1.9767,-2.0908,-2.2411,0.0,0.0,-2.9616,-2.9038,-3.025,-3.1226,-3.0827,-3.2104,-3.2913,-3.2527,-3.1943,-3.1422,-3.1287,-3.133,-3.133,-3.133,-3.133,-3.139,-3.1467,-3.1347,-3.1013,-3.0329,-3.0153,-2.9316,-2.7736,-2.767,-2.7232,0.0,0.0,0.0,0.0,0.0,0.0,0.0,0.0,0.0,0.0,0.0,0.0,-2.6085,-2.9245,-3.0939,-3.1511,-3.15,-3.1509,-3.1483,-3.1497,-3.1511,-3.1293,-2.9964,-2.8138,-2.6489,0.0,0.0,0.0,-2.8612,0.0,0.0,0.0,0.0,0.0,0.0,-2.9289,0.0,-2.9792,-2.9792,-2.9792,0.0,-2.9792,-2.9792,-2.9792,-2.9792,-2.9792,-2.9792,-2.8858,-2.8004,-2.7844,-2.6871,-2.6141,-2.6141,-2.5136,-2.4542,-2.4787,-2.38,-2.3135,-2.3135,-2.2217,-2.0729,-1.8509,-1.8149,-1.7539,-1.6501,-1.6333,-1.6157,-1.6157,-1.594,-1.5832,-1.5832,-1.5832,-1.6303,-1.7346,-1.7372,-1.7895,-1.8764,-1.8764,-1.8948,-1.9131,-1.9131,-1.9131,-1.9147,-1.9176,-1.9895,-2.1028,-2.0931,-2.1797,-2.2895,0.0,-2.9792,-2.9691,-2.9415,-3.0904,-3.1985,-3.1751,-3.2753,-3.3499,-3.3499,-3.2632,-3.1898,-3.1511,-3.1482,-3.1482,-3.1482,-3.1482,-3.1482,-3.1482,-3.121,-3.0994,-3.0881,-3.0573,-2.9983,-2.8989,-2.8842,-2.8213,-2.7095,0.0,0.0,0.0,0.0,0.0,0.0,0.0,0.0,0.0,0.0,-2.4419,-2.664,-2.8298,0.0,-3.1513,-3.1514,-3.1482,-3.1482,-3.1482,-3.1485,-3.1382,-3.052,-2.8597,0.0,-2.6519,-2.6509,-2.6494,0.0,-2.688,-2.7283,0.0,0.0,0.0,-2.8109,0.0,0.0,0.0,-2.9578,-2.9792,-2.9792,-2.9792,-2.9792,-2.9792,-2.9792,-2.9792,-2.9792,-2.9287,-2.8937,-2.8937,-2.7545,-2.6719,-2.7197,-2.5786,-2.5041,-2.5546,-2.4135,-2.2862,-2.2217,-2.0494,-1.894,-1.7725,-1.6985,-1.6267,-1.5611,-1.5483,-1.5402,-1.5398,-1.537,-1.5622,-1.6164,-1.6164,-1.685,-1.7927,-1.8143,-1.8624,-1.9142,-1.9414,-1.9852,-2.0395,-2.0395,-2.0755,-2.1239,-2.0624,-2.1167,-2.2185,-2.2185,-2.2627,-2.3135,-2.9792,-2.9792,-2.9792,-2.9792,-3.1114,-3.2157,-3.2157,-3.291,-3.3672,-3.4412,-3.3335,-3.2317,-3.1779,-3.1437,-3.1377,-3.1704,-3.1375,-3.1315,-3.1704,-3.0956,-3.0746,-3.1258,-3.0926,-3.0524,-3.0141,-3.0003,-2.9162,-2.767,0.0,0.0,0.0,0.0,0.0,0.0,0.0,0.0,0.0,0.0,0.0,-2.6578,0.0,-2.9073,-3.1528,-3.1511,-3.1482,-3.1467,-3.1248,-3.1338,-3.145,-3.0997,-2.8901,-2.6549,-2.6716,-2.6694,0.0,0.0,0.0,0.0,0.0,0.0,0.0,0.0,0.0,-2.9377,0.0,0.0,0.0,0.0,0.0,0.0,0.0,0.0,0.0,0.0,0.0,0.0,0.0,-2.8039,0.0,-2.8016,-2.6367,-2.5378,-2.6141,-2.4307,-2.2492,-2.1025,-1.9131,-1.7863,-1.7304,-1.6081,-1.5351,-1.5311,-1.5129,-1.5001,-1.4963,-1.5225,-1.573,-1.6585,-1.6836,-1.7458,-1.8541,-1.8849,-1.9117,-1.9381,-1.9881,-2.0648,-2.1551,-2.1882,-2.2558,-2.33,-2.2124,-2.2274,-2.3135,-2.3135,-2.3135,-2.3135,-2.9792,-2.9792,-2.9792,-2.9792,-3.0232,-3.0658,-3.0658,-3.2122,-3.3557,-3.4394,-3.3335,-3.2482,-3.2407,-3.1345,-3.1106,-3.2302,-3.0806,-3.0537,-3.2287,-3.121,-3.0537,-3.0612,-3.1135,-3.0748,-2.9448,-2.9992,-2.9387,-2.767,0.0,0.0,0.0,0.0,0.0,0.0,-2.4544,0.0,0.0,0.0,-2.4389,0.0,-2.9765,-3.1185,0.0,-3.1499,-3.1482,-3.1394,-3.035,-3.0655,-3.118,0.0,-2.7604,-2.664,0.0,-2.7283,-2.6481,-2.62,0.0,0.0,0.0,0.0,0.0,0.0,-2.816,0.0,0.0,0.0,-2.9164,-2.9691,0.0,0.0,0.0,0.0,0.0,0.0,0.0,0.0,-2.9792,-2.8688,-2.7924,-2.8096,-2.7035,-2.5975,-2.5041,-2.38,-2.2138,-1.9861,-1.9488,-1.8195,-1.5785,-1.5461,-1.5318,-1.503,-1.5053,-1.5033,-1.4963,-1.5964,-1.6483,-1.6571,-1.7556,-1.862,-1.9784,-1.985,-2.0456,-2.1577,-2.1979,-2.2202,-2.2503,-2.3809,-2.4486,-2.4466,-2.333,-2.296,-2.3135,-2.3135,-2.3135,-2.3135,-2.9792,-2.9792,-2.9792,-2.9792,-3.0364,-3.0731,-3.0487,-3.1999,-3.3369,-3.3886,-3.3754,-3.3499,-3.3125,-3.2587,-3.2317,-3.2497,-3.1764,-3.1465,0.0,-3.1779,-3.1674,-3.1674,-3.1943,-3.1782,-3.1191,-3.0568,-2.969,-2.8427,-2.7653,0.0,0.0,0.0,0.0,0.0,-2.3712,0.0,-2.3182,0.0,-2.6743,0.0,0.0,0.0,0.0,-3.1482,-3.1499,-3.1279,-2.9737,-2.9124,-2.9039,0.0,-2.7696,0.0,0.0,0.0,0.0,-2.688,0.0,0.0,0.0,0.0,0.0,0.0,0.0,0.0,-2.8473,0.0,-2.9503,0.0,0.0,0.0,0.0,0.0,0.0,0.0,-2.9792,0.0,0.0,0.0,-2.8096,0.0,0.0,0.0,-2.3877,0.0,0.0,-2.0666,-1.9943,-1.8972,-1.7845,-1.7398,-1.7054,-1.7026,-1.655,-1.6342,-1.6342,-1.6823,-1.7598,-1.8847,-1.9282,-2.0042,-2.1181,-2.1406,-2.158,-2.1559,-2.2527,-2.3156,-2.3612,-2.48,-2.5434,-2.5738,-2.5274,-2.5062,-2.5041,-2.5071,-2.5103,-2.5062,-2.9792,0.0,0.0,-2.9792,-3.0215,-3.059,-3.0762,-3.1845,-3.2934,-3.3928,-3.4292,-3.4292,-3.3814,-3.344,-3.3185,-3.3066,-3.2557,-3.2198,0.0,0.0,-3.2273,-3.1734,-3.2228,-3.2258,-3.1719,-3.1028,-3.0072,-2.9002,-2.8139,0.0,0.0,0.0,0.0,0.0,0.0,-2.3732,-2.4115,0.0,-2.8436,-3.1486,-3.1498,-3.1073,-3.0522,-3.1202,-3.1486,-3.1188,-2.8552,-2.7496,-2.7363,-2.7629,-2.6739,0.0,-2.4406,0.0,-2.7845,0.0,0.0,0.0,-2.7085,0.0,0.0,0.0,0.0,0.0,0.0,0.0,0.0,0.0,0.0,0.0,0.0,0.0,0.0,-2.9792,0.0,-2.9028,0.0,-2.7591,0.0,0.0,0.0,0.0,0.0,0.0,-2.1994,-2.1382,-2.0486,-1.9795,-1.9236,-1.8691,-1.8411,-1.8481,-1.8029,-1.7846,-1.8152,-1.8451,-1.9295,-2.0844,-2.1141,-2.1655,-2.2413,-2.2783,-2.2558,-2.1869,-2.32,-2.3987,-2.4541,-2.576,-2.654,-2.6933,-2.7307,-2.7383,-2.736,-2.6679,-2.6504,-2.6483,-2.9792,-2.9792,0.0,-2.9792,-2.9327,-2.9571,-3.1501,-3.1348,-3.2141,0.0,0.0,0.0,0.0,0.0,0.0,0.0,0.0,-3.2093,-3.335,0.0,-3.1674,-2.9759,-3.1495,-3.1629,-2.9714,-3.0839,-3.0644,-2.9002,-2.9491,0.0,0.0,0.0,0.0,0.0,-2.473,-2.534,-2.6383,-2.6453,-2.8422,-3.1478,-3.1531,-2.9972,-2.7968,0.0,-3.1515,-3.091,-2.6516,0.0,0.0,-2.5103,-2.3879,0.0,0.0,0.0,0.0,0.0,0.0,0.0,0.0,0.0,0.0,-2.7669,0.0,0.0,0.0,0.0,-2.895,0.0,0.0,0.0,0.0,0.0,-2.9792,-2.9792,-2.8858,0.0,0.0,0.0,0.0,0.0,0.0,0.0,0.0,-2.4702,-2.374,-2.1471,-2.1293,-2.0425,-1.8506,-1.8391,-1.8518,-1.8783,-1.8788,-1.9192,-2.0197,-2.1241,-2.1771,-2.1859,-2.2938,-2.3409,-2.3468,-2.3435,-2.3455,-2.3455,-2.4504,-2.4952,-2.5105,-2.7155,-2.8046,-2.8136,-2.9253,-2.9702,-2.9419,-2.7265,-2.6504,-2.6307,0.0,0.0,0.0,0.0,-2.9063,-2.9558,0.0,-3.2143,0.0,0.0,-3.5684,0.0,0.0,-3.5145,-3.4966,0.0,0.0,-3.3092,-3.2035,-3.3164,0.0,-3.0007,-3.2397,-3.2822,-3.0689,-3.1619,-3.1127,-2.9002,-2.9059,0.0,0.0,0.0,0.0,0.0,0.0,-2.6155,0.0,0.0,0.0,0.0,0.0,-3.0979,-2.9899,0.0,-2.6904,-2.7789,-2.4758,-2.4066,0.0,-2.4477,-2.4317,-2.4372,-2.5878,-2.6196,-2.6091,-2.627,-2.7996,0.0,0.0,0.0,-2.7852,-2.7541,0.0,0.0,0.0,0.0,0.0,0.0,0.0,0.0,0.0,0.0,-2.9534,-2.8767,-2.8347,-2.7844,0.0,0.0,0.0,0.0,0.0,0.0,0.0,0.0,0.0,-2.3634,-2.3361,-2.2853,-2.2167,-2.2536,-2.2683,-2.2413,-2.2083,-2.2078,-2.2402,-2.28,-2.2822,-2.259,-2.3863,-2.3824,-2.2582,-2.3908,-2.4126,-2.3572,-2.4908,-2.5961,-2.6743,-2.8078,-2.8858,-2.9258,-2.9617,-2.9792,-2.9702,-2.8942,-2.8706,-2.8383,-2.9792,-2.9792,0.0,0.0,0.0,0.0,0.0,0.0,0.0,0.0,-3.6222,0.0,-3.5893,0.0,-3.5642,0.0,-3.4322,-3.3448,-3.1446,-3.2897,0.0,-2.9702,-3.1876,-3.2373,0.0,-3.154,-3.113,-2.9267,0.0,-2.7779,0.0,0.0,0.0,0.0,0.0,-2.5279,-2.5367,-2.6159,-2.8457,0.0,0.0,-3.148,0.0,0.0,-2.6256,-2.6228,0.0,-2.3113,-2.3242,-2.4284,-2.4838,-2.528,-2.6036,-2.6525,-2.6858,-2.6856,-2.908,-3.1271,-3.0193,-2.8714,0.0,-2.7554,-2.7576,0.0,-2.777,0.0,-2.8875,0.0,0.0,0.0,0.0,0.0,0.0,-2.8846,-2.8347,-2.7763,0.0,-2.6801,0.0,0.0,-2.7533,-2.6966,0.0,-2.6069,-2.5464,-2.511,-2.5061,-2.4946,0.0,0.0,-2.5101,-2.478,-2.4449,-2.4393,-2.459,-2.4184,-2.3963,-2.3859,-2.4438,-2.4217,-2.3305,-2.4846,-2.5257,-2.4966,-2.6316,-2.7324,-2.8094,-2.8876,-2.9422,-2.9792,-2.9792,-2.9792,-2.9792,-2.9792,-2.93,-2.8431,-2.9792,-2.9792,0.0,0.0,-3.018,0.0,0.0,0.0,-3.4873,0.0,-3.6507,-3.6522,-3.6492,-3.5923,-3.5096,-3.4095,-3.4027,-3.3331,-3.1681,-3.2205,0.0,0.0,-3.0124,-3.0387,-2.9287,0.0,-3.0782,-2.9813,0.0,0.0,0.0,0.0,0.0,0.0,-2.4051,0.0,-2.3418,-2.5563,-2.8433,-3.1498,-3.1501,-3.153,-3.1498,-3.1483,-2.955,-2.6438,-2.416,-2.3311,-2.3466,-2.4366,-2.526,-2.6118,-2.6461,-2.6065,-2.6032,-2.8724,-3.0455,-3.1456,-3.132,-2.8912,-2.6722,-2.7748,0.0,0.0,0.0,0.0,-2.8699,0.0,0.0,0.0,0.0,0.0,0.0,-2.9714,-2.8767,-2.7763,-2.6719,-2.7533,-2.8176,-2.8176,-2.8128,-2.7913,-2.7472,-2.7727,-2.739,-2.5858,-2.6218,-2.6296,0.0,0.0,-2.5917,-2.58,-2.579,-2.5977,-2.6333,-2.5411,-2.5119,-2.5428,-2.4631,-2.473,-2.5518,-2.6227,-2.6801,-2.7423,-2.8462,-2.8889,-2.9003,-2.9537,-2.9792,-2.9792,-2.9792,-2.9792,-2.9792,-2.9792,-2.8383,-2.6617,-2.9792,-2.9792,-2.9998,0.0,-3.12,-3.1834,0.0,0.0,0.0,0.0,-3.6881,-3.7,-3.6537,-3.6342,-3.5652,-3.4138,-3.4027,0.0,0.0,0.0,0.0,-2.7859,-3.0772,-3.1452,-2.9122,-3.0919,-3.1162,-2.9776,0.0,0.0,-2.6524,0.0,0.0,0.0,0.0,0.0,-2.5651,-2.6271,-2.8437,-3.1486,-3.1498,-3.1483,-3.1528,0.0,-3.096,-2.9891,-2.7379,-2.6436,-2.6328,-2.5448,-2.5362,-2.5771,-2.696,-2.7166,-2.7181,-2.789,-2.9696,-3.0967,-2.8484,-2.7139,-2.6556,-2.6848,-2.6936,-2.6954,0.0,0.0,0.0,0.0,0.0,0.0,0.0,0.0,0.0,-2.8688,-2.8267,-2.8004,-2.7763,0.0,0.0,-2.9365,-2.8634,-2.8399,-2.9093,-2.7512,-2.67,-2.7402,-2.6519,-2.6245,-2.6914,0.0,0.0,-2.5878,-2.5778,-2.5294,-2.4276,-2.4381,-2.3943,-2.294,-2.4529,-2.482,-2.4104,-2.6136,-2.7397,-2.7938,-2.8617,-2.9142,-2.9549,-2.9767,-2.9792,-2.9792,-2.9792,-2.9792,-2.9792,-2.9792,-2.8383,-2.6561,-3.0983,-3.0983,0.0,-3.2249,0.0,0.0,-3.3941,-3.5406,0.0,-3.6851,-3.7195,0.0,-3.6552,-3.6492,-3.5695,-3.3575,-3.338,0.0,-3.0268,0.0,0.0,-2.8119,-2.9883,-3.0392,-2.9352,-3.0586,0.0,-3.0145,-3.0411,0.0,-2.6507,0.0,0.0,0.0,0.0,-2.4355,-2.6585,-2.8043,-2.9734,-3.1482,-3.1482,-3.1482,0.0,-3.1496,-3.0809,-2.9759,-2.941,-2.8557,-2.7447,-2.6649,-2.6387,-2.6535,-2.7333,-2.758,-2.7496,-2.6811,-2.723,-2.745,-2.554,-2.5358,-2.5884,-2.6357,-2.6302,-2.6302,-2.7105,-2.7281,-2.7281,0.0,-2.816,-2.8787,0.0,0.0,0.0,0.0,0.0,0.0,0.0,0.0,0.0,0.0,-2.9227,-2.9101,-2.9729,-2.757,-2.6749,-2.837,-2.7436,-2.7058,-2.7589,0.0,0.0,-2.5784,-2.5683,-2.5311,-2.4415,-2.4284,-2.3996,-2.3607,-2.5217,-2.5748,-2.5525,-2.7837,-2.8984,-2.9142,-2.9664,-2.9894,-2.9792,-2.9792,-2.9792,-2.9792,-2.9792,-2.9493,-2.9034,-2.9034,-2.8007,-2.6467,-3.2588,-3.266,0.0,0.0,0.0,0.0,0.0,-3.6075,0.0,-3.7479,0.0,-3.73,-3.6671,-3.6537,-3.5477,-3.3017,-3.2664,-3.1829,-3.0075,-2.9869,-2.9528,-2.895,-2.867,-2.893,-2.9783,-3.01,-3.0434,-3.0732,-3.1716,-3.0294,-2.6487,0.0,0.0,0.0,0.0,0.0,0.0,-3.0269,-3.1531,-3.148,-3.1524,-3.1482,-3.1495,-3.1505,-2.9858,-2.7915,-3.0182,-2.9507,-2.761,-2.7614,-2.7625,-2.7625,-2.7625,-2.7594,-2.7288,-2.5577,-2.4124,-2.3071,-2.3109,-2.3816,-2.4845,-2.5813,-2.5823,-2.5866,-2.6829,-2.7067,-2.708,-2.7155,-2.7996,-2.8423,0.0,0.0,0.0,0.0,0.0,0.0,0.0,0.0,0.0,0.0,0.0,0.0,-2.9767,-2.7908,-2.726,-2.8674,-2.8246,-2.7928,-2.7866,0.0,0.0,-2.5498,-2.5453,-2.5464,-2.534,0.0,-2.4897,-2.5845,-2.6545,-2.737,-2.8379,-3.0115,-3.0756,-3.0535,-3.0881,-3.0573,-2.9792,-2.9792,-2.9792,-2.9792,-2.9792,-2.9138,-2.8196,-2.8034,-2.7357,-2.6384,-3.2434,0.0,0.0,0.0,0.0,-3.4015,-3.4404,-3.7026,-3.8736,-3.8272,-3.8212,-3.7973,-3.7315,-3.6791,-3.5762,-3.3948,-3.3031,0.0,0.0,0.0,0.0,-2.895,-3.0217,-3.0624,-2.9797,-3.1053,-3.1604,-3.1323,-3.0665,-2.8973,-2.6473,0.0,0.0,0.0,0.0,0.0,-3.066,-3.1247,0.0,-3.1479,-3.1492,-3.1482,-3.148,-3.1475,-2.9869,-2.7674,-2.8114,-2.7976,-2.7584,-2.759,-2.7625,-2.7625,-2.7625,-2.7617,-2.705,-2.4313,-2.3324,-2.3111,-2.3084,-2.3231,-2.344,-2.364,-2.4549,-2.5494,-2.5841,-2.5887,-2.6025,-2.6502,-2.7118,-2.7507,-2.7318,0.0,0.0,0.0,0.0,0.0,0.0,0.0,0.0,0.0,0.0,-2.8273,0.0,-2.8599,-2.7928,-2.8198,-2.7324,-2.676,-2.6783,0.0,0.0,0.0,-2.4911,0.0,0.0,0.0,-2.6308,-2.6925,-2.8625,-2.9779,-3.0432,-3.0514,-3.069,-3.0983,-3.0367,-2.9932,-2.9792,-2.9792,-2.9792,-2.9792,-2.9792,-2.9322,-2.8527,-2.7603,-2.6832,-2.6087,-3.4311,0.0,0.0,0.0,0.0,0.0,0.0,-3.7789,-3.8752,-3.7666,-3.7783,-3.7644,-3.7,-3.6656,-3.5844,-3.4153,-3.3602,-3.2961,-3.196,-3.1476,-3.0942,-3.0349,-3.1221,-3.1332,-3.0509,-3.1225,-3.1573,-3.1495,-3.0977,-2.9241,-2.6539,0.0,0.0,0.0,0.0,-3.1511,0.0,0.0,0.0,-3.1516,-3.1477,-3.1482,-3.148,-3.1469,-2.9873,-2.7625,-2.7609,-2.7625,-2.7604,-2.7609,-2.7586,-2.7604,-2.7609,-2.7621,-2.6992,-2.3998,-2.3083,-2.3128,-2.3106,-2.3132,-2.3084,-2.3103,-2.3876,-2.476,-2.5096,-2.5197,-2.5347,-2.59,-2.6465,-2.703,-2.7607,-2.7921,0.0,0.0,0.0,0.0,0.0,0.0,-2.8398,0.0,0.0,0.0,0.0,0.0,0.0,0.0,0.0,-2.55,-2.5347,0.0,0.0,0.0,0.0,0.0,0.0,0.0,0.0,-2.9187,-3.089,-3.158,-3.1438,-3.1988,-3.1844,-3.1145,-3.0706,-3.0215,-2.9817,-3.0105,-3.0043,-2.9739,-2.9426,-2.8593,-2.7495,-2.6304,-2.5356,-2.4543,-3.6244,-3.5928,0.0,0.0,-3.569,-3.6242,-3.7286,-3.8093,-3.8236,-3.7302,-3.7408,-3.733,-3.6567,-3.6492,-3.5911,-3.4452,-3.4095,-3.3671,-3.2961,-3.2749,-3.2331,-3.1654,-3.1916,-3.1748,-3.1094,-3.1185,-3.1366,-3.1531,-3.1806,-3.0444,0.0,-3.0273,0.0,0.0,0.0,0.0,0.0,0.0,-2.9093,-3.1516,-3.1477,-3.1495,-3.1504,-3.1509,-2.9877,-2.7594,-2.7601,-2.7625,-2.7584,-2.7623,-2.7189,-2.679,-2.7417,-2.7623,-2.7011,-2.397,-2.309,-2.3097,-2.3113,-2.3078,-2.308,-2.3096,-2.3492,-2.3941,-2.4329,-2.4441,-2.4641,-2.546,-2.605,-2.6766,-2.7745,-2.7833,0.0,0.0,0.0,0.0,0.0,0.0,-2.7896,0.0,0.0,0.0,-2.7925,0.0,0.0,0.0,0.0,-2.431,-2.3891,-2.4303,-2.4534,0.0,0.0,-2.7434,-2.8847,0.0,-3.1083,-3.1667,-3.2804,-3.297,-3.2284,-3.3035,-3.2621,-3.1203,-3.0999,-3.0467,-2.9829,-3.0269,-3.0181,-2.9752,-2.8976,-2.7929,-2.6596,-2.5402,-2.4313,-2.3574,0.0,0.0,0.0,0.0,0.0,-3.7363,-3.6632,-3.7323,-3.797,-3.8255,-3.8262,-3.7838,-3.6611,-3.6492,-3.6222,-3.5419,-3.4543,-3.3959,-3.3876,-3.3101,-3.2331,-3.1654,-3.2489,-3.2385,-3.1108,-3.1352,-3.1495,-3.1498,-3.2728,-3.2521,0.0,0.0,0.0,0.0,0.0,0.0,0.0,-2.7705,-2.9093,-3.1516,-3.1477,-3.1489,-3.15,-3.1488,-2.9863,-2.7594,-2.7578,-2.7625,-2.7584,-2.7623,-2.5796,-2.4019,-2.676,-2.7595,-2.7006,-2.3999,-2.3093,-2.3076,-2.311,-2.3078,-2.309,-2.3115,-2.314,-2.3192,-2.3232,-2.3243,-2.3714,-2.5269,-2.605,-2.671,-2.7256,-2.6954,-2.6942,0.0,0.0,0.0,0.0,0.0,-2.7896,-2.7344,0.0,0.0,-2.7433,-2.7711,0.0,0.0,-2.4548,-2.3381,-2.2695,-2.3286,-2.3853,-2.4223,0.0,-2.8736,-2.9385,-3.1762,-3.318,-3.3703,-3.3841,-3.3856,-3.3711,-3.2209,-3.1382,-3.1139,-3.033,-2.9844,-2.9792,-2.9842,-2.9842,-2.9714,-2.8566,-2.7951,-2.738,-2.5923,-2.5178,-2.4785,0.0,0.0,0.0,0.0,0.0,0.0,0.0,-3.7753,-3.7767,-3.7789,-3.7808,-3.7614,-3.7105,-3.6357,-3.5789,-3.5534,-3.5133,-3.4905,-3.4905,-3.4558,-3.3877,-3.2767,-3.3519,-3.3136,-3.1382,-3.1485,-3.114,0.0,0.0,0.0,0.0,0.0,0.0,0.0,0.0,-2.8601,-2.769,-2.9287,-3.0518,-3.1479,-3.149,-3.1475,-3.1341,-2.975,-2.8479,-2.7617,-2.7578,-2.7625,-2.759,-2.7601,-2.6791,-2.5995,-2.7225,-2.7623,-2.7389,-2.6176,-2.45,-2.309,-2.3127,-2.3081,-2.3078,-2.3078,-2.3078,-2.3115,-2.3119,-2.3095,-2.3393,-2.4456,-2.5084,-2.5636,-2.6176,-2.6377,-2.6603,0.0,0.0,0.0,0.0,0.0,0.0,-2.6302,0.0,-2.6002,-2.6291,-2.6156,0.0,0.0,0.0,-2.5081,-2.4516,-2.4689,-2.557,-2.7332,0.0,-3.0383,-3.2164,-3.3758,-3.4361,-3.402,-3.3995,-3.3407,-3.2282,-3.1507,-3.0868,-3.0329,-2.9932,-2.9792,-2.9817,-3.0143,-2.9663,-2.8712,-2.7953,-2.6954,-2.5862,-2.4778,-2.4356,-2.4258,-3.9749,0.0,-3.9,0.0,-3.8274,-3.7939,-3.903,-3.8641,-3.8135,-3.7769,-3.7524,-3.727,-3.6881,-3.6043,-3.5504,-3.5504,-3.5504,-3.5504,-3.5504,-3.5504,-3.4996,-3.3829,-3.4038,0.0,-3.1511,-3.115,-3.0458,-2.9383,-2.9124,0.0,0.0,0.0,0.0,0.0,-2.8444,-2.8018,-2.8881,-3.0731,-3.1044,-3.0356,-3.0356,-3.0364,-3.0152,-2.8278,-2.7602,-2.7602,-2.7599,-2.7625,-2.7625,-2.7625,-2.7625,-2.7619,-2.7595,-2.7579,-2.7594,-2.7607,-2.609,-2.4235,-2.3315,-2.3098,-2.3078,-2.3078,-2.3078,-2.3078,-2.3078,-2.3078,-2.3301,-2.3879,-2.4443,-2.4933,-2.5297,-2.5699,-2.6088,-2.6483,0.0,0.0,0.0,-2.6214,0.0,-2.6072,-2.5577,-2.5303,-2.5561,-2.5858,0.0,0.0,0.0,-2.6719,-2.5597,-2.5819,-2.6757,0.0,0.0,0.0,-3.3128,-3.4148,-3.4288,-3.3607,-3.3309,-3.2475,-3.1151,-3.0881,-3.0444,-2.9792,-2.9792,-2.9792,-2.9817,-2.9866,-2.9199,-2.7983,-2.7094,-2.6055,-2.4867,-2.4098,-2.3789,-2.3769,-3.9915,-4.0606,-4.1369,-4.1384,-4.0831,-4.0397,-4.0397,-3.9843,-3.917,-3.8467,-3.7808,-3.6926,-3.5669,-3.5519,-3.5504,-3.5504,-3.5504,-3.5504,-3.5504,-3.5504,-3.519,0.0,0.0,-3.2886,-3.1497,-3.0268,-2.9394,-2.8907,0.0,0.0,-3.534,0.0,-2.7661,-2.7646,-2.7621,-2.9019,-3.1446,-3.1461,-3.0023,-2.7661,-2.7661,-2.7662,-2.7638,-2.7609,-2.7573,-2.7575,-2.7625,-2.7625,-2.7625,-2.7625,-2.7625,-2.7625,-2.7575,-2.7575,-2.7599,-2.7586,-2.7578,-2.6918,-2.39,-2.3098,-2.3078,-2.3078,-2.3078,-2.3078,-2.3078,-2.3078,-2.3301,-2.3879,-2.4443,-2.482,-2.4833,-2.4845,-2.5197,-2.6289,0.0,0.0,0.0,-2.6804,0.0,-2.7237,-2.7768,-2.7422,-2.579,-2.7558,0.0,0.0,0.0,0.0,0.0,0.0,0.0,-2.6614,-2.9576,0.0,-3.1254,-3.2176,-3.2652,-3.2597,-3.166,-3.1229,-3.1151,-3.0213,-2.9792,-2.9792,-2.9792,-2.9792,-2.9702,-2.8609,-2.8096,-2.7891,-2.6162,-2.5413,-2.5238,-2.4217,-2.3789,-2.373,-4.084,-4.0769,-4.0711,-4.0711,-4.0531,-4.0098,-3.917,-3.8856,-3.8317,-3.724,-3.6911,-3.6462,-3.5594,-3.5504,-3.5504,0.0,-3.5504,-3.5504,0.0,-3.5504,-3.519,-3.4502,-3.3844,-3.3095,-3.2213,-3.0477,-2.9346,-2.8881,0.0,0.0,0.0,-3.0202,-2.931,-2.7621,-2.7586,-2.807,-2.8847,-2.8847,-2.836,-2.7607,-2.761,-2.758,-2.7607,-2.7607,-2.7599,-2.7625,-2.7625,-2.7625,-2.7625,-2.7625,-2.7625,-2.7625,-2.7625,-2.7625,-2.759,-2.7622,-2.7588,-2.6931,-2.3936,-2.3083,-2.3078,-2.3078,-2.3078,-2.3078,-2.3078,-2.3078,-2.3128,-2.3376,-2.3866,-2.4255,-2.4255,-2.4858,-2.546,-2.5812,-2.605,0.0,-2.6666,0.0,-2.5988,-2.614,-2.5951,-2.5632,-2.5095,-2.6758,0.0,0.0,0.0,0.0,0.0,0.0,0.0,0.0,-3.0124,0.0,-3.2164,-3.2439,-3.2313,-3.1608,-3.1341,-3.0825,-3.0213,-2.9932,-2.9792,-2.9792,-2.9792,-2.9365,-2.8597,-2.8255,-2.7186,-2.5797,-2.5211,-2.4522,-2.3799,-2.385,-2.3789,-2.3769,-4.0935,-4.0681,-4.0322,-4.0068,-4.0023,-3.9664,-3.8556,-3.8392,-3.7928,-3.6656,-3.6492,-3.6237,-3.5579,-3.5504,0.0,-3.5504,-3.5504,-3.5504,-3.5504,-3.5504,-3.519,-3.4502,-3.3844,-3.2946,-3.1779,-3.0328,0.0,-2.8405,-2.7883,-2.7618,-2.7654,-3.0289,-3.0121,-2.7594,-2.7595,-2.7587,-2.7587,-2.7587,-2.7587,-2.7573,-2.7599,-2.7625,-2.7625,-2.7625,-2.7625,-2.7625,-2.7625,-2.7625,-2.7625,-2.7625,-2.7625,-2.7625,-2.7625,-2.7625,-2.7625,-2.7625,-2.7592,-2.6917,-2.3901,-2.311,-2.3078,-2.3078,-2.3078,-2.3078,-2.3078,-2.3424,-2.3687,-2.3477,-2.3916,-2.4305,-2.4305,-2.4858,-2.5372,-2.5561,-2.59,-2.6214,-2.6496,0.0,-2.5682,0.0,0.0,0.0,0.0,-2.6648,-2.7407,0.0,0.0,0.0,0.0,0.0,0.0,-2.9852,-3.0086,0.0,-3.1549,-3.1549,-3.1267,-3.0696,-3.068,-3.0342,-2.9792,-2.9792,-2.9792,-2.9792,-2.9365,-2.8767,-2.8004,-2.7174,-2.6025,-2.4808,-2.4481,-2.3864,-2.3193,-2.3633,-2.3682,-2.3545,-4.0337,-4.0337,-4.0127,0.0,-3.9349,0.0,-3.8377,-3.8257,-3.7823,-3.6582,-3.6417,-3.6178,-3.5564,-3.5504,-3.5504,-3.5504,0.0,0.0,0.0,-3.5429,-3.513,-3.4442,-3.3784,-3.2542,-3.0687,-2.9939,-2.8921,-2.7625,-2.7625,-2.7622,-2.7623,-3.0079,-2.995,-2.7594,-2.7607,-2.7625,-2.7625,-2.7625,-2.7625,-2.7625,-2.7625,-2.7625,-2.7625,-2.7625,-2.7625,-2.7625,-2.7625,-2.7625,-2.7625,-2.7625,-2.7625,-2.7625,-2.7625,-2.7625,-2.7625,-2.7625,-2.7592,-2.6917,-2.3901,-2.311,-2.3078,-2.3078,-2.3078,-2.3078,-2.3078,-2.39,-2.4568,-2.4129,-2.4418,-2.4808,-2.477,-2.4858,-2.5084,-2.5523,-2.5636,-2.5824,-2.6327,-2.5963,-2.5837,0.0,0.0,0.0,0.0,-2.7049,-2.7624,0.0,0.0,0.0,0.0,0.0,-2.9497,-2.8925,-2.949,-2.9792,-2.9792,-2.9792,-2.9792,-2.9792,-2.9792,-2.9792,-2.9702,-2.9702,-2.9624,-2.9534,-2.8438,-2.7924,-2.7671,-2.5619,-2.4787,-2.4584,-2.4008,-2.3496,-2.3184,-2.3594,-2.3486,-2.3135,0.0,0.0,-3.9439,-3.8751,-3.8631,-3.8257,-3.7105,-3.6941,-3.6656,-3.5848,-3.5744,-3.5684,-3.5519,-3.5504,-3.5504,-3.5504,-3.5504,-3.528,-3.4756,-3.4726,-3.4427,-3.3754,-3.3095,-3.2527,-3.2048,-3.0417,-2.8921,-2.7625,-2.7625,-2.7622,-2.7609,-2.8237,-2.8171,-2.7594,-2.7607,-2.7625,-2.7625,-2.7625,-2.7625,-2.7625,-2.7625,-2.7625,-2.7625,-2.7625,-2.7625,-2.7625,-2.7625,-2.7625,-2.7625,-2.7625,-2.7625,-2.7625,-2.7625,-2.7625,-2.7625,-2.7625,-2.7592,-2.6917,-2.3901,-2.311,-2.3078,-2.3078,-2.3078,-2.3078,-2.3078,-2.3276,-2.3659,-2.408,-2.4482,-2.4695,-2.4268,-2.5222,-2.5963,-2.5649,-2.5963,-2.6151,-2.585,-2.6063,-2.604,0.0,-2.5945,-2.6233,-2.5629,-2.6772,-2.7586,0.0,0.0,0.0,0.0,-2.9655,-2.9517,-2.8938,-2.949,-2.9792,-2.9792,-2.9792,-2.9792,-2.9792,-2.9792,-2.9353,-2.8518,-2.8518,-2.8028,-2.7302,-2.6964,-2.6378,-2.5525,-2.5041,-2.4296,-2.3474,-2.334,-2.3232,-2.3154,-2.3252,-2.3232,-2.3135,-3.9484,-3.917,-3.8841,-3.8452,-3.8138,-3.7614,-3.6641,-3.6492,-3.6252,-3.5594,-3.5504,-3.5504,-3.5504,-3.5504,-3.5385,-3.5055,-3.5325,-3.522,-3.4517,-3.4472,-3.4038,-3.3095,-3.2422,-3.1779,-3.1195,-2.9834,-2.8622,-2.7625,-2.7625,-2.7599,-2.7609,-2.7599,-2.7599,-2.7594,-2.7599,-2.7625,-2.7625,-2.7625,-2.7625,-2.7625,-2.7625,-2.7625,-2.7625,-2.7625,-2.7625,-2.7625,-2.7625,-2.7625,-2.7625,-2.7625,-2.7625,-2.7625,-2.7625,-2.7625,-2.7625,-2.7625,-2.7579,-2.6923,-2.3916,-2.3109,-2.3103,-2.31,-2.3078,-2.3078,-2.3078,-2.3069,-2.3218,-2.3638,-2.4507,-2.5084,-2.4782,-2.5674,-2.642,-2.6038,-2.6038,-2.605,-2.6,-2.5824,-2.556,-2.522,-2.5702,-2.5929,-2.5654,-2.6653,-2.7424,-2.7679,-2.8455,0.0,-2.8676,-2.9384,-2.9641,-2.934,-2.9628,-2.9792,-2.9792,-2.9792,-2.9534,-2.9028,-2.9028,-2.8438,-2.7371,-2.7371,-2.7046,-2.6483,-2.5975,-2.5378,-2.4787,-2.4211,-2.3637,-2.3135,-2.3135,-2.3135,-2.3135,-2.3135,-2.3135,-2.3135,-3.914,-3.8646,-3.8212,-3.8123,-3.7644,-3.706,-3.6432,-3.6342,-3.6133,-3.5579,-3.5504,-3.5504,-3.5504,-3.5504,-3.5235,-3.4532,-3.5011,-3.5011,-3.4233,-3.4188,-3.3634,-3.2422,-3.1734,-3.0851,-2.9744,-2.8981,-2.8263,-2.7625,-2.758,-2.758,-2.7625,-2.758,-2.758,-2.7625,-2.7625,-2.7625,-2.7625,-2.7625,-2.7625,-2.7625,-2.7625,-2.7625,-2.7625,-2.7625,-2.7625,-2.7625,-2.7625,-2.7625,-2.7625,-2.7625,-2.7625,-2.7625,-2.7625,-2.7625,-2.7625,-2.7625,-2.7602,-2.6949,-2.4108,-2.3228,-2.3102,-2.311,-2.3078,-2.309,-2.308,-2.3083,-2.317,-2.3343,-2.4424,-2.5407,-2.5573,-2.6063,-2.6559,-2.6634,-2.6101,-2.5862,-2.6264,0.0,-2.514,-2.5432,-2.5629,-2.5741,-2.5741,-2.664,-2.7156,-2.7156,-2.8015,-2.8118,-2.724,-2.8699,-2.9539,-2.9537,-2.9677,-2.9792,-2.9792,-2.9624,-2.9028,-2.8096,-2.7924,-2.7279,-2.6224,-2.6224,-2.6141,-2.5891,-2.4967,-2.4542,-2.4457,-2.3464,-2.3135,-2.3135,-2.3135,-2.3135,-2.3135,-2.3135,-2.3135,-2.3135,-3.7823,-3.7644,-3.7389,-3.6866,-3.6701,-3.6417,-3.5759,-3.5654,-3.5624,-3.5519,-3.5504,-3.5504,-3.5504,-3.5504,-3.5235,-3.4532,-3.4577,-3.4128,-3.2901,-3.2826,-3.2482,-3.1719,-3.1031,-3.0567,-3.0357,-2.9205,-2.8263,-2.7625,-2.7599,-2.7599,-2.761,-2.7599,-2.7614,-2.7625,-2.7625,-2.7625,-2.7625,-2.7625,-2.7625,-2.7625,-2.7625,-2.7625,-2.7625,-2.7625,-2.7625,-2.7625,-2.7625,-2.7625,-2.7625,-2.7625,-2.7625,-2.7625,-2.7625,-2.7625,-2.7625,-2.7625,-2.7602,-2.7142,-2.497,-2.3759,-2.3122,-2.3125,-2.3078,-2.3092,-2.3121,-2.3071,-2.3354,-2.4316,-2.4489,-2.4648,-2.5419,-2.6063,-2.6615,-2.708,-2.6691,-2.6189,-2.5787,0.0,-2.5912,-2.5043,-2.577,-2.6333,-2.6333,-2.6533,-2.6653,-2.6653,-2.6783,-2.6764,-2.6628,-2.7716,-2.8384,-2.8329,-2.9282,-2.9792,-2.9792,-2.8858,-2.8267,-2.8096,-2.7209,-2.613,-2.5041,-2.5041,-2.4553,-2.3637,-2.3474,-2.3387,-2.3387,-2.3135,-2.3135,-2.3135,-2.3135,-2.3135,-2.3135,-2.3135,-2.3135,-2.3135,-3.7464,-3.715,-3.6821,-3.6537,-3.6193,-3.5863,-3.5549,-3.5504,-3.5504,-3.5504,-3.5504,-3.5504,-3.5504,-3.5504,-3.5085,-3.4038,-3.3948,-3.338,-3.2078,-3.2317,-3.2063,-3.1031,-3.0357,-2.9669,-2.8936,-2.8353,-2.7889,-2.7625,-2.7605,-2.723,-2.6547,-2.7245,-2.7605,-2.7625,-2.7625,-2.7625,-2.7625,-2.7625,-2.7625,-2.7625,-2.7625,-2.7625,-2.7625,-2.7625,-2.7585,-2.7579,-2.7615,-2.7585,-2.7579,-2.7615,-2.7625,-2.7625,-2.7625,-2.7625,-2.7625,-2.7625,-2.6826,-2.5686,-2.4166,-2.3793,-2.3638,-2.3226,-2.3081,-2.3096,-2.312,-2.3071,-2.343,-2.4583,-2.4833,-2.4987,-2.5536,-2.6063,-2.671,-2.7193,-2.6553,0.0,0.0,-2.5975,-2.5611,-2.5699,-2.587,-2.6139,-2.6483,-2.599,-2.5952,-2.644,-2.6031,-2.597,-2.6467,-2.7536,-2.8103,-2.8077,-2.9245,-2.9534,-2.8858,-2.8347,-2.751,-2.6356,-2.5797,-2.4967,-2.3877,-2.3877,-2.3637,-2.3135,-2.3135,-2.3135,-2.3135,-2.3135,-2.3135,-2.3135,-2.3135,-2.3135,-2.3135,-2.3135,-2.3135,-2.3135,-3.7,-3.6582,-3.6252,-3.6252,-3.5833,-3.5504,-3.5504,-3.5504,-3.5504,-3.5504,-3.5504,-3.5504,-3.5504,-3.5668,-3.5238,-3.3819,-3.3879,-3.3421,-3.2083,-3.2186,-3.1757,-3.0552,-2.9759,-2.8786,-2.7655,-2.7625,-2.7625,-2.7625,-2.7615,-2.7051,-2.6096,-2.713,-2.7615,-2.7625,-2.7625,-2.7625,-2.7625,-2.7625,-2.7625,-2.7625,-2.7625,-2.7625,-2.7625,-2.7625,-2.759,-2.7493,-2.6881,-2.7076,-2.7603,-2.76,-2.7625,-2.7625,-2.7625,-2.7625,-2.7625,-2.7625,-2.6036,-2.4075,-2.3328,-2.353,-2.3927,-2.3427,-2.3182,-2.3071,-2.3109,-2.3319,-2.3804,-2.4938,-2.5443,-2.5661,-2.5774,-2.6163,-2.671,-2.7193,0.0,0.0,0.0,-2.6,-2.5473,-2.6176,-2.5832,-2.564,-2.6115,-2.5269,-2.4948,-2.5681,-2.5315,-2.5305,-2.6051,-2.7353,-2.8209,-2.8521,-2.9127,-2.8937,-2.8084,-2.7591,-2.6438,-2.4787,-2.4542,-2.3963,-2.3135,-2.3135,-2.3135,-2.3135,-2.3135,-2.3135,-2.3135,-2.3135,-2.3135,-2.3135,-2.3135,-2.3135,-2.3135,-2.3135,-2.3135,-2.3135,-3.5774,-3.5609,-3.5579,-3.5579,-3.5534,-3.5504,-3.5504,-3.5504,-3.5504,-3.5504,-3.5504,-3.5504,-3.5504,-3.6117,-3.5936,-3.4577,-3.514,-3.494,-3.3523,-3.2347,-3.1313,-3.0507,-2.9325,-2.8323,-2.764,-2.7625,-2.7625,-2.7625,-2.7618,-2.7554,-2.7434,-2.7538,-2.7584,-2.7625,-2.7625,-2.7625,-2.7625,-2.7625,-2.7625,-2.7625,-2.7625,-2.7625,-2.7625,-2.7625,-2.761,-2.725,-2.4783,-2.5495,-2.7595,-2.761,-2.7625,-2.7625,-2.7625,-2.7625,-2.7625,-2.7625,-2.5501,-2.3171,-2.309,-2.315,-2.3326,-2.3816,-2.3491,-2.3096,-2.3125,-2.3922,-2.4989,-2.616,-2.6384,-2.6429,-2.6408,-2.6496,-2.671,-2.7193,0.0,0.0,-2.6584,-2.6483,-2.6163,-2.5711,-2.5265,-2.5078,-2.5139,-2.4184,-2.3567,-2.3558,-2.4493,-2.4949,-2.4939,-2.693,-2.8565,-2.9651,-2.8755,-2.8176,-2.8096,-2.6108,-2.4957,-2.4787,-2.3714,-2.3222,-2.3135,-2.3135,-2.3135,-2.3135,-2.3135,-2.3135,-2.3135,-2.3135,-2.3135,-2.3135,-2.3135,-2.3135,-2.3135,-2.3135,-2.3135,-2.3135,-3.5549,-3.5504,-3.5504,-3.5504,-3.5504,-3.5504,-3.5504,-3.5504,-3.5504,-3.5504,-3.5894,-3.6165,-3.6165,-3.6484,-3.6295,-3.5331,-3.5131,-3.4622,-3.3646,-3.2326,-3.1068,-2.9913,-2.9027,-2.8596,-2.8732,-2.8367,-2.8367,-2.8717,-2.789,-2.7766,-2.8326,-2.7812,-2.7607,-2.761,-2.762,-2.7625,-2.7625,-2.7625,-2.7625,-2.7625,-2.7625,-2.7625,-2.7625,-2.7625,-2.762,-2.7474,-2.6444,-2.6713,-2.7599,-2.7615,-2.7625,-2.7625,-2.7625,-2.7625,-2.7619,-2.7617,-2.5463,-2.3338,-2.43,-2.385,-2.3145,-2.3391,-2.3828,-2.3953,-2.3259,-2.3956,-2.5146,-2.6257,-2.6485,-2.662,-2.6949,-2.6691,-2.6753,-2.7645,0.0,-2.6647,-2.6917,-2.6967,-2.6656,-2.5705,-2.6074,-2.6144,-2.5445,-2.4815,-2.4698,-2.5226,-2.5145,-2.5495,-2.6805,-2.8337,-2.8995,-2.8718,-2.7661,-2.7128,-2.7128,-2.5535,-2.4457,-2.3714,-2.3299,-2.3135,-2.3135,-2.3135,-2.3135,-2.3135,-2.3135,-2.3135,-2.3135,-2.3135,-2.3135,-2.3135,-2.3135,-2.3135,-2.3135,-2.3135,-2.3135,-2.3135,-3.5504,-3.5504,-3.5504,-3.5504,-3.5504,-3.5554,-3.5846,-3.5846,-3.5958,-3.6196,-3.6631,-3.6886,-3.6667,-3.6851,-3.6641,-3.5723,-3.5451,-3.4968,-3.4284,-3.2902,-3.1438,-2.9876,-2.9139,-2.9107,-2.9726,-2.9107,-2.9012,-2.9406,-2.8478,-2.8353,-2.9,-2.8446,-2.7953,-2.759,-2.7622,-2.7605,-2.7625,-2.7625,-2.7625,-2.7625,-2.7625,-2.7625,-2.7625,-2.7625,-2.7605,-2.7618,-2.76,-2.7605,-2.7584,-2.7615,-2.7625,-2.7625,-2.7625,-2.7625,-2.7599,-2.7586,-2.615,-2.4757,-2.5785,-2.5598,-2.4953,-2.4192,-2.4279,-2.4493,-2.4211,-2.462,-2.5361,-2.6735,-2.6752,-2.6697,-2.718,-2.6829,-2.6766,-2.7695,-2.7205,-2.6917,-2.7469,-2.7394,-2.6996,-2.6263,-2.642,-2.6261,-2.5493,-2.4997,-2.5137,-2.5965,-2.5666,-2.6329,-2.8268,-2.8897,-2.8943,-2.8146,-2.6753,-2.5975,-2.5975,-2.4798,-2.3877,-2.3135,-2.3135,-2.3135,-2.3135,-2.3135,-2.3135,-2.3135,-2.3135,-2.3135,-2.3135,-2.3135,-2.3135,-2.3135,-2.3135,-2.3135,-2.3135,-2.3135,-2.3135,-2.3135,-3.5504,-3.5504,-3.5504,-3.5504,-3.5504,-3.5733,-3.6492,-3.6615,-3.6904,-3.769,-3.7806,-3.7534,-3.6757,-3.734,-3.7209,-3.5728,-3.6346,-3.6434,-3.5656,-3.4368,-3.2679,-3.0649,-2.982,-2.9772,-3.0507,-2.9804,-2.9406,-2.9406,-2.939,-2.939,-2.9406,-2.9406,-2.8745,-2.7622,-2.7622,-2.761,-2.7625,-2.7625,-2.7625,-2.7625,-2.7625,-2.7625,-2.7625,-2.7625,-2.7625,-2.7625,-2.7625,-2.7625,-2.7625,-2.7625,-2.7625,-2.7625,-2.7575,-2.7625,-2.7599,-2.7586,-2.7583,-2.7618,-2.7616,-2.8608,-2.8987,-2.6492,-2.497,-2.4443,-2.6076,-2.5895,-2.5925,-2.7742,-2.7272,-2.6697,-2.718,-2.6841,-2.6653,-2.7205,-2.7293,-2.7482,-2.8021,-2.7632,-2.7331,-2.7288,-2.5937,-2.5055,-2.4985,-2.4562,-2.4515,-2.4981,-2.6044,-2.7299,-2.8824,-2.8379,-2.8066,-2.8096,-2.5942,-2.4787,-2.4787,-2.3637,-2.3135,-2.3135,-2.3135,-2.3135,-2.3135,-2.3135,-2.3135,-2.3135,-2.3135,-2.3135,-2.3135,-2.3135,-2.3135,-2.3135,-2.3135,-2.3135,-2.3135,-2.3135,-2.3135,-2.3135,-3.5504,-3.5504,-3.5504,-3.5504,-3.5504,-3.5733,-3.6492,-3.6615,-3.6672,-3.702,-3.7462,-3.7514,-3.678,-3.692,-3.6928,-3.6491,-3.6127,-3.5639,-3.4878,-3.4459,-3.3946,-3.3317,-3.1693,-3.109,-3.1766,-3.0613,-3.0251,-3.0658,-2.9741,-2.9741,-3.0642,-2.993,-2.9313,-2.8823,-2.8576,-2.8125,-2.7625,-2.7625,-2.7625,-2.7625,-2.7625,-2.7625,-2.7625,-2.7625,-2.7625,-2.7625,-2.7625,-2.7625,-2.7625,-2.7625,-2.7625,-2.7604,-2.7609,-2.7586,-2.7584,-2.7602,-2.761,-2.778,-2.8749,-2.84,-2.7381,-2.5768,-2.5703,-2.5987,-2.5753,-2.5933,-2.6302,-2.6854,-2.7283,-2.7582,-2.7548,-2.7272,-2.7218,-2.777,-2.7858,-2.7783,-2.7557,-2.8059,-2.8127,-2.7363,-2.7245,-2.7025,-2.6614,-2.647,-2.6764,-2.7639,-2.8442,-2.9062,-2.9478,-2.8615,-2.773,-2.6964,-2.5535,-2.4457,-2.3637,-2.3299,-2.3135,-2.3135,-2.3135,-2.3135,-2.3135,-2.3135,-2.3135,-2.3135,-2.3135,-2.3135,-2.3135,-2.3135,-2.3135,-2.3135,-2.3135,-2.3135,-2.3135,-2.3135,-2.3135,-2.3135,-3.5504,-3.5504,-3.5619,-3.5894,-3.5958,-3.629,-3.7365,-3.7245,-3.7198,-3.7584,-3.7727,-3.7552,-3.6804,-3.7043,-3.6975,-3.6366,-3.5893,-3.5419,-3.4962,-3.4945,-3.4945,-3.4945,-3.3443,-3.2646,-3.273,-3.1357,-3.0838,-3.119,-3.0386,-3.0403,-3.119,-3.056,-2.9955,-2.9361,-2.898,-2.8336,-2.7625,-2.7625,-2.7625,-2.7625,-2.7625,-2.7625,-2.7625,-2.7625,-2.7625,-2.7625,-2.7625,-2.7625,-2.7625,-2.7625,-2.7599,-2.7601,-2.7609,-2.8321,-2.8961,-2.7891,-2.7607,-2.776,-2.8574,-2.8301,-2.7497,-2.618,-2.6104,-2.6284,-2.5904,-2.6189,-2.6672,-2.7246,-2.7761,-2.8087,-2.8111,-2.7848,-2.7795,-2.8348,-2.8436,-2.831,-2.7984,-2.8511,-2.851,-2.7454,-2.7791,-2.7852,-2.7077,-2.7405,-2.7873,-2.8498,-2.8768,-2.8876,-2.8786,-2.739,-2.633,-2.588,-2.4713,-2.38,-2.3144,-2.3135,-2.3135,-2.3135,-2.3135,-2.3135,-2.3135,-2.3135,-2.3135,-2.3135,-2.3135,-2.3135,-2.3135,-2.3135,-2.3135,-2.3135,-2.3135,-2.3135,-2.3135,-2.3135,-2.3135,-2.3135,-3.5504,-3.5554,-3.5846,-3.6492,-3.6661,-3.7188,-3.8674,-3.8311,-3.8129,-3.8805,-3.8328,-3.7601,-3.6772,-3.7347,-3.7212,-3.574,-3.5622,-3.5622,-3.5622,-3.5622,-3.5622,-3.5622,-3.4895,-3.4184,-3.3508,-3.2121,-3.136,-3.1292,-3.1292,-3.1258,-3.119,-3.119,-3.0576,-2.939,-2.9016,-2.8404,-2.7625,-2.7634,-2.7619,-2.7625,-2.7685,-2.7619,-2.7625,-2.7625,-2.7625,-2.7625,-2.7625,-2.7625,-2.7575,-2.7604,-2.7594,-2.7632,-2.7889,-2.9413,-3.0695,-2.8282,-2.7584,-2.7584,-2.7542,-2.8184,-2.8541,-2.7359,-2.6396,-2.5812,-2.6339,-2.6533,-2.6861,-2.8236,-2.8193,-2.8155,-2.8812,-2.8436,-2.821,-2.8762,-2.89,-2.89,-2.88,-2.8913,-2.856,-2.7483,-2.7766,-2.7733,-2.6721,-2.757,-2.8122,-2.795,-2.7673,-2.74,-2.7155,-2.5319,-2.4409,-2.4777,-2.3714,-2.3135,-2.3135,-2.3135,-2.3135,-2.3135,-2.3135,-2.3135,-2.3135,-2.3135,-2.3135,-2.3135,-2.3135,-2.3135,-2.3135,-2.3135,-2.3135,-2.3135,-2.3135,-2.3135,-2.3135,-2.3135,-2.3135,-2.3135,-3.5619,-3.5943,-3.6384,-3.6554,-3.71,-3.7847,-3.8745,-3.8776,-3.851,-3.8181,-3.8007,-3.7381,-3.6028,-3.6569,-3.6654,-3.569,-3.5622,-3.5622,-3.5622,-3.5622,-3.5622,-3.5622,-3.4895,-3.4421,-3.4269,-3.3389,-3.2645,-3.2036,-3.2036,-3.1749,-3.119,-3.119,-3.0576,-2.9406,-2.9297,-2.867,-2.7655,-2.8143,-2.8068,-2.767,-2.8158,-2.8053,-2.7625,-2.7625,-2.7625,-2.7625,-2.7625,-2.7625,-2.7604,-2.7587,-2.7602,-2.7935,-3.0023,-2.9645,-2.8315,-2.7768,-2.7621,-2.7515,-2.7215,-2.7301,-2.7448,-2.7517,-2.6945,-2.637,-2.6496,-2.6533,-2.6609,-2.6886,-2.693,-2.7424,-2.9237,-2.8448,-2.7645,-2.8197,-2.8649,-2.8624,-2.7758,-2.8775,-2.9187,-2.8087,-2.8051,-2.8002,-2.7751,-2.8349,-2.8199,-2.7001,-2.7268,-2.7089,-2.6211,-2.4925,-2.4409,-2.4777,-2.3714,-2.3135,-2.3135,-2.3135,-2.3135,-2.3135,-2.3135,-2.3135,-2.3135,-2.3135,-2.3135,-2.3135,-2.3135,-2.3135,-2.3135,-2.3135,-2.3135,-2.3135,-2.3135,-2.3135,-2.3135,-2.3135,-2.3135,-2.3135,-3.6662,-3.6935,-3.7263,-3.7642,-3.806,-3.858,-3.9368,-3.9137,-3.8824,-3.8466,-3.8125,-3.7601,-3.6806,-3.7285,-3.7453,-3.6938,-3.6655,-3.6388,-3.6002,-3.5739,-3.5622,-3.5622,-3.5233,-3.503,-3.503,-3.4658,-3.3744,-3.2313,-3.2313,-3.1901,-3.119,-3.119,-3.0576,-2.9406,-2.9406,-2.8904,-2.8068,-2.8098,-2.8098,-2.8068,-2.8098,-2.7889,-2.7625,-2.7625,-2.7966,-2.8495,-2.8756,-2.8312,-2.759,-2.76,-2.8411,-2.9682,-3.1072,-2.9713,-2.7535,-2.7158,-2.8228,-2.9089,-2.7365,-2.6796,-2.6847,-2.7117,-2.6889,-2.6533,-2.6533,-2.6533,-2.6596,-2.6804,-2.7067,-2.7725,-2.9119,-2.8872,-2.8486,-2.8499,-2.8737,-2.8549,-2.7444,-2.826,-2.8587,-2.7471,-2.7754,-2.7999,-2.7704,-2.7717,-2.7403,-2.6649,-2.6161,-2.5742,-2.5322,-2.4075,-2.3591,-2.3953,-2.3387,-2.3135,-2.3135,-2.3637,-2.3877,-2.3877,-2.3387,-2.3135,-2.3135,-2.3135,-2.3135,-2.3135,-2.3135,-2.3135,-2.3135,-2.3135,-2.3135,-2.3135,-2.3135,-2.3135,-2.3135,-2.3135,-2.3135,-2.3135,-3.7662,-3.7841,-3.8189,-3.8799,-3.9016,-3.9315,-4.002,-3.9563,-3.914,-3.9005,-3.8543,-3.815,-3.8078,-3.836,-3.8552,-3.851,-3.7807,-3.7168,-3.6641,-3.5966,-3.5622,-3.5622,-3.5622,-3.5554,-3.5419,-3.5419,-3.4455,-3.2476,-3.2476,-3.2036,-3.119,-3.119,-3.0576,-2.9406,-2.9406,-2.9045,-2.8397,-2.7934,-2.8068,-2.8562,-2.8098,-2.7844,-2.779,-2.7891,-2.8495,-2.9358,-2.9925,-2.9195,-2.7887,-2.7695,-2.9017,-3.0922,-3.1337,-2.9681,-2.7476,-2.6704,-2.8458,-3.0018,-2.7322,-2.6538,-2.6518,-2.6518,-2.6537,-2.6533,-2.6533,-2.6533,-2.6659,-2.7042,-2.7557,-2.7986,-2.8574,-2.9227,-2.9428,-2.875,-2.8725,-2.8398,-2.7293,-2.7695,-2.7678,-2.6638,-2.7319,-2.762,-2.708,-2.6728,-2.6337,-2.5977,-2.4894,-2.4283,-2.4407,-2.3188,-2.2705,-2.3125,-2.3309,-2.3387,-2.3387,-2.4542,-2.5126,-2.5041,-2.4135,-2.3551,-2.3387,-2.3387,-2.3299,-2.3135,-2.3135,-2.3135,-2.3135,-2.3135,-2.3135,-2.3135,-2.3135,-2.3135,-2.3135,-2.3135,-2.3135,-2.3125,-3.7118,-3.788,-3.8799,-3.8854,-3.9489,-3.9952,-4.007,-4.0003,-3.9698,-3.9073,-3.9299,-3.9306,-3.8649,-3.8485,-3.8691,-3.9279,-3.765,-3.6797,-3.7394,-3.6283,-3.5622,-3.5622,-3.5622,-3.5318,-3.4658,-3.4641,-3.4184,-3.3254,-3.3254,-3.2544,-3.119,-3.119,-3.0576,-2.9406,-2.9406,-2.8779,-2.779,-2.8248,-2.8517,-2.8637,-2.9116,-2.8966,-2.8509,-2.9062,-2.9082,-2.8935,-2.9356,-2.936,-2.8996,-2.7944,-2.7846,-2.8518,-3.0797,-2.9727,-2.7433,-2.6736,-2.6805,-2.6909,-2.5897,-2.6039,-2.6383,-2.5902,-2.616,-2.6533,-2.6533,-2.6533,-2.6546,-2.6553,-2.6656,-2.6921,-2.7616,-2.8341,-2.8543,-2.7691,-2.7908,-2.7833,-2.6798,-2.7457,-2.7733,-2.6646,-2.664,-2.6476,-2.5896,-2.6267,-2.5745,-2.3902,-2.4006,-2.3826,-2.2834,-2.2624,-2.2705,-2.3125,-2.4049,-2.4542,-2.4542,-2.5714,-2.6307,-2.6307,-2.6141,-2.5557,-2.4542,-2.4542,-2.4049,-2.3135,-2.3135,-2.3135,-2.3135,-2.3135,-2.3135,-2.3135,-2.3135,-2.3135,-2.3135,-2.3135,-2.3135,-2.3086,-3.8676,-3.9099,-3.9558,-3.9558,-3.9833,-4.0204,-4.0497,-4.0528,-4.0552,-4.0579,-4.0368,-4.0139,-3.9806,-3.9558,-3.9188,-3.8652,-3.7931,-3.7376,-3.696,-3.6085,-3.5622,-3.5622,-3.5622,-3.5267,-3.4506,-3.4489,-3.3931,-3.278,-3.278,-3.2239,-3.119,-3.119,-3.0576,-2.9406,-2.9406,-2.8951,-2.8173,-2.8472,-2.8816,-2.9229,-2.9894,-2.9745,-2.9149,-2.9797,-2.9861,-2.971,-3.0225,-3.0952,-3.1438,-3.0054,-2.869,-2.7792,-2.8964,-2.8531,-2.7554,-2.7216,-2.5901,-2.472,-2.5242,-2.561,-2.5832,-2.5678,-2.6025,-2.6533,-2.6533,-2.6533,-2.6533,-2.6533,-2.6801,-2.7262,-2.7795,-2.8697,-2.9101,-2.831,-2.8147,-2.7663,-2.6272,-2.6249,-2.5958,-2.4933,-2.4849,-2.4826,-2.4848,-2.476,-2.4388,-2.375,-2.3594,-2.3348,-2.2861,-2.3433,-2.3846,-2.4039,-2.5136,-2.5724,-2.5724,-2.6871,-2.736,-2.736,-2.736,-2.6449,-2.4787,-2.4787,-2.4211,-2.3135,-2.3135,-2.3135,-2.3135,-2.3135,-2.3135,-2.3135,-2.3135,-2.3135,-2.3135,-2.3135,-2.3135,-2.3105]},{"header":{"parameterUnit":"m.s-1","parameterCategory":1,"la1":30.6,"la2":28.766,"lo1":-90.7593,"lo2":-88.6598,"dy":0.0162,"dx":0.0183,"nx":116,"ny":114,"refTime":"2023-06-11T06:00:00:Z","depth":0,"parameterNumber":3,"parameterNumberName":"V-component_of_WINDS"},"data":[0.0,0.0,0.0,0.0,0.0,0.0,0.0,0.0,0.0,0.0,0.0,0.0,0.0,0.0,0.0,0.0,0.0,0.0,0.0,0.0,0.0,0.0,0.0,0.0,0.0,0.0,0.0,0.0,0.0,0.0,0.0,0.0,0.0,0.0,0.0,0.0,0.0,0.0,0.0,0.0,0.0,0.0,0.0,0.0,0.0,0.0,0.0,0.0,0.0,0.0,0.0,0.0,0.0,0.0,0.0,0.0,0.0,0.0,0.0,0.0,0.0,0.0,0.0,0.0,0.0,0.0,0.0,0.0,0.0,0.0,0.0,0.0,0.0,0.0,0.0,0.0,0.0,0.0,0.0,0.0,0.0,0.0,0.0,0.0,0.0,0.0,0.0,0.0,0.0,0.0,0.0,0.0,0.0,0.0,0.0,0.0,0.0,0.0,0.0,0.0,0.0,0.0,0.0,0.0,0.0,0.0,0.0,0.0,0.0,0.0,0.0,0.0,0.0,0.0,0.0,0.0,0.0,0.0,0.0,0.0,0.0,0.0,0.0,0.0,0.0,0.0,0.0,0.0,0.0,0.0,0.0,0.0,0.0,0.0,0.0,0.0,0.0,0.0,0.0,0.0,0.0,0.0,0.0,0.0,0.0,0.0,0.0,0.0,0.0,0.0,0.0,0.0,0.0,0.0,0.0,0.0,0.0,0.0,0.0,0.0,0.0,0.0,0.0,0.0,0.0,0.0,0.0,0.0,0.0,0.0,0.0,0.0,0.0,0.0,0.0,0.0,0.0,0.0,0.0,0.0,0.0,0.0,0.0,0.0,0.0,0.0,0.0,0.0,0.0,0.0,0.0,0.0,0.0,0.0,0.0,0.0,0.0,0.0,0.0,0.0,0.0,0.0,0.0,0.0,0.0,0.0,0.0,0.0,0.0,0.0,0.0,0.0,0.0,0.0,0.0,0.0,0.0,0.0,0.0,0.0,0.0,0.0,0.0,0.0,0.0,0.0,0.0,0.0,0.0,0.0,0.0,0.0,0.0,0.0,0.0,0.0,0.0,0.0,0.0,0.0,0.0,0.0,0.0,0.0,0.0,0.0,0.0,0.0,0.0,0.0,0.0,0.0,0.0,0.0,0.0,0.0,0.0,0.0,0.0,0.0,0.0,0.0,0.0,0.0,0.0,0.0,0.0,0.0,0.0,0.0,0.0,0.0,0.0,0.0,0.0,0.0,0.0,0.0,0.0,0.0,0.0,0.0,0.0,0.0,0.0,0.0,0.0,0.0,0.0,0.0,0.0,0.0,0.0,0.0,0.0,0.0,0.0,0.0,0.0,0.0,0.0,0.0,0.0,0.0,0.0,0.0,0.0,0.0,0.0,0.0,0.0,0.0,0.0,0.0,0.0,0.0,0.0,0.0,0.0,0.0,0.0,0.0,0.0,0.0,0.0,0.0,0.0,0.0,0.0,0.0,0.0,0.0,0.0,0.0,0.0,0.0,0.0,0.0,0.0,0.0,0.0,0.0,0.0,0.0,0.0,0.0,0.0,0.0,0.0,0.0,0.0,0.0,0.0,0.0,0.0,0.0,0.0,0.0,0.0,0.0,0.0,0.0,0.0,0.0,0.0,0.0,0.0,0.0,0.0,0.0,0.0,0.0,0.0,0.0,0.0,0.0,0.0,0.0,0.0,0.0,0.0,0.0,0.0,0.0,0.0,0.0,0.0,0.0,0.0,0.0,0.0,0.0,0.0,0.0,0.0,0.0,0.0,0.0,0.0,0.0,0.0,0.0,0.0,0.0,0.0,0.0,0.0,0.0,0.0,0.0,0.0,0.0,0.0,0.0,0.0,0.0,0.0,0.0,0.0,0.0,0.0,0.0,0.0,0.0,0.0,0.0,0.0,0.0,0.0,0.0,0.0,0.0,0.0,0.0,0.0,0.0,0.0,0.0,0.0,0.0,0.0,0.0,0.0,0.0,0.0,0.0,0.0,0.0,0.0,0.0,0.0,0.0,0.0,0.0,0.0,0.0,0.0,0.0,0.0,0.0,0.0,0.0,0.0,0.0,0.0,0.0,0.0,0.0,0.0,0.0,0.0,0.0,0.0,0.0,0.0,0.0,0.0,0.0,0.0,0.0,0.0,0.0,0.0,0.0,0.0,0.0,0.0,0.0,0.0,0.0,0.0,0.0,0.0,0.0,0.0,0.0,0.0,0.0,0.0,0.0,0.0,0.0,0.0,0.0,0.0,0.0,0.0,0.0,0.0,0.0,0.0,0.0,0.0,0.0,0.0,0.0,0.0,0.0,0.0,0.0,0.0,0.0,0.0,0.0,0.0,0.0,0.0,0.0,0.0,0.0,0.0,0.0,0.0,0.0,0.0,0.0,0.0,0.0,0.0,0.0,0.0,0.0,0.0,0.0,0.0,0.0,0.0,0.0,0.0,0.0,0.0,0.0,0.0,0.0,0.0,0.0,0.0,0.0,0.0,0.0,0.0,0.0,0.0,0.0,0.0,0.0,0.0,0.0,0.0,0.0,0.0,0.0,0.0,0.0,0.0,0.0,0.0,0.0,0.0,0.0,0.0,0.0,0.0,0.0,0.0,0.0,0.0,0.0,0.0,0.0,0.0,0.0,0.0,0.0,0.0,0.0,0.0,0.0,0.0,0.0,0.0,0.0,0.0,0.0,0.0,0.0,0.0,0.0,0.0,0.0,0.0,0.0,0.0,0.0,0.0,0.0,0.0,0.0,0.0,0.0,0.0,0.0,0.0,0.0,0.0,0.0,0.0,0.0,0.0,0.0,0.0,0.0,0.0,0.0,0.0,0.0,0.0,0.0,0.0,0.0,0.0,0.0,0.0,0.0,0.0,0.0,0.0,0.0,0.0,0.0,0.0,0.0,0.0,0.0,0.0,0.0,0.0,0.0,0.0,0.0,0.0,0.0,0.0,0.0,0.0,0.0,0.0,0.0,0.0,0.0,0.0,0.0,0.0,0.0,0.0,0.0,0.0,0.0,0.0,0.0,0.0,0.0,0.0,0.0,0.0,0.0,0.0,0.0,0.0,0.0,0.0,0.0,0.0,0.0,0.0,0.0,0.0,0.0,0.0,0.0,0.0,0.0,0.0,0.0,0.0,0.0,0.0,0.0,0.0,0.0,0.0,0.0,0.0,0.0,0.0,0.0,0.0,0.0,0.0,0.0,0.0,0.0,0.0,0.0,0.0,0.0,0.0,0.0,0.0,0.0,0.0,0.0,0.0,0.0,0.0,0.0,0.0,0.0,0.0,0.0,0.0,0.0,0.0,0.0,0.0,0.0,0.0,0.0,0.0,0.0,0.0,0.0,0.0,0.0,0.0,0.0,0.0,0.0,0.0,0.0,0.0,0.0,0.0,0.0,0.0,0.0,0.0,0.0,0.0,0.0,0.0,0.0,0.0,0.0,0.0,0.0,0.0,0.0,0.0,0.0,0.0,0.0,0.0,0.0,0.0,0.0,0.0,0.0,0.0,0.0,0.0,0.0,0.0,0.0,0.0,0.0,0.0,0.0,0.0,0.0,0.0,0.0,0.0,0.0,0.0,0.0,0.0,0.0,0.0,0.0,0.0,0.0,0.0,0.0,0.0,0.0,0.0,0.0,0.0,0.0,0.0,0.0,0.0,0.0,0.0,0.0,0.0,0.0,0.0,0.0,0.0,0.0,0.0,0.0,0.0,0.0,0.0,0.0,0.0,0.0,0.0,0.0,0.0,0.0,0.0,0.0,0.0,0.0,0.0,0.0,0.0,0.0,0.0,0.0,0.0,0.0,0.0,0.0,0.0,0.0,0.0,0.0,0.0,0.0,0.0,0.0,0.0,0.0,0.0,0.0,0.0,0.0,0.0,0.0,0.0,0.0,0.0,0.0,0.0,0.0,0.0,0.0,0.0,0.0,0.0,0.0,0.0,0.0,0.0,0.0,0.0,0.0,0.0,0.0,0.0,0.0,0.0,0.0,0.0,0.0,0.0,0.0,0.0,0.0,0.0,0.0,0.0,0.0,0.0,0.0,0.0,0.0,0.0,0.0,0.0,0.0,0.0,0.0,0.0,0.0,0.0,0.0,0.0,0.0,0.0,0.0,0.0,0.0,0.0,0.0,0.0,0.0,0.0,0.0,0.0,0.0,0.0,0.0,0.0,0.0,0.0,0.0,0.0,0.0,0.0,0.0,0.0,0.0,0.0,0.0,0.0,0.0,0.0,0.0,0.0,0.0,0.0,0.0,0.0,0.0,0.0,0.0,0.0,0.0,0.0,0.0,0.0,0.0,0.0,0.0,0.0,0.0,0.0,0.0,0.0,0.0,0.0,0.0,0.0,0.0,0.0,0.0,0.0,0.0,0.0,0.0,0.0,0.0,0.0,0.0,0.0,0.0,0.0,0.0,0.0,0.0,0.0,0.0,0.0,0.0,0.0,0.0,0.0,0.0,0.0,0.0,0.0,0.0,0.0,0.0,0.0,0.0,0.0,0.0,0.0,0.0,0.0,0.0,0.0,0.0,0.0,0.0,0.0,0.0,0.0,0.0,0.0,0.0,0.0,0.0,0.0,0.0,0.0,0.0,0.0,0.0,0.0,0.0,0.0,0.0,0.0,0.0,0.0,0.0,0.0,0.0,0.0,0.0,0.0,0.0,0.0,0.0,0.0,0.0,0.0,0.0,0.0,0.0,0.0,0.0,0.0,0.0,0.0,0.0,0.0,0.0,0.0,0.0,0.0,0.0,0.0,0.0,0.0,0.0,0.0,0.0,0.0,0.0,0.0,0.0,0.0,0.0,0.0,0.0,0.0,0.0,0.0,0.0,0.0,0.0,0.0,0.0,0.0,0.0,0.0,0.0,0.0,0.0,0.0,0.0,0.0,0.0,0.0,0.0,0.0,0.0,0.0,0.0,0.0,0.0,0.0,0.0,0.0,0.0,0.0,0.0,0.0,0.0,0.0,0.0,0.0,0.0,0.0,0.0,0.0,0.0,0.0,0.0,0.0,0.0,0.0,0.0,0.0,0.0,0.0,0.0,0.0,0.0,0.0,0.0,0.0,0.0,0.0,0.0,0.0,0.0,0.0,0.0,0.0,0.0,0.0,0.0,0.0,0.0,0.0,0.0,0.0,0.0,0.0,0.0,0.0,0.0,0.0,0.0,0.0,0.0,0.0,0.0,0.0,0.0,0.0,0.0,0.0,0.0,0.0,0.0,0.0,0.0,0.0,0.0,0.0,0.0,0.0,0.0,0.0,0.0,0.0,0.0,0.0,0.0,0.0,0.0,0.0,0.0,0.0,0.0,0.0,0.0,0.0,0.0,0.0,0.0,0.0,0.0,0.0,0.0,0.0,0.0,0.0,0.0,0.0,0.0,0.0,0.0,0.0,0.0,0.0,0.0,0.0,0.0,0.0,0.0,0.0,0.0,0.0,0.0,0.0,0.0,0.0,0.0,0.0,0.0,0.0,0.0,0.0,0.0,0.0,0.0,0.0,0.0,0.0,0.0,0.0,0.0,0.0,0.0,0.0,0.0,0.0,0.0,0.0,0.0,0.0,0.0,0.0,0.0,0.0,0.0,0.0,0.0,0.0,0.0,0.0,0.0,0.0,0.0,0.0,0.0,0.0,0.0,0.0,0.0,0.0,0.0,0.0,0.0,0.0,0.0,0.0,0.0,0.0,0.0,0.0,0.0,0.0,0.0,0.0,0.0,0.0,0.0,0.0,0.0,0.0,0.0,0.0,0.0,0.0,0.0,0.0,0.0,0.0,0.0,0.0,0.0,0.0,0.0,0.0,0.0,0.0,0.0,0.0,0.0,0.0,0.0,0.0,0.0,0.0,0.0,0.0,0.0,0.0,0.0,0.0,0.0,0.0,0.0,0.0,0.0,0.0,0.0,0.0,0.0,0.0,0.0,0.0,0.0,0.0,0.0,0.0,0.0,0.0,0.0,0.0,0.0,0.0,0.0,0.0,0.0,0.0,0.0,0.0,0.0,0.0,0.0,0.0,0.0,0.0,0.0,0.0,0.0,0.0,0.0,0.0,0.0,0.0,0.0,0.0,0.0,0.0,0.0,0.0,0.0,0.0,0.0,0.0,0.0,0.0,0.0,0.0,0.0,-3.9755,0.0,0.0,0.0,0.0,0.0,0.0,0.0,0.0,0.0,0.0,0.0,0.0,0.0,0.0,0.0,0.0,0.0,0.0,0.0,0.0,0.0,0.0,0.0,0.0,0.0,0.0,0.0,0.0,0.0,0.0,0.0,0.0,0.0,0.0,0.0,0.0,0.0,0.0,0.0,0.0,0.0,0.0,0.0,0.0,0.0,0.0,0.0,0.0,0.0,0.0,0.0,0.0,0.0,0.0,0.0,0.0,0.0,0.0,0.0,0.0,0.0,0.0,0.0,0.0,0.0,0.0,0.0,0.0,0.0,0.0,0.0,0.0,0.0,0.0,0.0,0.0,0.0,0.0,0.0,0.0,0.0,0.0,0.0,0.0,0.0,0.0,0.0,0.0,0.0,0.0,0.0,0.0,0.0,0.0,0.0,0.0,0.0,0.0,0.0,0.0,0.0,0.0,0.0,0.0,0.0,0.0,0.0,0.0,0.0,0.0,0.0,0.0,0.0,0.0,0.0,0.0,-4.1078,0.0,0.0,0.0,0.0,0.0,0.0,0.0,0.0,0.0,0.0,0.0,0.0,0.0,0.0,0.0,0.0,0.0,0.0,0.0,0.0,0.0,0.0,0.0,0.0,0.0,0.0,0.0,0.0,0.0,0.0,0.0,0.0,0.0,0.0,0.0,0.0,0.0,0.0,0.0,0.0,0.0,0.0,0.0,0.0,0.0,0.0,0.0,0.0,0.0,0.0,0.0,0.0,0.0,0.0,0.0,0.0,0.0,0.0,0.0,0.0,0.0,0.0,0.0,0.0,0.0,0.0,0.0,0.0,0.0,0.0,0.0,0.0,0.0,0.0,0.0,0.0,0.0,0.0,0.0,0.0,0.0,0.0,0.0,0.0,0.0,0.0,0.0,0.0,0.0,0.0,0.0,0.0,0.0,0.0,0.0,0.0,0.0,0.0,0.0,0.0,0.0,0.0,0.0,0.0,0.0,0.0,0.0,0.0,-4.3673,-4.4372,-4.4402,-4.5751,-4.6447,-4.6532,-4.5597,-4.4257,-4.2962,-4.3943,0.0,0.0,0.0,0.0,0.0,0.0,0.0,0.0,0.0,0.0,0.0,0.0,0.0,0.0,0.0,0.0,0.0,0.0,0.0,0.0,0.0,0.0,0.0,0.0,0.0,0.0,0.0,0.0,0.0,0.0,0.0,0.0,0.0,0.0,0.0,0.0,0.0,0.0,-2.9371,-3.0651,-3.0861,-3.0204,0.0,0.0,0.0,0.0,0.0,0.0,0.0,0.0,0.0,0.0,0.0,0.0,0.0,0.0,0.0,0.0,0.0,0.0,0.0,0.0,0.0,0.0,0.0,0.0,0.0,0.0,0.0,0.0,0.0,0.0,0.0,0.0,0.0,0.0,0.0,0.0,0.0,0.0,0.0,0.0,0.0,0.0,0.0,0.0,-3.8941,-3.9242,0.0,0.0,0.0,0.0,0.0,0.0,0.0,0.0,0.0,0.0,0.0,0.0,0.0,-4.3348,-4.3919,-4.5411,-4.6099,-4.6075,-4.7564,-4.8285,-4.8318,-4.9136,-4.9905,-5.0622,-5.1633,0.0,-4.5928,-4.5275,0.0,0.0,0.0,0.0,0.0,0.0,0.0,0.0,0.0,0.0,0.0,0.0,0.0,0.0,0.0,0.0,0.0,0.0,0.0,0.0,0.0,0.0,0.0,0.0,0.0,0.0,0.0,0.0,0.0,0.0,0.0,0.0,0.0,0.0,0.0,0.0,0.0,0.0,-2.9876,-3.0232,-3.009,-2.9633,-3.0248,-3.0963,-3.1591,-3.1192,0.0,0.0,0.0,0.0,0.0,0.0,0.0,0.0,0.0,0.0,0.0,0.0,0.0,0.0,0.0,0.0,0.0,0.0,0.0,0.0,0.0,0.0,0.0,0.0,0.0,0.0,0.0,0.0,0.0,0.0,0.0,0.0,0.0,0.0,0.0,0.0,0.0,0.0,0.0,-3.8546,-3.9004,-3.845,-3.8336,-3.8283,0.0,0.0,0.0,0.0,0.0,0.0,0.0,0.0,0.0,-4.465,-4.5496,-4.6109,-4.6447,-4.7919,-4.8646,-4.8663,-4.9729,-5.0451,-5.0945,-5.1637,-5.2396,-5.3189,-5.4197,-5.3499,-5.152,-4.9737,-4.8452,-4.7539,0.0,0.0,0.0,0.0,-4.7131,-4.7645,0.0,0.0,0.0,0.0,0.0,0.0,0.0,0.0,0.0,0.0,0.0,0.0,0.0,0.0,0.0,-3.3878,0.0,0.0,0.0,0.0,0.0,0.0,0.0,0.0,0.0,0.0,0.0,0.0,0.0,0.0,0.0,-3.0165,-3.0093,-3.0144,-3.0834,-3.1585,-3.2315,-3.149,-3.165,0.0,0.0,0.0,0.0,0.0,0.0,0.0,0.0,0.0,0.0,0.0,0.0,0.0,0.0,0.0,0.0,0.0,0.0,0.0,0.0,0.0,0.0,0.0,0.0,0.0,0.0,0.0,0.0,0.0,0.0,0.0,0.0,0.0,0.0,0.0,0.0,0.0,0.0,-3.8963,-3.9575,-3.8504,-3.9426,-3.9963,0.0,0.0,0.0,0.0,0.0,0.0,-4.5303,-4.5917,-4.6686,-4.7597,-4.8545,-4.9052,-4.9052,-5.0321,-5.1074,-5.1293,-5.1792,-5.2578,-5.3594,-5.4061,-5.4735,-5.5474,-5.5999,-5.6198,-5.5996,-5.339,-5.1591,-5.0417,-4.9352,-4.8948,-4.8985,-4.9426,-4.9848,-5.0435,0.0,0.0,0.0,0.0,0.0,0.0,0.0,0.0,0.0,0.0,0.0,0.0,0.0,0.0,-3.4836,-3.4211,-3.4329,-3.3832,0.0,0.0,0.0,0.0,0.0,0.0,0.0,0.0,0.0,0.0,0.0,0.0,0.0,0.0,-3.147,-3.1511,-3.2199,-3.2189,-3.1581,-3.0884,-3.1277,-3.2355,0.0,0.0,0.0,0.0,0.0,0.0,0.0,0.0,0.0,0.0,0.0,0.0,0.0,0.0,0.0,0.0,0.0,0.0,0.0,0.0,0.0,0.0,0.0,0.0,0.0,0.0,0.0,0.0,0.0,0.0,0.0,0.0,0.0,0.0,0.0,0.0,0.0,0.0,0.0,-4.0776,-4.2211,0.0,0.0,0.0,0.0,-4.5813,-4.6202,-4.6999,-4.8411,-4.8669,-4.9198,-4.9898,-5.1336,-5.208,-5.208,-5.2909,-5.3662,-5.4354,-5.4406,-5.5232,-5.6665,-5.6735,-5.7107,-5.7822,-5.7868,-5.7868,-5.7629,-5.4454,-5.3096,-5.2876,-5.1298,-5.0674,-5.06,-4.9848,-5.0563,-5.1775,0.0,0.0,0.0,0.0,0.0,0.0,0.0,0.0,0.0,0.0,0.0,0.0,0.0,-3.5124,-3.5021,-3.3541,-3.3316,-3.29,-3.2126,0.0,0.0,0.0,0.0,0.0,0.0,0.0,0.0,0.0,0.0,0.0,0.0,0.0,0.0,-3.2938,-3.3572,-3.3743,-3.3453,-3.2713,-3.2708,-3.3089,-3.3165,-3.3458,0.0,0.0,0.0,0.0,0.0,0.0,0.0,0.0,0.0,0.0,0.0,0.0,0.0,0.0,0.0,0.0,0.0,0.0,0.0,0.0,0.0,0.0,0.0,0.0,0.0,0.0,0.0,0.0,0.0,0.0,0.0,0.0,0.0,0.0,0.0,0.0,0.0,-4.327,-4.5038,0.0,-4.5665,-4.6583,-4.74,-4.7767,-4.8855,-4.9911,-5.0952,-5.1583,-5.2232,-5.2959,-5.3946,-5.4269,-5.3771,-5.4512,-5.5059,-5.532,-5.532,-5.5854,-5.6912,-5.6912,-5.7284,-5.7997,-5.7997,-5.7997,-5.7905,-5.6767,-5.5978,-5.5409,-5.4308,-5.3885,-5.3849,-5.3555,-5.4142,-5.506,0.0,0.0,0.0,0.0,0.0,0.0,0.0,0.0,0.0,0.0,0.0,-3.5332,-3.4879,-3.539,-3.5183,-3.3782,-3.3185,-3.2669,-3.2156,0.0,0.0,0.0,0.0,0.0,0.0,0.0,0.0,0.0,0.0,0.0,0.0,0.0,0.0,-3.3987,-3.4382,-3.4736,-3.4941,-3.4891,-3.4761,-3.4532,-3.455,-3.5111,-3.5859,0.0,0.0,0.0,0.0,0.0,0.0,0.0,0.0,0.0,0.0,0.0,0.0,0.0,0.0,0.0,0.0,0.0,0.0,0.0,0.0,0.0,0.0,0.0,0.0,0.0,0.0,0.0,0.0,0.0,0.0,0.0,0.0,0.0,0.0,0.0,-4.5623,-4.5337,-4.7513,-4.888,-4.8477,-4.9416,-5.0206,-5.0678,-5.1942,-5.3063,-5.3827,-5.4651,-5.5159,-5.5382,-5.6119,-5.6047,-5.4999,-5.5742,-5.6085,-5.6132,-5.6132,-5.6527,-5.7284,-5.7284,-5.7565,-5.7997,-5.7997,-5.7997,-5.7997,-5.7997,-5.7685,-5.7152,-5.662,-5.64,-5.6363,-5.6088,-5.651,-5.7207,0.0,0.0,0.0,0.0,0.0,0.0,0.0,0.0,0.0,0.0,-3.5367,-3.5658,-3.5871,-3.5696,-3.5364,-3.4948,-3.4125,-3.3319,-3.2671,-3.3237,0.0,0.0,0.0,0.0,0.0,0.0,0.0,0.0,0.0,0.0,0.0,0.0,0.0,-3.4671,-3.4671,-3.5035,-3.5745,-3.7025,-3.7198,-3.6536,-3.5751,-3.6974,-3.9154,0.0,0.0,0.0,0.0,0.0,0.0,0.0,0.0,0.0,0.0,0.0,0.0,0.0,0.0,0.0,0.0,0.0,0.0,0.0,0.0,0.0,0.0,0.0,0.0,0.0,0.0,0.0,0.0,0.0,0.0,0.0,0.0,0.0,-4.4371,-4.6904,-4.8329,-4.7132,-4.9576,-5.1065,-5.0401,-5.162,-5.3077,-5.4567,-5.5434,-5.6223,-5.6906,-5.7771,-5.7836,-5.7003,-5.7841,-5.7504,-5.5794,-5.6635,-5.6989,-5.6948,-5.6948,-5.732,-5.7997,-5.7997,-5.7997,-5.7997,-5.7997,-5.7997,-5.7997,-5.7997,-5.7997,-5.7997,-5.7997,-5.7997,-5.7905,-5.7134,-5.7336,-5.7997,0.0,0.0,0.0,0.0,0.0,0.0,0.0,0.0,0.0,0.0,-3.6179,-3.6678,-3.5983,-3.6406,-3.6218,-3.4922,-3.4246,-3.3732,-3.3352,0.0,0.0,0.0,0.0,0.0,0.0,0.0,0.0,0.0,0.0,0.0,0.0,0.0,-3.6465,-3.6493,-3.6493,-3.6591,-3.6764,-3.7132,-3.7711,-3.8412,-3.8778,-3.9372,-4.0025,0.0,0.0,0.0,0.0,0.0,0.0,0.0,0.0,0.0,0.0,0.0,0.0,0.0,0.0,0.0,0.0,0.0,0.0,0.0,0.0,0.0,0.0,0.0,0.0,0.0,0.0,0.0,0.0,0.0,0.0,0.0,0.0,-4.823,-4.7724,-4.9331,-5.0815,-5.1555,-5.3331,-5.4618,-5.4952,-5.5378,-5.6033,-5.7158,-5.7437,-5.7875,-5.8571,-5.8867,-5.8881,-5.8651,-5.9406,-5.9328,-5.8304,-5.9069,-5.9138,-5.8555,-5.8555,-5.8359,-5.7997,-5.7997,-5.7997,-5.7997,-5.7997,-5.7997,-5.7997,-5.7997,-5.7997,-5.7997,-5.7997,-5.7997,-5.796,-5.7758,-5.7813,-5.7997,0.0,0.0,0.0,0.0,0.0,0.0,0.0,0.0,0.0,0.0,-3.6568,-3.7127,-3.6166,-3.6726,-3.6665,-3.536,-3.466,-3.4231,-3.4067,0.0,0.0,0.0,0.0,0.0,0.0,0.0,0.0,0.0,0.0,0.0,0.0,0.0,-3.7642,-3.719,-3.719,-3.719,-3.7228,-3.7772,-3.8492,-3.9422,-4.0793,-4.1272,-4.1144,-4.1095,-4.1507,-4.2087,-4.1873,-4.2315,-4.297,-4.2667,0.0,0.0,0.0,0.0,0.0,0.0,0.0,0.0,0.0,0.0,0.0,0.0,0.0,0.0,0.0,0.0,0.0,0.0,0.0,0.0,0.0,0.0,0.0,0.0,-5.0004,-5.1538,-5.1793,-5.226,-5.3173,-5.4753,-5.5681,-5.6656,-5.7786,-5.7884,-5.8273,-5.9051,-5.9425,-5.9795,-6.0242,-6.0565,-6.059,-6.0248,-6.0991,-6.0859,-5.9765,-6.017,-6.0015,-5.9208,-5.8877,-5.8455,-5.7997,-5.7997,-5.7997,-5.7997,-5.7997,-5.7997,-5.7997,-5.7997,-5.7997,0.0,0.0,0.0,0.0,0.0,-5.7997,-5.7997,0.0,0.0,0.0,0.0,0.0,0.0,0.0,0.0,0.0,0.0,0.0,-3.7144,-3.6366,-3.6727,-3.6696,-3.5838,-3.5145,-3.4829,0.0,0.0,0.0,0.0,0.0,0.0,0.0,0.0,0.0,0.0,0.0,0.0,0.0,-3.8549,-3.8087,-3.7377,-3.7379,-3.7397,-3.7487,-3.8775,-3.9414,-3.9773,-4.1876,-4.2605,-4.2333,-4.1734,-4.237,-4.3587,-4.3151,-4.3523,-4.4225,-4.4488,0.0,0.0,0.0,0.0,0.0,0.0,0.0,0.0,0.0,0.0,0.0,0.0,0.0,0.0,0.0,0.0,0.0,0.0,0.0,0.0,0.0,0.0,0.0,0.0,-5.2734,-5.4402,-5.5877,-5.5518,-5.5606,-5.6882,-5.7176,-5.7873,-5.9419,-5.955,-5.9834,-6.0605,-6.1361,-6.1715,-6.1715,0.0,0.0,0.0,0.0,-6.2071,-6.0548,-6.0548,-6.0107,-5.9208,-5.8492,-5.8088,-5.7997,-5.7997,-5.7997,-5.7997,-5.7997,-5.7997,-5.7997,-5.7997,-5.7997,-5.7997,-5.7997,-5.8024,-5.807,-5.807,-5.807,-5.807,0.0,0.0,0.0,0.0,0.0,0.0,0.0,0.0,0.0,-3.5493,-3.6291,-3.6699,-3.6326,-3.6483,-3.6154,-3.503,-3.5098,-3.5571,0.0,0.0,0.0,0.0,0.0,0.0,0.0,0.0,0.0,0.0,0.0,0.0,-4.0552,-3.9427,-3.8704,-3.8433,-3.8645,-3.8736,-3.882,-4.0026,-4.019,-3.9733,-4.1518,-4.2583,-4.3169,-4.3716,-4.4099,-4.4373,-4.4281,-4.4777,-4.5356,-4.4775,-4.4911,-4.5184,-4.4473,0.0,0.0,0.0,0.0,0.0,0.0,0.0,0.0,0.0,0.0,0.0,0.0,0.0,0.0,0.0,0.0,0.0,0.0,0.0,0.0,-5.3401,-5.5154,-5.6768,-5.8318,-5.842,-5.8255,-5.7936,-5.8984,-6.0129,-6.1052,-6.1127,-6.1497,-6.2271,-6.2464,-6.2567,-6.2567,-6.2705,-6.275,-6.2585,-6.2732,-6.2346,-6.1374,-6.1374,-6.0639,-5.9208,0.0,0.0,-5.7997,-5.7997,-5.7997,-5.7997,-5.7997,-5.7997,-5.7997,-5.7997,-5.7997,-5.7997,-5.7997,-5.8238,-5.8549,-5.8549,-5.8549,-5.8549,0.0,0.0,0.0,0.0,0.0,0.0,0.0,0.0,0.0,0.0,-3.6199,-3.6503,-3.5959,-3.6367,-3.6264,-3.5192,-3.5264,0.0,0.0,0.0,0.0,0.0,0.0,0.0,0.0,0.0,0.0,0.0,0.0,0.0,-4.1909,-4.0381,-3.9829,-4.0126,-3.9578,-3.9608,-4.0027,-4.0174,-4.0087,-3.9975,-4.1203,-4.2025,-4.263,-4.3592,-4.395,-4.4026,-4.4643,-4.5109,-4.5413,-4.5182,-4.5374,-4.5586,-4.503,-4.4546,-4.3894,0.0,0.0,0.0,0.0,0.0,0.0,0.0,0.0,0.0,0.0,0.0,0.0,0.0,0.0,-4.9797,0.0,0.0,-5.4326,-5.5941,-5.7569,-5.8896,-5.9693,-6.0201,-6.0323,-5.989,-6.0529,-6.1304,-6.2148,-6.22,-6.2394,-6.2755,-6.2805,-6.2805,-6.2805,-6.2805,-6.2805,-6.2805,-6.2805,-6.242,-6.1594,-6.119,-6.0401,-5.9208,-5.8804,-5.84,-5.7997,-5.7997,-5.7997,-5.7997,-5.7997,-5.7997,-5.7997,-5.7997,-5.7997,-5.7997,-5.7997,-5.8282,-5.8694,-5.8694,-5.8835,-5.9047,0.0,0.0,0.0,0.0,0.0,0.0,0.0,0.0,0.0,0.0,0.0,-3.6006,-3.5181,-3.5816,-3.5974,0.0,0.0,0.0,0.0,0.0,0.0,0.0,0.0,0.0,0.0,0.0,0.0,0.0,0.0,-4.295,-4.2857,-4.1353,-4.1016,-4.1651,-4.0651,-4.0602,-4.1245,-4.0764,-4.0629,-4.0807,-4.1609,-4.1987,-4.221,-4.3181,-4.3532,-4.363,-4.4645,-4.5124,-4.5278,-4.5547,-4.5643,-4.5605,-4.5336,-4.524,-4.4876,-4.2998,-4.2712,0.0,0.0,0.0,0.0,0.0,0.0,0.0,0.0,0.0,-4.821,-5.0526,-5.1527,-5.2362,-5.3665,-5.5097,-5.6528,-5.7997,-5.9575,-6.0639,-6.0639,-6.1337,-6.1832,-6.1832,-6.18,-6.2076,-6.2755,-6.2805,-6.2805,-6.2805,-6.2805,-6.2805,-6.2805,-6.2805,-6.2805,-6.2805,-6.2805,-6.2346,-6.1374,-6.0731,-5.9924,-5.8969,-5.8309,-5.7997,-5.7997,-5.7997,-5.7997,-5.7997,-5.7997,-5.7997,-5.7997,-5.7997,-5.7997,-5.7997,-5.7997,-5.8351,-5.8835,-5.8835,-5.9121,-5.9545,0.0,0.0,0.0,0.0,0.0,0.0,0.0,0.0,0.0,0.0,0.0,0.0,0.0,0.0,0.0,0.0,0.0,0.0,0.0,0.0,0.0,0.0,0.0,0.0,0.0,0.0,0.0,0.0,-4.4195,-4.3582,-4.3234,-4.231,-4.1933,-4.2052,-4.2183,-4.2385,-4.2648,-4.356,-4.3588,-4.3096,-4.3835,-4.3772,-4.33,-4.4068,-4.4289,-4.4243,-4.4607,-4.5182,-4.5738,-4.5834,-4.5873,-4.5853,-4.5757,-4.5719,-4.5451,-4.4109,0.0,-4.3694,-4.325,-4.4053,-4.5815,-4.9249,-4.9062,-4.9529,0.0,0.0,-5.3942,-5.5613,-5.6088,-5.618,-5.6363,-5.7134,-5.8015,-5.8933,-6.0419,-6.1465,-6.1465,-6.2163,-6.2677,-6.2677,-6.265,-6.2686,-6.2805,-6.2805,-6.2805,-6.2805,-6.2805,-6.2805,-6.2805,-6.2805,-6.2805,-6.2805,-6.2805,-6.2071,-6.0548,-6.0438,-5.9648,-5.8125,-5.8033,-5.7997,-5.7997,-5.7997,-5.7997,-5.7997,-5.7997,-5.7997,-5.7997,-5.7997,-5.7997,-5.7997,-5.7997,-5.8568,-5.9319,-5.9319,-5.9611,-6.0025,0.0,0.0,0.0,0.0,0.0,0.0,0.0,0.0,0.0,0.0,0.0,0.0,0.0,0.0,0.0,0.0,0.0,0.0,0.0,0.0,0.0,0.0,0.0,0.0,0.0,0.0,0.0,-4.54,-4.4401,-4.4045,-4.4307,-4.3,-4.2959,-4.3919,-4.3254,-4.331,-4.3886,-4.3871,-4.3679,-4.3438,-4.3746,-4.3672,-4.3442,-4.3836,-4.3898,-4.3849,-4.4489,-4.4892,0.0,0.0,-4.4448,-4.444,-4.4311,-4.4282,-4.4166,-4.3611,-4.3626,0.0,-4.5152,-4.6892,-4.8809,-5.0409,-5.1138,-5.221,-5.4975,-5.4964,-5.4875,-5.6492,-5.7152,-5.7648,-5.8125,-5.8474,-5.8969,0.0,-6.0456,-6.0896,-6.0896,-6.1594,-6.1924,-6.1465,-6.1814,-6.2291,-6.2768,-6.2805,-6.2805,-6.2805,-6.2805,-6.2805,-6.2805,-6.2805,-6.2603,-6.2126,-6.2108,-6.1337,-5.9722,-5.9722,-5.9134,-5.7997,-5.7997,-5.7997,-5.7997,-5.7997,-5.7997,-5.7997,-5.7997,-5.7997,-5.8042,-5.8264,-5.8418,-5.8418,-5.8694,-5.9212,-5.9773,-5.9492,-5.9885,-6.0508,0.0,0.0,0.0,0.0,0.0,0.0,0.0,0.0,0.0,0.0,0.0,0.0,0.0,0.0,0.0,0.0,0.0,0.0,0.0,0.0,0.0,0.0,0.0,0.0,0.0,0.0,0.0,-4.5586,-4.4767,-4.4689,-4.5281,-4.4058,-4.419,-4.5428,-4.4386,-4.4369,-4.5045,-4.4415,-4.4178,-4.42,-4.4161,-4.4171,-4.4177,-4.4001,-4.3898,-4.3886,-4.4285,-4.4409,0.0,0.0,-4.3476,-4.3427,-4.3305,-4.3242,-4.3242,-4.3395,-4.3838,-4.4722,-4.6641,-4.8634,-5.0441,-5.1536,-5.307,-5.4515,-5.5249,-5.5477,-5.5971,-5.726,-5.7869,-5.8423,-5.9128,-5.9467,-5.9756,-6.033,-6.0626,-6.0728,-6.0628,-6.1079,-6.1198,-6.0474,-6.0915,-6.1502,-6.2089,-6.2144,-6.2236,-6.2456,-6.2273,-6.2144,-6.2144,-6.2144,-6.1869,-6.1282,-6.1263,-6.0603,-5.9226,-5.9208,-5.8804,-5.7997,-5.7997,-5.7997,-5.7997,-5.7997,-5.7997,-5.7997,-5.7997,-5.7997,-5.8042,-5.8394,-5.8461,-5.8418,-5.899,-5.936,-5.9562,-5.9582,-6.0103,-6.08,0.0,0.0,0.0,0.0,0.0,0.0,0.0,0.0,0.0,0.0,0.0,0.0,0.0,0.0,0.0,0.0,0.0,0.0,0.0,0.0,0.0,0.0,0.0,0.0,0.0,0.0,-4.4739,-4.5586,-4.5566,-4.5624,-4.5778,-4.572,-4.5759,-4.5873,-4.5844,-4.5917,-4.6065,-4.6025,-4.6094,-4.6191,-4.6074,-4.6105,-4.6114,-4.5141,-4.4848,-4.4843,-4.402,0.0,0.0,0.0,-4.3652,-4.3566,-4.3446,-4.33,0.0,-4.4048,-4.4884,-4.5834,-4.7216,-4.8222,-4.9745,-5.3462,-5.501,-5.6292,-5.8702,-5.8879,-5.8692,-5.9227,-5.8982,-5.8814,-5.9286,-6.0016,-6.0582,-6.0601,-6.1242,-6.16,-6.1135,-6.1087,-6.0951,-6.0449,-6.0419,-6.0456,0.0,-6.0474,-6.0805,-6.1575,-6.0915,-6.0474,-6.0474,-6.0474,-6.0456,-6.0438,-6.0438,-6.0052,-5.9226,-5.9208,-5.8804,-5.7997,-5.7997,-5.7997,-5.7997,-5.7997,-5.7997,-5.7997,-5.7997,-5.7997,-5.7997,-5.8042,-5.7802,-5.7537,-5.8378,-5.8484,-5.831,-5.9612,-6.0365,-6.08,0.0,0.0,0.0,0.0,0.0,0.0,0.0,0.0,0.0,0.0,0.0,0.0,0.0,0.0,0.0,0.0,0.0,0.0,0.0,0.0,0.0,0.0,0.0,0.0,0.0,0.0,-4.5297,-4.5586,-4.5699,-4.5757,-4.5796,-4.586,-4.5881,-4.5903,-4.5906,-4.5929,-4.5976,-4.5976,-4.6035,-4.6152,-4.6113,-4.618,-4.6196,-4.5288,-4.4601,-4.4026,0.0,0.0,0.0,0.0,0.0,-4.1089,-4.1475,-4.1578,-4.179,-4.3124,-4.491,-4.6796,-4.8375,-4.9813,-5.1579,-5.4566,-5.6137,-5.732,-5.868,-5.9102,-5.9216,-5.9357,-5.8386,-5.7712,-5.8415,-5.7849,-5.7642,-5.8754,-5.8915,-5.9022,-5.944,-5.9696,-5.9587,-5.8906,-5.9281,0.0,0.0,0.0,0.0,-6.0786,-6.0548,-6.0639,-6.1172,-6.0694,-6.0401,-6.0401,-5.9887,-5.9226,-5.8419,-5.84,-5.8272,-5.7997,-5.7997,-5.7997,-5.7997,-5.7997,-5.7997,-5.7997,-5.7997,-5.7997,-5.8024,-5.8351,-5.8085,-5.7598,-5.8728,-5.8759,-5.8291,-5.9257,-5.9741,-5.9916,0.0,0.0,0.0,0.0,0.0,0.0,0.0,0.0,0.0,0.0,0.0,0.0,0.0,0.0,0.0,0.0,0.0,0.0,0.0,0.0,0.0,0.0,0.0,0.0,0.0,-4.2744,-4.3643,-4.4239,-4.4624,-4.5035,-4.5418,-4.5744,-4.5942,-4.6035,-4.5991,-4.5974,-4.5968,-4.591,-4.5804,-4.5643,-4.5637,-4.5723,-4.5701,-4.4526,-4.3923,0.0,0.0,0.0,0.0,0.0,-4.0111,-4.0142,-4.0562,-4.1101,-4.1758,-4.2804,-4.4897,-4.7278,-4.8931,-5.0511,-5.2326,-5.5025,-5.6662,-5.7851,-5.8831,-5.9351,-5.9616,-5.9471,-5.7965,-5.6797,-5.7172,-5.6012,-5.5352,-5.6431,-5.6485,-5.6725,-5.7709,-5.8053,-5.8113,-5.8024,-5.8455,-5.8841,0.0,0.0,0.0,-6.0089,-5.9758,-5.9777,-6.0291,-5.9813,-5.9538,-5.9538,-5.9043,-5.8529,-5.7997,-5.7997,-5.7997,-5.7997,-5.7997,-5.7997,-5.7997,-5.7997,-5.7997,-5.7978,-5.7703,-5.7721,-5.7987,-5.7679,-5.7379,-5.7132,-5.7959,-5.7768,-5.7183,-5.8185,-5.8641,-5.8836,0.0,0.0,0.0,0.0,0.0,0.0,0.0,0.0,0.0,0.0,0.0,0.0,0.0,0.0,0.0,0.0,0.0,0.0,0.0,0.0,0.0,0.0,0.0,0.0,0.0,-3.9166,-4.0092,-4.1687,-4.2588,-4.3535,-4.4569,-4.5384,-4.5903,-4.6133,-4.6011,-4.594,-4.5926,-4.5811,-4.537,-4.4732,-4.4738,-4.4823,-4.4746,-4.3104,0.0,0.0,0.0,0.0,0.0,0.0,0.0,-4.0773,-4.0773,-4.1838,-4.3131,-4.3153,-4.4939,-4.7261,-4.8913,-5.0293,-5.1969,-5.4837,-5.6527,-5.7777,-5.9065,-5.9674,-5.9842,-5.9398,-5.7602,-5.5976,0.0,0.0,-5.3772,-5.3849,-5.4315,-5.5084,-5.6257,-5.6385,-5.68,0.0,0.0,0.0,0.0,0.0,0.0,-5.9457,0.0,-5.7997,-5.7997,-5.7997,-5.8015,-5.8052,-5.8015,-5.7997,-5.7997,-5.7997,-5.7997,-5.7997,-5.7997,-5.7997,-5.7997,-5.796,-5.7941,-5.7886,-5.7097,-5.7171,-5.7758,-5.6216,-5.5802,-5.6121,-5.6197,-5.5713,-5.5118,-5.6447,-5.717,-5.7635,0.0,0.0,0.0,0.0,0.0,0.0,0.0,0.0,0.0,0.0,0.0,0.0,0.0,0.0,0.0,0.0,0.0,0.0,0.0,0.0,0.0,0.0,0.0,0.0,0.0,0.0,0.0,0.0,0.0,-4.2117,-4.2401,-4.352,-4.402,-4.3997,-4.3945,-4.3942,-4.3937,-4.3898,-4.3911,-4.3915,0.0,-4.3958,-4.3983,0.0,0.0,0.0,0.0,0.0,0.0,0.0,0.0,0.0,-4.1514,-4.2489,-4.362,-4.3606,-4.5217,-4.7219,-4.8296,-4.9736,-5.1381,-5.3347,-5.4552,-5.5625,-5.6898,-5.773,-5.7939,-5.6886,-5.5049,-5.3187,0.0,0.0,0.0,-5.3194,-5.4758,0.0,-5.7877,-5.7807,0.0,-5.7941,0.0,-5.7997,-5.7997,-5.7997,0.0,0.0,-5.8143,-5.7987,-5.8014,-5.7987,-5.8272,-5.8896,-5.8309,-5.7997,-5.7997,-5.7997,-5.7997,-5.7997,-5.7997,-5.7997,-5.7978,-5.7373,-5.7116,-5.706,-5.6253,-5.6014,-5.618,-5.5757,-5.5312,-5.4925,-5.5515,-5.5257,-5.4649,-5.5591,-5.638,-5.7032,0.0,0.0,0.0,0.0,0.0,0.0,0.0,0.0,0.0,0.0,0.0,0.0,0.0,0.0,0.0,0.0,0.0,0.0,0.0,0.0,0.0,0.0,0.0,0.0,0.0,0.0,0.0,0.0,0.0,0.0,0.0,-4.1369,-4.1867,-4.1838,-4.179,-4.1758,-4.1753,0.0,0.0,0.0,0.0,0.0,0.0,0.0,0.0,0.0,0.0,0.0,0.0,0.0,0.0,-4.1418,-4.1781,-4.268,-4.358,-4.3574,0.0,-4.7109,-4.7615,-4.9064,-5.0848,-5.2309,-5.3465,-5.439,-5.4931,-5.5682,-5.5786,-5.3962,-5.2119,-5.0418,-4.9024,-4.9136,-4.9834,0.0,0.0,0.0,-5.7085,-5.7118,-5.7207,0.0,-5.7997,0.0,-5.7997,-5.7997,-5.7997,0.0,-5.7997,-5.8015,-5.7995,-5.7987,-5.8217,-5.8657,-5.8235,-5.7831,-5.7483,-5.7813,-5.7648,-5.695,-5.7299,-5.7464,-5.7446,-5.6638,-5.6473,-5.6748,0.0,-5.5262,-5.5537,-5.484,-5.4491,-5.4418,-5.4509,-5.4271,-5.394,-5.4381,-5.506,-5.5757,0.0,0.0,0.0,0.0,0.0,0.0,0.0,0.0,0.0,0.0,0.0,0.0,0.0,0.0,0.0,0.0,0.0,0.0,0.0,0.0,0.0,0.0,0.0,0.0,0.0,0.0,0.0,0.0,0.0,0.0,0.0,0.0,0.0,0.0,0.0,0.0,0.0,0.0,0.0,0.0,0.0,0.0,0.0,0.0,0.0,0.0,0.0,0.0,0.0,0.0,-4.101,-4.1237,-4.1939,-4.2729,-4.3393,-4.3474,-4.504,-4.6779,-4.6892,-4.8315,-5.0101,-5.1349,-5.2514,-5.3255,-5.2938,-5.3471,-5.3347,-5.0903,-4.922,-4.7851,-4.6881,-4.7093,-4.7776,-4.8816,0.0,-5.2821,-5.5244,-5.5684,-5.6271,-5.7666,-5.7923,-5.7997,-5.7997,-5.7997,-5.7997,-5.7997,-5.7997,-5.7997,-5.7997,-5.7997,-5.7997,-5.7997,-5.7997,-5.7666,-5.6969,-5.7556,-5.7134,-5.5757,-5.6363,-5.6638,-5.662,-5.5812,-5.5812,-5.64,-5.4895,-5.4638,-5.517,-5.3794,-5.361,-5.4179,-5.3482,-5.3206,-5.3206,-5.3206,-5.372,-5.4399,0.0,0.0,0.0,0.0,0.0,0.0,0.0,0.0,0.0,0.0,-2.8938,-2.9404,0.0,0.0,0.0,0.0,0.0,0.0,0.0,0.0,0.0,0.0,0.0,0.0,0.0,0.0,0.0,0.0,0.0,0.0,0.0,0.0,0.0,0.0,0.0,0.0,0.0,0.0,0.0,0.0,0.0,0.0,0.0,0.0,0.0,0.0,0.0,0.0,0.0,0.0,-4.2095,-4.2888,-4.3039,-4.3426,-4.3941,-4.4277,-4.4918,-4.5655,-4.6315,-4.7276,-4.8423,-4.9695,-5.0191,-5.0388,-5.0674,-5.086,0.0,0.0,-4.7322,-4.6411,-4.4834,-4.5453,-4.6893,-4.9045,-5.0882,-5.2821,-5.5244,-5.6161,-5.6712,0.0,-5.7593,-5.7997,-5.7997,-5.7997,0.0,0.0,-5.7997,-5.7997,-5.7997,-5.7997,-5.7997,-5.7997,-5.7997,-5.7923,-5.7795,-5.7281,-5.6877,-5.6602,-5.6051,-5.5794,-5.5776,-5.4968,-5.4675,-5.4766,-5.383,0.0,-5.3592,-5.3335,-5.3298,-5.339,-5.3261,-5.3206,-5.3206,-5.3206,-5.372,-5.4399,0.0,0.0,0.0,0.0,0.0,0.0,0.0,-2.8469,-2.8634,-2.8427,-2.9236,-2.9977,-3.0427,-3.0797,-3.1384,0.0,0.0,0.0,0.0,0.0,0.0,0.0,0.0,0.0,0.0,0.0,0.0,0.0,0.0,0.0,0.0,0.0,0.0,0.0,0.0,0.0,0.0,0.0,0.0,0.0,0.0,0.0,0.0,0.0,0.0,0.0,0.0,0.0,0.0,0.0,-4.163,-4.2846,-4.3267,-4.3692,-4.4042,-4.4214,-4.489,-4.5696,-4.6502,-4.7199,-4.8051,-4.9509,-4.9729,-4.942,-4.8735,0.0,0.0,0.0,-4.5121,-4.4733,-4.3892,-4.4904,0.0,-4.7994,-4.9664,-5.1573,-5.4014,-5.5042,-5.5702,-5.6124,-5.7262,-5.7831,0.0,-5.7758,-5.7776,-5.718,-5.7685,-5.7997,-5.7997,-5.7997,-5.7813,-5.7391,-5.7373,-5.6969,-5.6124,-5.6161,-5.5757,-5.4932,-5.495,-5.4968,-5.495,-5.4142,-5.4014,-5.4363,-5.3555,-5.3206,-5.3206,-5.3206,-5.3206,-5.3206,-5.3206,-5.3206,-5.3206,-5.3206,-5.3445,-5.3794,0.0,0.0,0.0,0.0,0.0,0.0,0.0,-2.8476,-2.882,-2.8349,-2.9644,-3.0629,-3.0699,-3.1463,-3.2228,0.0,0.0,0.0,0.0,0.0,0.0,0.0,0.0,0.0,0.0,0.0,0.0,-3.368,0.0,0.0,0.0,0.0,0.0,0.0,0.0,0.0,0.0,0.0,0.0,0.0,0.0,0.0,0.0,0.0,0.0,0.0,0.0,0.0,0.0,0.0,-4.0993,-4.2161,-4.2803,-4.3439,-4.397,-4.3876,-4.4683,-4.5829,-4.663,-4.723,-4.7991,-4.9355,-4.9582,-4.9007,-4.7354,-4.6882,0.0,-4.3975,-4.3497,-4.3497,-4.3497,-4.4525,-4.5663,0.0,-4.7767,-4.9563,-5.2121,-5.331,-5.4287,0.0,-5.6914,0.0,-5.6895,-5.7373,0.0,-5.6557,-5.7116,-5.7629,-5.7978,-5.7831,-5.7538,-5.7079,-5.673,-5.6014,-5.4932,-5.5188,-5.4711,-5.3463,-5.3922,-5.4142,-5.4124,-5.35,-5.3555,-5.4106,-5.3482,-5.3206,0.0,-5.3206,-5.3206,-5.3206,-5.3206,-5.3206,-5.3206,-5.3206,-5.3206,-5.3206,0.0,0.0,0.0,0.0,0.0,0.0,0.0,-2.8298,-2.8728,-2.7947,-2.9506,-3.0699,-3.0699,-3.174,-3.2332,0.0,0.0,0.0,0.0,0.0,0.0,0.0,0.0,0.0,0.0,0.0,0.0,-3.3243,-3.3214,0.0,0.0,0.0,0.0,0.0,0.0,-3.1329,0.0,0.0,0.0,0.0,0.0,0.0,0.0,0.0,0.0,0.0,0.0,0.0,0.0,0.0,0.0,-4.123,-4.1309,-4.253,-4.3924,-4.3485,0.0,0.0,-4.6153,-4.693,-4.7656,-4.8239,-4.8669,-4.8531,-4.6909,0.0,-4.5535,-4.3846,-4.3497,-4.3497,-4.3497,-4.3608,-4.4053,-4.5113,0.0,-4.6631,-4.9745,-5.1529,-5.2999,-5.4356,0.0,0.0,-5.6895,-5.6877,-5.6877,-5.6785,-5.618,-5.6455,-5.7923,-5.7317,-5.7207,-5.7868,-5.6455,-5.5996,-5.6583,-5.5207,-5.4436,-5.4289,-5.3628,-5.3316,-5.3316,-5.3243,-5.3243,-5.3316,-5.3243,-5.3206,0.0,-5.3206,-5.3206,-5.3206,-5.3206,-5.3206,-5.3206,-5.3206,-5.3206,-5.3206,0.0,0.0,0.0,0.0,0.0,0.0,-2.7348,-2.8268,-2.8978,-2.8886,-3.0141,-3.117,-3.1444,-3.2344,-3.2857,-3.2733,0.0,0.0,0.0,0.0,0.0,0.0,0.0,0.0,0.0,0.0,-3.3945,-3.428,-3.3714,0.0,0.0,0.0,0.0,0.0,0.0,-3.1613,-3.119,0.0,0.0,0.0,0.0,0.0,0.0,0.0,0.0,0.0,0.0,0.0,0.0,0.0,0.0,0.0,-4.0247,-4.1431,0.0,0.0,-4.4202,-4.559,-4.5918,-4.6935,-4.7991,-4.8213,-4.8209,-4.7878,-4.6764,0.0,-4.4853,-4.3752,-4.3497,-4.341,-4.3087,-4.3014,-4.3045,-4.3107,0.0,0.0,-4.6167,-4.7767,-4.942,-5.1435,-5.373,0.0,0.0,0.0,-5.6069,-5.6069,-5.5335,-5.5354,-5.6492,-5.6253,-5.5996,-5.5831,-5.5207,-5.4803,-5.4638,-5.4014,-5.3683,-5.3683,-5.3353,-5.3206,-5.3206,-5.3206,-5.3206,-5.3206,-5.3206,-5.3206,0.0,-5.3206,-5.3206,-5.3206,-5.3206,-5.3206,-5.3206,-5.3206,-5.3206,-5.3206,0.0,0.0,0.0,0.0,0.0,-2.7457,-2.7334,-2.8358,-2.9283,-2.9551,-3.0695,-3.1719,-3.2306,-3.2977,-3.3379,-3.3379,-3.3379,0.0,0.0,0.0,0.0,0.0,0.0,0.0,0.0,0.0,-3.4028,-3.4465,-3.3877,-3.3459,0.0,0.0,-3.2748,-3.159,0.0,0.0,0.0,0.0,0.0,0.0,0.0,0.0,0.0,0.0,0.0,0.0,0.0,0.0,0.0,0.0,0.0,0.0,0.0,0.0,0.0,0.0,-4.3681,-4.519,-4.5171,-4.6478,-4.7881,-4.804,-4.788,-4.7531,0.0,0.0,-4.4481,-4.3679,-4.3375,-4.3142,-4.2788,-4.2559,-4.2262,0.0,0.0,-4.2124,-4.3719,-4.5027,-4.6551,0.0,0.0,-5.2298,0.0,-5.4036,-5.4545,-5.429,-5.3545,-5.3454,-5.4236,-5.4054,-5.4218,-5.4748,-5.4289,-5.3904,-5.3573,-5.3335,-5.3206,-5.3206,-5.3206,-5.3206,-5.3206,-5.3206,-5.3206,-5.3206,-5.3206,-5.3206,0.0,-5.3206,-5.3206,-5.3206,-5.3206,-5.3206,-5.3206,-5.3206,-5.3206,-5.3206,0.0,0.0,0.0,0.0,0.0,0.0,-2.7348,-2.861,-2.9612,-2.9584,-3.1013,-3.2318,-3.3094,-3.355,-3.3788,-3.3788,-3.3788,0.0,0.0,0.0,0.0,0.0,0.0,0.0,0.0,0.0,-3.3625,-3.3232,-3.3479,-3.2995,-3.1914,-3.2942,-3.3031,-3.2373,0.0,0.0,0.0,0.0,0.0,0.0,0.0,0.0,0.0,0.0,0.0,0.0,0.0,0.0,0.0,0.0,0.0,0.0,0.0,0.0,0.0,0.0,-4.2337,-4.3718,-4.3718,-4.5321,-4.7098,-4.7509,-4.7652,-4.7598,0.0,0.0,-4.4481,-4.3679,-4.3087,-4.2711,-4.2711,-4.2203,-4.1621,-4.0995,-4.0903,0.0,-4.3162,-4.4129,-4.5124,0.0,0.0,-4.9434,-5.0069,-5.1473,-5.2006,-5.1226,-5.0464,0.0,-5.112,-5.0447,-5.1772,-5.5456,-5.4051,-5.3592,-5.4381,-5.361,-5.3206,-5.3206,-5.3206,-5.3206,-5.3206,-5.3206,-5.3206,-5.3206,-5.3206,-5.3206,0.0,-5.3206,-5.3206,-5.3206,-5.3206,-5.3206,-5.3206,-5.3206,-5.3206,-5.3206,0.0,0.0,0.0,0.0,0.0,0.0,0.0,-2.8479,-2.908,-2.9898,-3.0749,-3.1524,-3.23,-3.3222,-3.3807,-3.3807,-3.3807,0.0,0.0,0.0,0.0,0.0,0.0,0.0,0.0,0.0,-3.3604,-3.4026,-3.3458,-3.3007,-3.2739,-3.3711,-3.3517,-3.2438,-3.3386,-3.3508,0.0,0.0,0.0,0.0,0.0,0.0,0.0,0.0,0.0,0.0,0.0,0.0,0.0,0.0,0.0,0.0,0.0,0.0,0.0,0.0,0.0,0.0,-4.2564,-4.4217,-4.5982,-4.5525,-4.5745,-4.6045,-4.5894,0.0,-4.3244,-4.3012,-4.2501,-4.1937,-4.1534,-4.1313,-4.1013,-4.0449,-4.0368,0.0,0.0,0.0,0.0,-4.5725,-4.8617,-5.0569,0.0,0.0,-5.1351,-5.1104,-5.0856,-5.0838,-5.1068,-5.0856,-5.1274,-5.2494,-5.2028,-5.1902,-5.2135,-5.1902,-5.197,-5.2445,-5.2445,-5.2707,-5.3206,-5.3206,-5.3206,-5.3206,-5.3206,-5.3206,0.0,-5.3206,-5.3206,-5.3206,-5.3206,-5.3206,-5.3206,-5.3206,-5.3206,-5.3206,0.0,0.0,0.0,0.0,0.0,0.0,0.0,-2.854,-2.9068,-3.029,-3.0697,-3.1271,-3.2336,-3.2984,-3.3441,-3.3701,-3.3719,0.0,0.0,0.0,0.0,0.0,0.0,0.0,0.0,-3.3243,-3.3278,-3.341,-3.314,-3.2946,-3.2864,-3.3997,-3.4063,-3.3274,-3.4124,-3.4235,0.0,0.0,0.0,0.0,0.0,0.0,-3.8374,0.0,0.0,0.0,0.0,0.0,0.0,0.0,0.0,0.0,0.0,0.0,0.0,0.0,-4.0968,-4.1834,0.0,-4.3041,-4.4576,-4.4189,-4.4252,0.0,0.0,-4.3462,-4.2369,-4.236,-4.1895,-4.1358,-4.0949,-4.0733,-4.0497,-4.0171,-3.985,0.0,0.0,0.0,0.0,-4.3962,0.0,0.0,0.0,-4.9179,-4.9496,-4.9264,-4.9332,-4.9504,-4.978,-4.9833,-5.0018,-5.0297,-5.0823,-5.1086,-5.1086,-5.1086,-5.1292,-5.1692,-5.1692,-5.2083,-5.2769,-5.2769,-5.2937,-5.3206,-5.3206,0.0,0.0,-5.3206,-5.3206,-5.3206,-5.3206,-5.3206,-5.3206,-5.3206,-5.3206,-5.3206,0.0,0.0,0.0,0.0,0.0,0.0,0.0,-2.8725,-2.9418,-3.0713,-3.0828,-3.1376,-3.2973,-3.2777,-3.2854,-3.3634,0.0,0.0,0.0,0.0,0.0,0.0,0.0,0.0,0.0,-3.2957,-3.2749,-3.1789,-3.2567,-3.2706,-3.2266,-3.359,-3.4308,-3.4477,-3.4449,-3.4479,0.0,0.0,0.0,0.0,0.0,0.0,0.0,0.0,0.0,0.0,0.0,0.0,0.0,0.0,0.0,0.0,0.0,0.0,0.0,0.0,0.0,0.0,0.0,-4.1824,-4.2917,-4.3319,-4.3166,0.0,0.0,-4.2547,0.0,-4.1768,-4.1268,-4.081,-4.0763,-4.0351,-4.002,-3.9952,-3.9365,0.0,0.0,-3.9973,0.0,0.0,-4.3811,0.0,-4.417,-4.5959,-4.6941,-4.634,-4.6334,-4.6815,-4.7622,-4.783,-4.823,-4.8984,-5.0258,-5.0929,-5.0929,-5.0929,-5.0981,-5.1034,-5.1034,-5.1393,-5.2112,-5.2112,-5.249,0.0,-5.3206,0.0,0.0,-5.3206,-5.3206,-5.3206,-5.3206,-5.3206,-5.3206,-5.3206,-5.3206,-5.3206,0.0,0.0,0.0,0.0,0.0,0.0,0.0,0.0,0.0,0.0,-3.0592,-3.0986,-3.2521,-3.289,-3.3426,0.0,0.0,0.0,0.0,0.0,0.0,0.0,0.0,0.0,0.0,-3.3217,-3.3,-3.1789,-3.2196,-3.1876,-3.0889,-3.1264,-3.201,-3.3064,-3.3587,-3.4359,0.0,0.0,0.0,0.0,0.0,0.0,0.0,0.0,0.0,0.0,-3.5982,-3.5974,0.0,0.0,0.0,0.0,0.0,0.0,0.0,0.0,-4.007,-4.0121,-4.0235,0.0,-4.1426,-4.1529,-4.1785,-4.2129,0.0,0.0,0.0,-4.1133,0.0,0.0,-3.9475,-3.9282,-3.8978,-3.843,0.0,0.0,-3.9065,0.0,0.0,-4.4285,-4.5719,-4.6198,-4.5005,-4.625,-4.7043,-4.6866,-4.6025,-4.6407,-4.8564,-4.8049,-4.8058,-4.9001,-4.9316,-4.9462,-4.9462,-4.9462,-4.9722,-5.0241,-5.0241,-5.0911,-5.2112,-5.2112,-5.249,-5.3206,0.0,0.0,-5.3206,-5.3206,-5.3206,-5.3206,-5.3206,-5.3206,-5.3206,-5.3206,-5.3206,-5.3206,0.0,0.0,0.0,0.0,0.0,0.0,0.0,0.0,0.0,0.0,0.0,0.0,0.0,0.0,0.0,0.0,0.0,0.0,0.0,0.0,0.0,0.0,0.0,0.0,-3.2196,-3.2823,-3.2582,-3.1387,-3.1029,-3.0533,-2.9927,-3.0291,-3.1018,-3.2162,-3.3469,-3.4618,0.0,0.0,0.0,0.0,-3.5939,0.0,0.0,0.0,0.0,0.0,-3.4857,-3.4765,0.0,-3.3952,-3.4419,-3.5528,0.0,0.0,0.0,0.0,-3.9598,-3.9598,-3.9598,-4.0037,-4.0561,-4.0561,-4.0798,-4.1033,-4.0999,0.0,0.0,0.0,0.0,0.0,0.0,0.0,0.0,0.0,-3.8534,0.0,0.0,0.0,-4.2823,-4.42,-4.4933,-4.5228,0.0,-4.5488,-4.5781,-4.5391,-4.4747,-4.5334,-4.7561,-4.7637,-4.8015,-4.9001,-4.9001,-4.9001,-4.9001,-4.9001,-4.9152,-4.9504,-4.9504,-5.0297,-5.1643,-5.1643,-5.2196,-5.3206,0.0,0.0,-5.3206,-5.3206,-5.3206,-5.3206,-5.3206,-5.3206,-5.3243,-5.361,-5.3537,-5.3225,0.0,0.0,0.0,0.0,0.0,0.0,0.0,0.0,0.0,0.0,0.0,0.0,0.0,0.0,0.0,0.0,0.0,0.0,0.0,0.0,0.0,0.0,0.0,-3.2623,-3.1733,-3.2197,-3.1894,-3.0778,-2.9691,-2.9186,-2.9177,-2.97,-3.0552,-3.1742,-3.3974,-3.5168,0.0,0.0,-3.576,-3.5767,-3.5646,0.0,0.0,0.0,0.0,0.0,0.0,0.0,0.0,-3.268,-3.2848,-3.3756,-3.5728,0.0,0.0,0.0,0.0,0.0,-3.8975,-3.9446,-3.9969,-4.0054,-3.9986,-3.9935,-3.9901,0.0,0.0,0.0,0.0,0.0,0.0,-3.7727,0.0,0.0,0.0,0.0,-4.0636,-4.1025,-4.1683,-4.3165,-4.3509,0.0,-4.3988,-4.4308,-4.4238,-4.3642,-4.3609,-4.4491,-4.6496,-4.7221,-4.8015,-4.9001,-4.9001,-4.9001,-4.9001,-4.9001,-4.9001,-4.9001,-4.9001,-4.9739,-5.1086,-5.1086,-5.1892,-5.3206,0.0,0.0,-5.3206,-5.3206,-5.3206,-5.3206,-5.3206,-5.3206,-5.3298,-5.3977,-5.3794,-5.3182,0.0,0.0,0.0,0.0,0.0,0.0,0.0,0.0,0.0,0.0,0.0,0.0,0.0,0.0,0.0,0.0,0.0,0.0,0.0,0.0,0.0,0.0,-3.2758,-3.2059,-3.1308,-3.1922,-3.1532,-3.0167,-2.9516,-2.8839,-2.8105,-2.8021,-2.9539,-3.2558,-3.5243,-3.6133,-3.5646,-3.6288,-3.6527,-3.6486,-3.5838,0.0,0.0,0.0,0.0,0.0,0.0,0.0,0.0,-3.1895,-3.2164,-3.293,-3.389,0.0,0.0,0.0,0.0,0.0,-3.8841,-3.9059,-3.9345,-3.9952,-3.9623,-3.9051,-3.9065,0.0,0.0,0.0,0.0,0.0,0.0,-3.7265,-3.7451,0.0,0.0,-4.077,0.0,0.0,-4.4242,-4.3434,0.0,-4.4377,-4.2806,-4.318,-4.3889,-4.4802,-4.4936,-4.5991,-4.8447,-4.7952,-4.8015,-4.9001,-4.9001,-4.9001,-4.9001,-4.9001,-4.9001,-4.9001,-4.9001,-4.9739,-5.1086,-5.1086,-5.1892,-5.3206,0.0,-5.3206,-5.3206,-5.3206,-5.3206,-5.3206,-5.3206,-5.3206,-5.3225,-5.3353,-5.3316,-5.3206,0.0,0.0,0.0,0.0,0.0,0.0,0.0,0.0,0.0,0.0,0.0,0.0,0.0,0.0,0.0,0.0,0.0,0.0,0.0,0.0,0.0,-3.3457,-3.2739,-3.1985,-3.1072,-3.0952,-3.0238,-2.892,-2.766,-2.6876,-2.6596,-2.7937,-3.0606,-3.4316,-3.5185,-3.582,-3.6185,-3.611,-3.6043,-3.6013,0.0,0.0,0.0,0.0,0.0,0.0,0.0,0.0,0.0,0.0,-3.2336,-3.2798,-3.388,0.0,0.0,0.0,0.0,0.0,-3.8099,-3.8387,-3.8548,-3.9292,-3.9161,-3.8809,-3.8407,0.0,0.0,0.0,0.0,0.0,0.0,0.0,-3.7985,-3.9436,0.0,-4.2028,-4.3643,-4.3778,-4.3748,0.0,0.0,-4.3852,-4.4143,-4.425,-4.4709,-4.5687,-4.6022,-4.685,-4.8183,-4.782,-4.8015,-4.9001,-4.9001,-4.9001,-4.9001,-4.9001,-4.9001,-4.9001,-4.9359,-5.009,-5.1086,-5.1494,-5.2196,-5.3206,0.0,-5.3206,-5.3206,-5.3206,-5.3206,-5.3206,-5.3206,-5.3206,-5.3206,-5.3206,-5.3573,-5.3959,0.0,0.0,0.0,0.0,0.0,0.0,0.0,0.0,0.0,0.0,0.0,0.0,0.0,0.0,0.0,0.0,0.0,0.0,0.0,0.0,-3.4844,-3.3711,-3.2923,-3.1945,-3.079,-2.9763,-2.8785,-2.7795,-2.6083,-2.5646,-2.641,-2.9146,-3.2222,-3.5429,-3.5412,-3.5726,-3.6368,-3.5957,-3.566,-3.5524,0.0,0.0,0.0,0.0,0.0,0.0,0.0,0.0,0.0,0.0,0.0,0.0,0.0,0.0,0.0,-3.4852,-3.5311,-3.5723,-3.7024,-3.7448,-3.7642,-3.8034,-3.8248,-3.8237,-3.7663,0.0,0.0,0.0,0.0,0.0,0.0,-3.712,0.0,-4.1429,-4.2282,-4.3,-4.4152,-4.3584,-4.3359,-4.4212,-4.3642,-4.3791,-4.531,-4.5425,-4.5719,-4.647,-4.6969,-4.743,-4.7885,-4.7933,-4.8225,-4.9001,-4.9001,-4.9001,-4.9001,-4.9001,-4.9001,-4.9001,-4.9664,-5.0407,-5.1138,-5.179,-5.249,-5.3206,-5.3206,-5.3206,-5.3206,-5.3206,-5.3206,-5.3206,-5.3206,-5.3206,-5.3206,-5.3206,-5.372,-5.4332,0.0,0.0,0.0,0.0,0.0,0.0,0.0,0.0,0.0,0.0,0.0,0.0,0.0,0.0,0.0,0.0,0.0,0.0,0.0,0.0,-3.4523,-3.4421,-3.319,-3.1819,-3.0351,-2.8529,-2.7431,-2.7144,-2.5979,-2.6674,-2.9274,-3.18,-3.3626,-3.4739,-3.6714,-3.6805,-3.561,-3.6274,-3.6119,-3.5504,-3.5509,0.0,0.0,0.0,0.0,0.0,0.0,0.0,0.0,0.0,0.0,0.0,0.0,0.0,-3.2817,-3.3562,-3.4201,-3.4841,-3.5656,-3.6317,-3.6641,-3.6006,-3.6304,0.0,-3.6737,-3.6669,0.0,-3.6535,0.0,0.0,0.0,-3.7494,-3.8796,-4.0292,-4.2073,-4.3509,-4.4212,0.0,-4.4885,-4.4377,-4.495,-4.5279,-4.492,-4.5593,-4.6539,-4.7456,-4.7539,-4.7967,-4.8861,-4.8923,-4.894,-4.9001,-4.9001,-4.9001,-4.9001,-4.9001,-4.9001,-4.9001,-4.9664,-5.0407,-5.1138,-5.179,-5.249,-5.3206,-5.3206,-5.3206,-5.3206,-5.3206,-5.3206,-5.3206,-5.3206,-5.3206,-5.3206,-5.3206,-5.3261,-5.3316,0.0,0.0,0.0,0.0,0.0,0.0,0.0,0.0,0.0,0.0,0.0,0.0,0.0,0.0,0.0,0.0,0.0,0.0,0.0,0.0,-3.4095,-3.3212,-3.24,-3.1273,-2.9847,-2.8232,-2.7188,-2.673,-2.7113,-2.8464,-3.0725,-3.2631,-3.4333,-3.5909,-3.5628,-3.5214,-3.482,-3.4961,-3.4596,-3.412,-3.5115,-3.5277,0.0,0.0,0.0,0.0,0.0,0.0,0.0,0.0,-3.1202,-3.0923,0.0,-3.1702,-3.2128,-3.3243,-3.3466,-3.368,-3.5279,-3.5537,-3.5369,-3.5579,0.0,0.0,0.0,0.0,0.0,-3.5953,-3.7506,0.0,0.0,0.0,-4.0746,-4.1535,-4.2581,-4.3703,-4.4781,-4.4781,-4.4586,-4.4347,-4.4769,-4.5285,-4.5665,-4.6539,-4.744,-4.837,-4.845,-4.8656,-4.9001,-4.9001,-4.9001,-4.9001,-4.9001,-4.9001,-4.9001,-4.9001,-4.9212,-4.9622,-5.0352,-5.1034,-5.1741,-5.1937,-5.2462,-5.3188,-5.2674,-5.2454,-5.2454,-5.2454,-5.216,-5.1775,-5.2252,-5.2454,-5.2509,-5.3023,-5.3206,-5.3206,0.0,0.0,0.0,0.0,0.0,0.0,0.0,0.0,0.0,0.0,0.0,0.0,0.0,0.0,0.0,0.0,0.0,0.0,0.0,-3.2657,-3.3011,-3.2474,-3.171,-3.0826,-2.9844,-2.8485,-2.7424,-2.6768,-2.8314,-3.0206,-3.2464,-3.3678,-3.4839,-3.5937,-3.4712,-3.3862,-3.3319,-3.3125,-3.3092,-3.3266,-3.4353,-3.4818,0.0,0.0,0.0,0.0,0.0,0.0,0.0,0.0,-3.1174,0.0,0.0,0.0,0.0,-3.2904,-3.2975,-3.2902,-3.4337,-3.4608,-3.4545,0.0,0.0,0.0,0.0,0.0,0.0,0.0,-3.7643,0.0,0.0,0.0,0.0,0.0,-4.2462,-4.3404,-4.4511,-4.4514,-4.4452,-4.4452,-4.521,-4.5921,-4.6609,-4.7523,-4.8306,-4.894,-4.9001,-4.9001,-4.9001,-4.9001,-4.9001,-4.9001,-4.9001,-4.9001,-4.9001,-4.9001,-4.9479,-5.0335,-5.0576,-5.1069,-5.1715,-5.1907,-5.216,-5.2417,-5.1867,-5.161,-5.161,-5.161,-5.1298,-5.0857,-5.1408,-5.1701,-5.1944,-5.2491,-5.2913,-5.3212,0.0,0.0,0.0,0.0,0.0,0.0,0.0,0.0,0.0,0.0,0.0,0.0,0.0,0.0,0.0,0.0,0.0,0.0,-3.0412,-3.0523,-3.1101,-3.2512,-3.1325,-3.0627,-3.0627,-2.9325,-2.8218,-2.741,-2.9375,-3.1846,-3.4704,-3.5301,-3.5138,-3.4368,-3.438,-3.3118,-3.0999,-3.0999,-3.1815,-3.3143,-3.3223,-3.412,-3.537,0.0,0.0,0.0,0.0,0.0,0.0,0.0,-3.1505,-3.1467,0.0,0.0,0.0,-3.2412,-3.2578,-3.257,-3.257,-3.3531,-3.4332,0.0,0.0,0.0,0.0,0.0,0.0,-3.7419,0.0,-3.7614,-3.8272,0.0,0.0,-4.0172,-4.1489,-4.2566,-4.3225,-4.4128,-4.4796,-4.4796,-4.6454,-4.7572,-4.7572,-4.8416,-4.8984,-4.8984,-4.8984,-4.8984,-4.8984,-4.8984,-4.8984,-4.8984,-4.8984,-4.8984,-4.8984,-4.8984,-4.9664,-5.1068,-5.0256,-5.0236,-5.0949,-5.1651,-5.1555,-5.0802,-5.0802,-5.0802,-5.0802,-5.0784,-5.0784,-5.0784,-5.0784,-5.1118,-5.1599,-5.1591,-5.2275,-5.3185,0.0,0.0,0.0,0.0,0.0,0.0,0.0,0.0,0.0,0.0,0.0,0.0,0.0,0.0,0.0,0.0,0.0,0.0,-2.9694,-3.0204,-3.0704,-3.1095,-3.0787,-3.0587,-3.0507,-3.0578,-3.0238,-2.9596,-3.1092,-3.2528,-3.3867,-3.395,-3.3597,-3.2868,-3.1531,-3.0351,-2.9403,-2.982,-3.0323,-3.1115,-3.2585,-3.3827,-3.4771,0.0,0.0,0.0,0.0,0.0,0.0,0.0,0.0,0.0,0.0,0.0,0.0,-3.2536,-3.2593,-3.2517,-3.2604,-3.2819,0.0,-3.3438,0.0,0.0,0.0,0.0,0.0,0.0,0.0,-3.9256,-3.9985,0.0,0.0,-3.9706,-4.0427,-4.1415,-4.2707,-4.3152,-4.3572,-4.418,-4.5323,-4.6073,-4.6073,-4.7378,-4.824,-4.824,-4.824,-4.824,-4.824,-4.824,-4.8003,-4.7462,-4.797,-4.824,-4.824,-4.7716,-4.8162,-4.9532,-4.929,-5.0008,-5.1633,-5.0721,-5.049,-5.0765,-5.0196,-4.9958,-4.9903,-4.9297,-4.904,-4.9114,-4.9719,-5.0181,-5.0512,-5.0927,-5.194,-5.3185,0.0,0.0,0.0,0.0,0.0,0.0,0.0,0.0,0.0,0.0,0.0,0.0,0.0,0.0,0.0,0.0,0.0,0.0,0.0,0.0,-2.9568,-3.0127,-3.0195,-3.0426,-3.0896,-3.1243,-3.1394,-3.1351,-3.237,-3.2951,-3.3111,-3.2734,-3.1822,-3.042,-2.9306,-2.8294,-2.7296,-2.8014,-2.8768,-2.964,-3.1298,-3.2616,-3.3564,0.0,0.0,0.0,0.0,0.0,0.0,0.0,0.0,0.0,0.0,0.0,0.0,-3.2481,-3.2362,-3.2236,-3.2794,-3.2901,0.0,-3.3754,-3.4696,-3.5609,-3.6013,0.0,0.0,0.0,0.0,-3.9428,-4.0102,-4.001,0.0,-3.9781,-4.0142,-4.0975,-4.2458,-4.3036,-4.3564,-4.4427,-4.5368,-4.5979,-4.5979,-4.7144,-4.78,-4.7496,-4.775,-4.7784,-4.7479,-4.7462,-4.7259,-4.6802,-4.7225,-4.7462,-4.7462,-4.7022,-4.7363,-4.8477,-4.8068,-4.8895,-5.0641,-4.9915,-4.9664,-4.9793,-4.9279,-4.9077,-4.904,-4.8526,-4.8306,-4.8361,-4.8875,-4.9187,-4.9349,-4.9687,-5.1257,-5.3185,0.0,0.0,0.0,0.0,0.0,0.0,0.0,0.0,0.0,0.0,0.0,0.0,0.0,0.0,0.0,0.0,0.0,0.0,0.0,0.0,-2.8233,-2.952,-2.9699,-3.0342,-3.1541,-3.1515,-3.1836,-3.2492,-3.3082,-3.3092,-3.2469,-3.155,-2.9863,-2.76,-2.7551,-2.6629,-2.5075,-2.597,-2.7169,-2.8625,-2.9525,-3.0757,-3.2139,-3.2392,0.0,0.0,0.0,0.0,0.0,0.0,0.0,0.0,-3.1865,0.0,-3.1781,-3.2363,-3.2085,-3.1885,-3.3065,0.0,0.0,-3.4352,-3.504,0.0,-3.5719,-3.7166,-3.8522,-3.9035,0.0,-3.8567,-3.92,-3.8811,-3.8811,-4.0244,-4.0439,-4.0985,-4.2559,-4.3527,-4.4316,-4.5233,-4.6056,-4.6583,-4.6583,-4.7276,-4.7428,-4.6752,-4.7327,-4.7428,-4.6735,-4.6701,-4.6667,-4.6583,-4.665,-4.6701,-4.6701,-4.6616,-4.6914,-4.7605,-4.6933,-4.7199,-4.8424,-4.9068,-4.8964,-4.8196,-4.8196,-4.8196,-4.8214,-4.8269,-4.8306,-4.8306,-4.8306,-4.8378,-4.8464,-4.851,-5.0519,-5.3185,0.0,0.0,0.0,0.0,0.0,0.0,0.0,0.0,0.0,0.0,0.0,0.0,0.0,0.0,0.0,0.0,0.0,0.0,0.0,0.0,-2.8742,-2.9549,-3.0567,-3.1495,-3.2287,-3.2255,-3.2116,-3.1754,-3.24,-3.2337,-3.1554,-2.9954,-2.8636,-2.7617,-2.582,-2.5142,-2.5468,-2.5281,-2.6089,-2.7571,-2.8298,-2.9793,-3.1723,-3.2311,-3.2482,0.0,0.0,0.0,0.0,0.0,0.0,0.0,-3.3142,-3.3054,-3.298,-3.2586,-3.2406,-3.2338,0.0,-3.2734,0.0,0.0,-3.5385,-3.6586,-3.7713,-3.8288,-3.829,-3.7316,-3.7901,-3.8595,-3.8622,-3.8497,-3.8913,-4.0385,-4.0647,-4.1226,-4.2894,-4.332,-4.3767,-4.4666,-4.4929,-4.506,-4.506,-4.5737,-4.6126,-4.5957,-4.6092,0.0,-4.5957,-4.594,-4.5669,-4.5077,-4.5635,-4.594,-4.594,-4.5348,-4.5462,0.0,-4.6342,-4.6583,-4.6931,-4.7551,-4.7674,-4.737,-4.737,-4.737,-4.7425,-4.8049,-4.8306,-4.8306,-4.8306,-4.8838,-4.9682,-5.012,-5.1522,-5.3185,0.0,0.0,0.0,0.0,0.0,0.0,0.0,0.0,0.0,0.0,0.0,0.0,0.0,0.0,0.0,0.0,0.0,0.0,0.0,0.0,0.0,-2.9173,-3.0877,-3.1968,-3.2306,-3.2718,-3.2662,-3.2003,-3.1637,-3.0923,-2.9766,-2.8872,-2.7578,-2.595,-2.4982,-2.4615,-2.4946,-2.5178,-2.5808,-2.6668,-2.7778,-2.8957,-3.0074,-3.1146,-3.156,-3.1634,-3.2284,0.0,0.0,0.0,0.0,0.0,0.0,0.0,-3.3396,-3.3089,-3.2976,-3.3057,0.0,0.0,0.0,-3.4711,0.0,-3.6728,-3.7496,-3.7935,-3.7904,-3.6776,-3.7609,-3.858,-3.8397,-3.8392,-3.8762,-3.9961,-4.0473,-4.1044,-4.2037,-4.2861,-4.3488,-4.3951,-4.435,-4.4587,-4.4587,-4.5263,-4.5551,-4.5196,0.0,-4.5551,-4.5179,-4.5162,-4.4993,-4.4587,-4.4959,-4.5162,-4.5162,-4.4773,-4.4587,-4.4604,-4.5511,-4.6288,-4.6892,-4.7132,-4.7192,-4.7095,-4.6709,-4.6544,-4.6599,-4.7407,-4.7737,-4.7774,-4.8159,-4.8673,-4.9276,-5.0105,-5.1599,-5.3185,0.0,0.0,0.0,0.0,0.0,0.0,0.0,0.0,0.0,0.0,0.0,0.0,0.0,0.0,0.0,0.0,0.0,0.0,0.0,0.0,0.0,-2.9096,-3.0827,-3.1897,-3.2076,-3.2779,-3.287,-3.2347,-3.0983,-2.964,-2.8318,-2.8044,-2.67,-2.4626,-2.4546,-2.4443,-2.4326,-2.528,-2.5678,-2.5908,-2.7398,-2.8137,-2.8508,-2.9731,-3.0332,-3.06,-3.1275,-3.1959,-3.2498,-3.262,0.0,0.0,0.0,0.0,-3.3539,-3.3638,-3.3577,-3.3668,0.0,0.0,-3.4816,-3.5504,-3.6146,0.0,-3.6754,-3.7298,-3.7573,-3.6798,-3.7466,-3.8227,-3.8067,-3.8063,-3.8424,-3.9497,-4.0271,-4.0877,-4.1371,-4.2626,-4.3523,-4.358,-4.4181,-4.4587,-4.4587,-4.5145,-4.5263,-4.4621,0.0,-4.5179,-4.4418,-4.4524,-4.4524,-4.435,-4.4524,-4.4592,-4.4592,-4.4401,-4.3995,-4.3389,-4.4647,-4.597,-4.7337,-4.6905,-4.6783,-4.6874,-4.6049,-4.5681,-4.5755,-4.6562,-4.6985,-4.7186,-4.7847,-4.8286,-4.8629,-4.9646,-5.114,-5.2706,0.0,0.0,0.0,0.0,0.0,0.0,0.0,0.0,0.0,0.0,0.0,0.0,0.0,0.0,0.0,0.0,0.0,0.0,-2.4895,0.0,0.0,-3.0466,-3.0284,-3.0732,-3.2062,-3.1671,-3.1477,-3.1601,-3.0857,0.0,0.0,0.0,0.0,-2.6083,-2.428,-2.3947,-2.4716,-2.4559,-2.4909,-2.552,-2.6418,-2.7482,-2.8551,-2.8763,-2.9535,-3.06,-3.1275,-3.1942,-3.2569,-3.3152,-3.3453,0.0,0.0,0.0,-3.3615,-3.4194,-3.3953,-3.3649,0.0,0.0,-3.5534,0.0,-3.6481,-3.6754,0.0,0.0,-3.7573,0.0,-3.6754,-3.6861,-3.6797,-3.6731,-3.7466,-3.9502,-4.0497,-4.1455,-4.2864,-4.3844,-4.4406,-4.4434,-4.4519,-4.4587,-4.4587,-4.4671,-4.4688,0.0,-4.4671,-4.4384,-4.3606,-4.4228,-4.4228,-4.3348,-4.4122,-4.4572,-4.4572,-4.3762,-4.3234,-4.3178,-4.3916,-4.529,-4.7091,-4.5682,-4.5406,-4.6012,-4.5223,-4.4874,-4.4929,-4.5736,-4.6471,-4.7131,-4.7241,-4.8159,-4.9481,-4.9881,-5.0171,-5.0688,0.0,0.0,0.0,0.0,0.0,0.0,0.0,0.0,0.0,0.0,0.0,0.0,0.0,0.0,0.0,-2.4853,-2.4753,-2.4758,-2.4754,-2.6216,-2.7461,-2.8368,-2.9333,-3.022,-3.0825,-3.155,-3.1545,-3.0956,-3.0174,0.0,0.0,-2.7872,-2.6999,0.0,0.0,-2.5027,-2.5444,-2.551,-2.5728,-2.6068,-2.6826,-2.7513,-2.8098,-2.845,-2.8882,-2.9277,-2.9662,-3.0089,-3.06,-3.0908,-3.1545,-3.2313,-3.3004,0.0,0.0,0.0,-3.3976,-3.4205,-3.4882,-3.5305,-3.5579,0.0,-3.6268,-3.6693,-3.6987,0.0,-3.7024,-3.6661,-3.6275,-3.6091,-3.6424,-3.6492,-3.7116,-3.8959,-3.9902,-4.068,-4.1432,-4.2557,-4.3149,-4.2726,-4.3047,-4.3301,-4.3301,-4.3301,-4.3301,0.0,-4.3301,-4.3149,-4.2811,-4.2844,-4.2828,-4.2638,-4.3068,-4.3464,-4.3739,-4.2777,-4.2704,-4.3663,-4.3864,-4.4867,-4.6397,-4.5241,-4.4892,-4.5186,-4.4378,-4.403,-4.4121,-4.5369,-4.6104,-4.6526,-4.7425,-4.8233,-4.8893,-4.9001,-4.9368,-4.9826,0.0,0.0,0.0,0.0,0.0,0.0,0.0,0.0,0.0,0.0,0.0,0.0,0.0,0.0,0.0,0.0,-2.4341,-2.4249,-2.4762,-2.5801,-2.6426,-2.6496,-2.8465,-2.9704,-2.9769,-3.1185,-3.1426,-3.0507,0.0,0.0,-2.926,-2.8436,-2.7723,0.0,-2.6654,-2.6409,0.0,-2.6638,-2.6773,-2.6798,-2.7188,-2.7375,-2.739,-2.767,-2.7795,-2.7867,-2.7865,-2.8296,-2.8798,-2.8857,-2.9665,-3.0802,-3.1647,-3.2377,0.0,0.0,0.0,-3.4872,0.0,0.0,-3.5549,-3.5714,-3.6176,-3.66,0.0,0.0,-3.6554,0.0,-3.5894,-3.5654,-3.6148,-3.6237,-3.6702,-3.7991,-3.8864,-3.9425,-3.9748,-4.0875,-4.1603,-4.1261,-4.1681,-4.2109,-4.2286,-4.2286,-4.2286,0.0,-4.2286,-4.2219,-4.2016,-4.176,-4.1623,-4.176,-4.176,-4.1948,-4.2359,-4.1591,-4.2053,-4.3687,-4.3441,-4.4132,-4.5571,-4.4764,-4.4397,-4.436,-4.3754,-4.3497,-4.3571,-4.48,-4.5406,-4.5736,-4.715,-4.781,-4.8049,-4.8471,-4.8893,-4.9205,0.0,0.0,0.0,0.0,0.0,0.0,0.0,0.0,0.0,0.0,0.0,0.0,-2.8274,-2.769,-2.6356,-2.4216,-2.3525,-2.3437,-2.4016,-2.4608,-2.5413,-2.6483,-2.7803,0.0,-2.9769,-3.0106,-3.0352,0.0,0.0,0.0,-2.9318,-2.8598,-2.8485,-2.8848,-2.8339,-2.7732,-2.7166,0.0,0.0,0.0,-2.6872,-2.6672,-2.6577,-2.5893,-2.6031,-2.657,-2.6502,-2.7273,-2.8264,-2.828,-2.8616,-2.9376,-3.0804,-3.1276,-3.1749,0.0,0.0,0.0,0.0,-3.5504,0.0,-3.6282,0.0,0.0,0.0,0.0,0.0,-3.5733,-3.5504,-3.5519,-3.5549,-3.5549,-3.5842,-3.6616,-3.7359,-3.809,-3.8841,-3.9645,-4.0394,-4.1123,-4.1229,-4.1544,-4.2233,-4.2286,-4.2286,0.0,-4.2286,-4.1982,-4.1288,-4.1476,-4.1152,-4.0236,-4.0219,-4.0236,-4.0253,-4.0172,-4.0934,-4.2475,-4.2076,-4.2911,-4.4745,-4.392,-4.3552,-4.3552,-4.3516,-4.3497,-4.3497,-4.3571,-4.4066,-4.4856,-4.57,-4.6489,-4.737,-4.8948,-4.904,-4.8526,0.0,0.0,0.0,0.0,0.0,0.0,0.0,0.0,0.0,0.0,0.0,0.0,0.0,-2.7189,-2.5831,-2.4166,-2.3477,-2.3165,-2.3427,-2.4305,-2.5229,-2.6181,-2.7902,-2.9242,-3.0092,-3.07,-3.0628,0.0,0.0,-2.9128,-2.8832,-2.9079,-2.9002,-2.871,-2.8397,-2.8349,-2.8479,-2.7861,0.0,0.0,0.0,0.0,0.0,0.0,0.0,0.0,0.0,0.0,-2.6492,-2.6102,-2.6984,-2.8392,-2.9449,-3.015,-3.0954,-3.2714,-3.3702,-3.4289,0.0,0.0,0.0,-3.5684,-3.5914,-3.5906,-3.5854,-3.5899,-3.5846,-3.5554,-3.5504,-3.5504,-3.5504,-3.5504,-3.5718,-3.6508,-3.6816,-3.7279,-3.8057,-3.8845,-3.9388,-3.9699,-4.0184,-4.0589,-4.0865,-4.0865,-4.0865,0.0,0.0,-4.0747,-4.0493,-4.0612,-4.046,-4.0087,-4.0087,-4.0087,-4.0087,-4.0849,-4.134,-4.1637,-4.2487,-4.3269,-4.392,-4.3626,-4.3497,-4.3497,-4.3497,-4.3497,-4.3534,-4.4066,-4.4452,-4.4782,-4.559,-4.6397,-4.7186,-4.7774,-4.8122,-4.8359,0.0,0.0,0.0,0.0,0.0,0.0,0.0,0.0,0.0,0.0,0.0,0.0,0.0,0.0,-2.5537,-2.4104,-2.364,-2.3502,-2.3629,-2.4569,-2.5447,-2.636,-2.8026,-2.938,-3.0269,-3.0674,-3.0447,0.0,0.0,0.0,0.0,-2.8934,-2.9009,-2.8518,-2.8437,-2.8677,0.0,0.0,0.0,-2.8414,0.0,0.0,-2.6294,0.0,0.0,0.0,0.0,0.0,-2.5792,-2.5244,-2.6083,-2.7528,-2.8628,-2.9953,-3.1234,-3.2217,-3.2971,-3.3623,-3.407,0.0,0.0,0.0,0.0,-3.5504,-3.5504,0.0,-3.5504,-3.5504,-3.5504,-3.5504,-3.5504,-3.5504,-3.5668,-3.6165,-3.6228,-3.6508,-3.7279,-3.7831,-3.8325,-3.8854,-3.9368,-3.9782,-4.007,-4.007,-4.007,0.0,0.0,0.0,-4.007,-4.007,-4.007,-4.007,-4.0118,-4.03,-4.0656,-4.1401,-4.186,-4.1973,-4.2847,-4.3339,-4.3497,-4.3497,-4.3497,-4.3497,-4.3497,-4.3497,-4.3534,-4.4085,-4.4305,-4.4378,-4.5186,-4.5993,-4.6709,-4.6709,-4.7256,-4.7955,0.0,0.0,0.0,0.0,0.0,0.0,0.0,0.0,0.0,-2.6892,0.0,0.0,0.0,0.0,0.0,-2.4129,-2.4017,-2.4255,-2.4795,-2.531,-2.5983,-2.6878,-2.8243,-2.9442,-3.0329,-2.9862,-2.9624,0.0,0.0,0.0,0.0,0.0,-2.8547,-2.838,-2.8557,-2.8599,-2.8636,0.0,-2.9204,-2.8455,0.0,-2.5828,-2.6179,0.0,0.0,0.0,-2.5048,-2.5514,0.0,-2.5816,0.0,0.0,0.0,-3.0658,-3.2458,-3.2458,-3.2904,-3.3456,0.0,0.0,0.0,0.0,0.0,0.0,-3.5504,0.0,-3.5504,-3.5504,-3.5504,-3.5504,-3.5504,-3.5504,-3.5504,-3.5504,-3.5504,-3.5782,-3.6492,-3.6661,-3.7247,-3.8728,-3.8908,-3.9262,-4.002,-4.007,-4.007,0.0,-4.007,-4.007,-4.007,-4.0121,-4.0104,-4.0087,-4.0083,-4.0649,-4.1864,-4.1842,-4.2394,-4.3496,-4.2967,-4.2976,-4.3497,-4.3497,-4.3497,-4.3497,-4.3497,-4.3497,-4.3497,-4.3497,-4.3497,-4.3571,-4.436,-4.5168,-4.5865,-4.5865,-4.6476,-4.7258,0.0,0.0,0.0,0.0,0.0,0.0,-2.8927,-2.8056,-2.7499,0.0,0.0,0.0,-2.7142,-2.5974,-2.4988,-2.4607,-2.4594,-2.4657,-2.4808,-2.531,-2.6284,-2.7783,-2.8622,-2.969,-3.1161,-3.1051,-3.0746,0.0,0.0,0.0,0.0,0.0,0.0,0.0,-2.9361,-2.919,-2.7904,-2.8062,0.0,-2.9088,-2.6457,-2.6019,0.0,0.0,0.0,0.0,0.0,-2.5278,-2.5832,0.0,-2.6427,-2.7728,0.0,-3.0792,-3.1762,-3.1762,-3.1895,-3.2161,-3.2622,0.0,0.0,0.0,0.0,0.0,0.0,0.0,0.0,-3.5504,-3.5504,-3.5504,-3.5504,-3.5504,-3.5504,-3.5504,-3.5943,-3.6399,-3.6554,-3.7584,-3.8398,-3.8854,-3.942,-3.985,-4.007,-4.007,-4.007,0.0,-4.007,-4.007,-4.007,-4.0109,-4.0083,-4.0085,-4.0079,-4.1025,-4.2996,-4.3018,-4.3195,-4.3496,-4.336,-4.3375,-4.3497,-4.3497,-4.3497,-4.3497,-4.3497,-4.3497,-4.3497,-4.3497,-4.3497,-4.3516,-4.3736,-4.4072,-4.4445,-4.4445,-4.5124,-4.6123,0.0,0.0,0.0,0.0,0.0,-3.0928,-2.991,-2.8758,-2.7878,0.0,0.0,0.0,-2.6427,-2.565,-2.5146,-2.5146,-2.5146,-2.5247,-2.5485,-2.5561,-2.6335,-2.7899,-2.8071,-2.9052,-3.0955,-3.1029,-3.082,0.0,0.0,0.0,0.0,0.0,0.0,0.0,0.0,0.0,0.0,0.0,0.0,0.0,-2.6816,0.0,0.0,-2.5259,-2.5164,0.0,0.0,0.0,-2.6296,-2.6071,-2.7022,0.0,0.0,0.0,0.0,0.0,0.0,-3.1968,-3.2028,-3.2796,-3.3589,0.0,0.0,0.0,-3.5504,-3.5504,-3.5504,0.0,-3.5504,-3.5504,-3.5504,-3.5504,-3.5504,-3.5504,-3.6117,-3.6722,-3.7024,-3.8117,-3.8908,-3.8908,-3.961,-3.9969,-3.961,-3.9901,-4.007,-4.007,-4.007,-4.0204,-4.0417,-4.0678,-4.0876,-4.1064,-4.1387,-4.2144,-4.3476,-4.348,-4.3506,-4.3488,-4.3503,-4.3497,-4.3497,-4.3497,-4.3497,-4.3497,-4.3497,-4.3375,-4.3178,-4.3178,-4.3178,-4.3178,-4.3178,-4.3462,-4.3876,-4.3422,-4.3985,-4.4947,0.0,0.0,-3.5295,-3.4607,-3.3659,-3.2492,-3.1029,-2.9456,-2.8179,0.0,-2.6804,-2.6332,-2.5749,-2.5686,-2.5686,-2.5686,-2.5686,-2.5912,-2.6496,-2.5975,-2.6302,-2.7644,-2.7248,-2.8012,-3.0254,-3.0329,-3.0411,0.0,0.0,0.0,0.0,0.0,0.0,0.0,0.0,0.0,0.0,0.0,0.0,-2.7255,-2.7272,-2.714,0.0,0.0,-2.6321,-2.7143,-2.6665,-2.6797,-2.7143,-2.6858,-2.7759,0.0,0.0,0.0,0.0,0.0,-3.1942,-3.2191,-3.1794,-3.2602,-3.3514,-3.3589,-3.4562,0.0,-3.5504,-3.5504,-3.5504,0.0,-3.5504,-3.5504,-3.5504,-3.5504,-3.5504,-3.5504,-3.6117,-3.6843,-3.7573,-3.8302,-3.8799,-3.8799,-3.9489,-3.9679,-3.8962,-3.961,-4.007,-4.007,-4.0171,-4.0449,-4.1024,-4.1603,-4.2061,-4.2531,-4.3138,-4.35,-4.35,-4.3505,-4.3497,-4.3497,-4.3497,-4.3408,-4.3318,-4.3373,-4.3338,-4.3321,-4.3321,-4.305,-4.2616,-4.2616,-4.2616,-4.2616,-4.2652,-4.3112,-4.3545,-4.2633,-4.2868,-4.3513,0.0,0.0,-3.5295,-3.4607,-3.3157,-3.1776,-3.0962,-2.9289,-2.7986,-2.7415,-2.6804,-2.6483,-2.637,-2.6289,-2.6289,-2.6289,-2.6289,-2.6339,-2.6521,-2.642,-2.6722,-2.767,-2.7631,-2.8434,-3.0269,-3.0329,-3.0645,0.0,0.0,0.0,0.0,0.0,0.0,0.0,0.0,0.0,0.0,0.0,0.0,-2.7131,-2.7632,-2.8103,-2.8373,-2.6904,-2.644,-2.6653,-2.6546,-2.6559,-2.6845,-2.8065,-2.8759,-2.9291,0.0,0.0,0.0,-3.2057,0.0,0.0,0.0,0.0,0.0,0.0,-3.4906,0.0,-3.5504,-3.5504,-3.5504,0.0,-3.5504,-3.5504,-3.5504,-3.5504,-3.5504,-3.5504,-3.6117,-3.6661,-3.6783,-3.7499,-3.8035,-3.8035,-3.8707,-3.9086,-3.8908,-3.961,-4.007,-4.007,-4.0497,-4.1126,-4.2065,-4.2243,-4.2605,-4.3269,-4.3395,-4.3503,-4.3503,-4.3499,-4.3497,-4.3497,-4.3497,-4.3031,-4.2136,-4.2463,-4.2415,-4.2144,-4.2144,-4.2062,-4.1979,-4.1979,-4.1979,-4.2015,-4.2323,-4.2184,-4.1719,-4.1527,-4.1212,-4.0881,0.0,-3.5504,-3.5385,-3.5055,-3.3432,-3.2124,-3.1751,-2.962,-2.8109,-2.8109,-2.7381,-2.6766,-2.6559,-2.6533,-2.6533,-2.6533,-2.6533,-2.6533,-2.6533,-2.6189,-2.6354,-2.7082,-2.6812,-2.7354,-2.8989,-2.9736,-3.0387,-3.0896,0.0,0.0,0.0,0.0,0.0,0.0,0.0,0.0,0.0,0.0,-2.8845,-2.7708,-2.8298,0.0,-2.7636,-2.6797,-2.6533,-2.6533,-2.6533,-2.6772,-2.728,-2.8585,-2.9484,0.0,-3.1187,-3.1732,-3.1998,0.0,-3.1752,-3.1664,0.0,0.0,0.0,-3.3499,0.0,0.0,0.0,-3.525,-3.5504,-3.5504,-3.5504,-3.5504,-3.5504,-3.5504,-3.5504,-3.5504,-3.5846,-3.6054,-3.6054,-3.7055,-3.7632,-3.7263,-3.823,-3.8745,-3.8414,-3.9385,-4.0204,-4.0497,-4.1331,-4.2044,-4.2528,-4.2304,-4.2376,-4.2892,-4.2252,-4.2032,-4.2304,-4.3103,-4.3511,-4.3521,-4.3521,-4.2504,-4.0742,-4.1479,-4.1586,-4.1286,-4.1633,-4.1621,-4.1358,-4.1358,-4.1178,-4.1019,-4.1593,-4.1319,-4.0648,-4.0648,-4.0404,-4.007,-3.5504,-3.5504,-3.5504,-3.5504,-3.3955,-3.2723,-3.2723,-3.0289,-2.8632,-2.8875,-2.7971,-2.7118,-2.6666,-2.6496,-2.6445,-2.6603,-2.6327,-2.6276,-2.6603,-2.5975,-2.5799,-2.6345,-2.595,-2.6302,-2.7499,-2.8847,-2.9806,-3.0329,0.0,0.0,0.0,0.0,0.0,0.0,0.0,0.0,0.0,0.0,0.0,-2.8253,0.0,-2.7954,-2.669,-2.6559,-2.6533,-2.6521,-2.6688,-2.7122,-2.7825,-2.8905,-3.0059,-3.1084,-3.1558,-3.2238,0.0,0.0,0.0,0.0,0.0,0.0,0.0,0.0,0.0,-3.5011,0.0,0.0,0.0,0.0,0.0,0.0,0.0,0.0,0.0,0.0,0.0,0.0,0.0,-3.6707,0.0,-3.6676,-3.7831,-3.8525,-3.8035,-3.9279,-4.0368,-4.1041,-4.1979,-4.2598,-4.2828,-4.2446,-4.2176,-4.2066,-4.1009,-4.0661,-4.1111,-4.2699,-4.3513,-4.3488,-4.2468,-4.0881,-3.8871,-3.9741,-4.0305,-4.0634,-4.1217,-4.1188,-4.0745,-4.0724,-4.0487,-4.0155,-4.0748,-4.06,-4.007,-4.007,-4.007,-4.007,-3.5504,-3.5504,-3.5504,-3.5504,-3.4171,-3.3021,-3.3021,-3.1291,-2.9688,-2.8988,-2.7971,-2.7256,-2.7193,-2.6302,-2.6101,-2.7105,-2.585,-2.5624,-2.7092,-2.6189,-2.5624,-2.5686,-2.6126,-2.6611,-2.6984,-2.7604,-2.8753,-3.0329,0.0,0.0,0.0,0.0,0.0,0.0,-2.925,0.0,0.0,0.0,-2.8305,0.0,-2.7878,-2.7712,0.0,-2.6784,-2.6533,-2.6577,-2.7327,-2.7602,-2.7952,0.0,-3.0257,-3.0645,0.0,-3.1664,-3.1142,-3.2791,0.0,0.0,0.0,0.0,0.0,0.0,-3.3559,0.0,0.0,0.0,-3.4756,-3.5385,0.0,0.0,0.0,0.0,0.0,0.0,0.0,0.0,-3.5504,-3.6228,-3.6722,-3.6615,-3.7381,-3.8149,-3.8745,-3.961,-4.0563,-4.1639,-4.1793,-4.235,-4.3369,-4.3361,-4.2665,-4.1295,-4.1079,-4.1024,-4.1111,-4.2699,-4.3506,-4.3451,-3.8747,-3.6348,-3.6062,-3.6182,-3.7676,-4.0156,-4.0271,-4.026,-4.0182,-4.0219,-4.0154,-4.0121,-4.0206,-4.0171,-4.007,-4.007,-4.007,-4.007,-3.5504,-3.5504,-3.5504,-3.5504,-3.4471,-3.3537,-3.3125,-3.1445,-2.9783,-2.856,-2.8323,-2.8109,-2.7795,-2.7344,-2.7118,-2.7268,-2.6653,-2.6402,0.0,-2.6666,-2.6578,-2.6578,-2.6804,-2.7025,-2.7114,-2.7523,-2.8298,-2.9566,-2.9654,0.0,0.0,0.0,0.0,0.0,-2.9152,0.0,-2.8627,0.0,-2.8553,0.0,0.0,0.0,0.0,-2.6533,-2.6784,-2.7191,-2.713,-2.7759,-2.8661,0.0,-2.9961,0.0,0.0,0.0,0.0,-3.1752,0.0,0.0,0.0,0.0,0.0,0.0,0.0,0.0,-3.3933,0.0,-3.516,0.0,0.0,0.0,0.0,0.0,0.0,0.0,-3.5504,0.0,0.0,0.0,-3.6615,0.0,0.0,0.0,-3.9542,0.0,0.0,-4.1223,-4.1578,-4.2115,-4.2817,-4.2262,-4.1685,-4.1105,-4.0203,-3.9698,-3.9698,-4.0365,-4.0715,-4.0648,-3.7238,-3.5606,-3.5602,-3.5626,-3.6273,-3.753,-3.8435,-3.9312,-4.0086,-4.0076,-4.0117,-4.0015,-3.9106,-3.8778,-3.8745,-3.8423,-3.8472,-3.8778,-3.5504,0.0,0.0,-3.5504,-3.4758,-3.3825,-3.2844,-3.1294,-2.9915,-2.8722,-2.8775,-2.8775,-2.8373,-2.8059,-2.7846,-2.7745,-2.7318,-2.7017,0.0,0.0,-2.708,-2.6628,-2.7042,-2.7067,-2.6615,-2.7092,-2.792,-2.9002,-2.9139,0.0,0.0,0.0,0.0,0.0,0.0,-2.9438,-2.9124,0.0,-2.8685,-2.8226,-2.7623,-2.6892,-2.6184,-2.6531,-2.7011,-2.7472,-2.7453,-2.8102,-2.8961,-2.8736,-2.9697,0.0,-2.9872,0.0,-3.1197,0.0,0.0,0.0,-3.0749,0.0,0.0,0.0,0.0,0.0,0.0,0.0,0.0,0.0,0.0,0.0,0.0,0.0,0.0,-3.5504,0.0,-3.6006,0.0,-3.6948,0.0,0.0,0.0,0.0,0.0,0.0,-4.0508,-4.0856,-4.1313,-4.1735,-4.221,-4.1492,-4.0633,-3.9633,-3.8443,-3.7839,-3.7844,-3.783,-3.7868,-3.7798,-3.5534,-3.4488,-3.4513,-3.5251,-3.558,-3.5688,-3.6769,-3.7472,-3.7789,-3.8553,-3.9347,-3.993,-3.7931,-3.7175,-3.7144,-3.706,-3.7329,-3.7822,-3.5504,-3.5504,0.0,-3.5504,-3.4951,-3.3868,-3.1916,-3.1076,-3.0368,0.0,0.0,0.0,0.0,0.0,0.0,0.0,0.0,-2.6929,-2.7984,0.0,-2.6578,-2.4971,-2.6427,-2.654,-2.4933,-2.5992,-2.7351,-2.9002,-2.8981,0.0,0.0,0.0,0.0,0.0,-2.9604,-2.9933,-3.035,-2.8742,-2.8422,-2.8844,-2.7169,-2.6987,-2.7605,0.0,-2.6917,-2.7227,-2.8684,0.0,0.0,-2.9262,-2.962,0.0,0.0,0.0,0.0,0.0,0.0,0.0,0.0,0.0,0.0,-3.0462,0.0,0.0,0.0,0.0,-3.4502,0.0,0.0,0.0,0.0,0.0,-3.5504,-3.5504,-3.6117,0.0,0.0,0.0,0.0,0.0,0.0,0.0,0.0,-3.8962,-3.951,-4.081,-4.0903,-4.1191,-4.181,-4.1797,-3.9939,-3.589,-3.5711,-3.5717,-3.5698,-3.5702,-3.5702,-3.5671,-3.2912,-3.1636,-3.1715,-3.442,-3.5605,-3.5605,-3.5653,-3.4187,-3.1989,-3.4601,-3.7388,-3.9811,-3.6776,-3.5554,-3.5688,-3.6679,-3.7329,-3.7921,0.0,0.0,0.0,0.0,-3.4637,-3.3853,0.0,-3.0905,0.0,0.0,-2.9942,0.0,0.0,-2.949,-2.934,0.0,0.0,-2.8138,-2.8342,-2.8324,0.0,-2.8105,-2.8286,-2.8033,-2.7271,-2.7125,-2.766,-2.9002,-2.8557,0.0,0.0,0.0,0.0,0.0,0.0,-2.9693,0.0,0.0,0.0,0.0,0.0,-2.6342,-2.704,0.0,-2.786,-2.8526,-2.8606,-2.8554,0.0,-2.7788,-2.7851,-2.8036,-2.7032,-2.7484,-2.8225,-2.7926,-2.8241,0.0,0.0,0.0,-3.0797,-3.1543,0.0,0.0,0.0,0.0,0.0,0.0,0.0,0.0,0.0,0.0,-3.5668,-3.6165,-3.6446,-3.6783,0.0,0.0,0.0,0.0,0.0,0.0,0.0,0.0,0.0,-3.9528,-3.9463,-3.9782,-4.0614,-4.0656,-3.9091,-3.5695,-3.3843,-3.2886,-3.2902,-3.2866,-3.2898,-3.2868,-3.1956,-3.1472,-3.1514,-3.2458,-3.2903,-3.2895,-3.2905,-3.3378,-3.4229,-3.5141,-3.6117,-3.6947,-3.5929,-3.5504,-3.5554,-3.59,-3.6089,-3.6492,-3.5504,-3.5504,0.0,0.0,0.0,0.0,0.0,0.0,0.0,0.0,-3.0394,0.0,-3.0118,0.0,-3.0173,0.0,-2.9704,-2.9723,-2.9711,-3.0013,0.0,-2.9573,-2.9595,-2.9021,0.0,-2.7782,-2.8153,-2.9013,0.0,-2.9401,0.0,0.0,0.0,0.0,0.0,-2.9729,-2.9833,-2.8799,-2.8581,0.0,0.0,-2.6414,0.0,0.0,-2.7911,-2.8126,0.0,-2.7545,-2.7333,-2.6385,-2.6403,-2.6523,-2.5363,-2.5952,-2.6976,-2.6507,-2.7237,-2.8405,-2.9157,-2.9995,0.0,-3.1558,-3.2287,0.0,-3.3095,0.0,-3.4412,0.0,0.0,0.0,0.0,0.0,0.0,-3.6102,-3.6446,-3.6843,0.0,-3.7573,0.0,0.0,-3.704,-3.7286,0.0,-3.723,-3.7575,-3.8117,-3.8406,-3.8783,0.0,0.0,-3.8286,-3.4263,-3.2444,-3.1504,-3.1474,-3.1517,-3.1514,-3.1519,-3.142,-3.1418,-3.1495,-3.0546,-3.0639,-3.1527,-3.2497,-3.3893,-3.5477,-3.5501,-3.5533,-3.5504,-3.5504,-3.5504,-3.5504,-3.5504,-3.5861,-3.6554,-3.5504,-3.5504,0.0,0.0,-3.4113,0.0,0.0,0.0,-3.0853,0.0,-3.0633,-3.0645,-3.062,-3.0143,-3.0241,-3.1106,-3.118,-3.1355,-3.182,-3.2346,0.0,0.0,-3.0256,-2.9602,-2.7072,0.0,-2.8705,-2.9043,0.0,0.0,0.0,0.0,0.0,0.0,-2.9833,0.0,-3.0381,-2.9407,-2.8934,-2.8736,-2.7143,-2.6929,-2.7623,-2.761,-2.6959,-2.6208,-2.6366,-2.6003,-2.5386,-2.5342,-2.537,-2.5222,-2.4461,-2.4627,-2.503,-2.486,-2.5782,-2.6985,-2.7588,-2.9422,-3.1013,-3.0548,0.0,0.0,0.0,0.0,-3.4203,0.0,0.0,0.0,0.0,0.0,0.0,-3.5569,-3.6165,-3.6843,-3.7632,-3.704,-3.6554,-3.6554,-3.6492,-3.6213,-3.5641,-3.6135,-3.6513,-3.6757,-3.7792,-3.8261,0.0,0.0,-3.7359,-3.186,-3.1566,-3.1513,-3.1522,-3.1521,-3.1579,-3.1683,-3.1244,-3.109,-3.1233,-2.9001,-2.9377,-3.1827,-3.4375,-3.5516,-3.5498,-3.5514,-3.5504,-3.5504,-3.5504,-3.5504,-3.5504,-3.5504,-3.6492,-3.8014,-3.5504,-3.5504,-3.5279,0.0,-3.3022,-3.1695,0.0,0.0,0.0,0.0,-3.0947,-3.1047,-3.0658,-3.0495,-3.0584,-3.1145,-3.118,0.0,0.0,0.0,0.0,-3.1628,-3.0906,-2.9847,-2.8493,-2.8959,-2.9443,-2.9776,0.0,0.0,-3.2176,0.0,0.0,0.0,0.0,0.0,-2.977,-2.867,-2.7824,-2.713,-2.6665,-2.6653,-2.669,0.0,-2.5635,-2.587,-2.6671,-2.6321,-2.5314,-2.4791,-2.4599,-2.4455,-2.3644,-2.3824,-2.4367,-2.4892,-2.5588,-2.6566,-2.836,-2.9358,-3.0148,-3.1574,-3.1959,-3.2123,0.0,0.0,0.0,0.0,0.0,0.0,0.0,0.0,0.0,-3.6228,-3.6508,-3.6661,-3.6843,0.0,0.0,-3.5782,-3.4891,-3.4604,-3.545,-3.4742,-3.4953,-3.6529,-3.65,-3.6794,-3.7732,0.0,0.0,-3.4498,-3.2553,-3.1515,-3.1495,-3.1489,-3.2505,-3.4494,-3.0426,-2.8552,-2.8727,-3.1989,-3.3833,-3.4501,-3.5182,-3.551,-3.5529,-3.5474,-3.5504,-3.5504,-3.5504,-3.5504,-3.5504,-3.5504,-3.6492,-3.7934,-3.4259,-3.4259,0.0,-3.2961,0.0,0.0,-3.1101,-3.0778,0.0,-3.0922,-3.121,0.0,-3.067,-3.062,-3.0893,-3.1723,-3.1815,0.0,-3.4061,0.0,0.0,-3.3363,-3.2327,-3.1062,-2.9481,-2.9536,0.0,-3.0014,-3.0411,0.0,-3.2443,0.0,0.0,0.0,0.0,-2.8643,-2.8886,-2.8166,-2.7366,-2.6533,-2.6533,-2.6533,0.0,-2.5505,-2.5172,-2.5304,-2.5679,-2.5376,-2.4713,-2.3995,-2.3759,-2.3683,-2.3242,-2.3764,-2.4541,-2.5002,-2.5953,-2.7212,-2.849,-2.9171,-2.9776,-3.1273,-3.1345,-3.1345,-3.2302,-3.2512,-3.2512,0.0,-3.3559,-3.4307,0.0,0.0,0.0,0.0,0.0,0.0,0.0,0.0,0.0,0.0,-3.4831,-3.4681,-3.5429,-3.3743,-3.3478,-3.5507,-3.5595,-3.5907,-3.6779,0.0,0.0,-3.5489,-3.4082,-3.3286,-3.3297,-3.3272,-3.2877,-3.2049,-2.9009,-2.8222,-2.9363,-3.1882,-3.3936,-3.551,-3.5509,-3.5469,-3.5504,-3.5504,-3.5504,-3.5504,-3.5504,-3.5778,-3.6176,-3.6176,-3.6831,-3.7976,-3.2874,-3.2803,0.0,0.0,0.0,0.0,0.0,-3.1498,0.0,-3.1449,0.0,-3.1298,-3.0771,-3.0658,-3.1113,-3.2304,-3.2522,-3.3394,-3.5213,-3.5439,-3.519,-3.4502,-3.3716,-3.2271,-3.0044,-2.9838,-2.9777,-2.9807,-2.9966,-3.0693,-3.2131,0.0,0.0,0.0,0.0,0.0,0.0,-2.7736,-2.7169,-2.6414,-2.6452,-2.6533,-2.6427,-2.5741,-2.5277,-2.4806,-2.4115,-2.3894,-2.379,-2.3273,-2.3078,-2.3078,-2.3078,-2.3987,-2.5005,-2.5134,-2.6558,-2.8112,-2.8283,-2.8891,-2.9609,-3.0223,-3.0369,-3.069,-3.1973,-3.2258,-3.2273,-3.2362,-3.3365,-3.3873,0.0,0.0,0.0,0.0,0.0,0.0,0.0,0.0,0.0,0.0,0.0,0.0,-3.5474,-3.326,-3.2631,-3.463,-3.488,-3.511,-3.5507,0.0,0.0,-3.6079,-3.6182,-3.6198,-3.619,0.0,-3.2742,-2.8081,-2.8095,-2.9223,-3.1242,-3.0512,-3.1988,-3.5126,-3.5369,-3.5481,-3.5504,-3.5504,-3.5504,-3.5504,-3.5504,-3.6143,-3.7079,-3.7202,-3.7654,-3.8389,-3.4328,0.0,0.0,0.0,0.0,-3.3573,-3.3957,-3.3193,-3.2503,-3.2114,-3.2064,-3.1863,-3.1311,-3.0871,-3.0815,-3.1381,-3.2177,0.0,0.0,0.0,0.0,-3.4502,-3.2976,-3.1436,-3.0058,-2.9727,-2.9342,-2.8955,-3.0266,-3.0799,-3.0454,0.0,0.0,0.0,0.0,0.0,-2.7126,-2.7524,0.0,-2.5834,-2.6308,-2.6533,-2.6414,-2.5375,-2.5174,-2.5248,-2.3801,-2.3267,-2.3248,-2.315,-2.3078,-2.3078,-2.3078,-2.3692,-2.457,-2.5177,-2.6017,-2.706,-2.8253,-2.8688,-2.8946,-2.9587,-2.978,-2.9982,-3.066,-3.0851,-3.1016,-3.1584,-3.2317,-3.2781,-3.2557,0.0,0.0,0.0,0.0,0.0,0.0,0.0,0.0,0.0,0.0,-3.3694,0.0,-3.4083,-3.403,-3.6091,-3.3742,-3.3193,-3.5381,0.0,0.0,0.0,-3.9292,0.0,0.0,0.0,-3.1772,-3.0837,-3.0831,-3.0569,-3.0168,-3.1461,-3.2482,-3.3225,-3.478,-3.5514,-3.5504,-3.5504,-3.5504,-3.5504,-3.5504,-3.6371,-3.7686,-3.8344,-3.9408,-4.0557,-3.3717,0.0,0.0,0.0,0.0,0.0,0.0,-3.4476,-3.3985,-3.3178,-3.2269,-3.1587,-3.1047,-3.0758,-3.0749,-3.1158,-3.1609,-3.2249,-3.3241,-3.3754,-3.3768,-3.312,-3.219,-3.0925,-2.9334,-2.9118,-2.9059,-2.9114,-2.9268,-2.9756,-3.0396,0.0,0.0,0.0,0.0,-2.6559,0.0,0.0,0.0,-2.5635,-2.6296,-2.6533,-2.6414,-2.5257,-2.4956,-2.4983,-2.358,-2.3078,-2.3163,-2.358,-2.3457,-2.3163,-2.358,-2.4223,-2.4951,-2.5289,-2.6205,-2.7199,-2.7906,-2.8062,-2.8253,-2.8915,-2.9094,-2.9247,-2.9909,-3.0028,-3.0208,-3.0866,-3.1539,-3.2213,-3.2901,-3.3275,0.0,0.0,0.0,0.0,0.0,0.0,-3.3844,0.0,0.0,0.0,0.0,0.0,0.0,0.0,0.0,-3.3535,-3.5371,0.0,0.0,0.0,0.0,0.0,0.0,0.0,0.0,-3.0623,-3.0622,-3.0363,-2.9833,-3.0756,-3.2264,-3.4138,-3.4403,-3.4912,-3.5534,-3.5878,-3.5804,-3.5599,-3.6338,-3.7095,-3.7844,-3.8633,-3.961,-4.0645,-3.3357,-3.2922,0.0,0.0,-3.5379,-3.5151,-3.5075,-3.5213,-3.4884,-3.3587,-3.2375,-3.1323,-3.0683,-3.062,-3.0671,-3.0885,-3.1106,-3.1536,-3.2249,-3.2464,-3.2331,-3.1792,-3.1501,-3.0526,-2.8743,-2.8326,-2.8242,-2.8641,-2.7893,-2.8266,0.0,-2.8478,0.0,0.0,0.0,0.0,0.0,0.0,-2.5626,-2.5635,-2.6296,-2.6427,-2.6202,-2.5176,-2.4738,-2.452,-2.347,-2.3078,-2.3248,-2.4013,-2.3739,-2.3186,-2.3833,-2.4546,-2.5189,-2.537,-2.6329,-2.7405,-2.7545,-2.7625,-2.775,-2.8268,-2.8372,-2.8532,-2.9252,-2.9387,-2.9627,-3.0342,-3.1046,-3.1898,-3.3066,-3.317,0.0,0.0,0.0,0.0,0.0,0.0,-3.3245,0.0,0.0,0.0,-3.3577,0.0,0.0,0.0,0.0,-3.4718,-3.5925,-3.7965,-3.8142,0.0,0.0,-3.3577,-3.1898,0.0,-3.2755,-2.9789,-2.9797,-2.9817,-2.9843,-3.0671,-3.2621,-3.5424,-3.4428,-3.4589,-3.5549,-3.6073,-3.5968,-3.5614,-3.6921,-3.7744,-3.8338,-3.893,-3.9871,-4.0832,0.0,0.0,0.0,0.0,0.0,-3.4994,-3.5842,-3.5264,-3.4188,-3.2528,-3.2248,-3.175,-3.0721,-3.062,-3.0394,-2.9984,-3.0696,-3.1254,-3.1315,-3.2105,-3.2331,-3.1792,-3.0966,-2.9936,-2.8756,-2.7374,-2.6427,-2.5965,-2.6621,-2.6689,0.0,0.0,0.0,0.0,0.0,0.0,0.0,-2.5387,-2.5626,-2.5635,-2.6296,-2.6189,-2.5623,-2.5046,-2.4508,-2.3987,-2.3346,-2.3078,-2.3248,-2.4013,-2.3742,-2.3094,-2.316,-2.3777,-2.4531,-2.518,-2.5988,-2.6781,-2.7419,-2.7625,-2.764,-2.767,-2.77,-2.7885,-2.8561,-2.8703,-2.9025,-3.0248,-3.1046,-3.1691,-3.2482,-3.2123,-3.2108,0.0,0.0,0.0,0.0,0.0,-3.3245,-3.2587,0.0,0.0,-3.4181,-3.5629,0.0,0.0,-3.5385,-3.6004,-3.7585,-3.6552,-3.6209,-3.6947,0.0,-3.2912,-3.3068,-3.1212,-3.0138,-2.9818,-2.9809,-2.9822,-2.9956,-3.3354,-3.5161,-3.5507,-3.5355,-3.5409,-3.5504,-3.5564,-3.5564,-3.5569,-3.6399,-3.7946,-3.9838,-3.9919,-4.1288,-4.2929,0.0,0.0,0.0,0.0,0.0,0.0,0.0,-3.5205,-3.4005,-3.1991,-3.1725,-3.1562,-3.1135,-3.0507,-3.003,-2.9817,-3.0139,-3.0343,-3.0343,-3.0709,-3.0503,-2.9633,-2.9525,-2.8805,-2.74,-2.6772,-2.6362,0.0,0.0,0.0,0.0,0.0,0.0,0.0,0.0,-2.4972,-2.4823,-2.5014,-2.5157,-2.5152,-2.5387,-2.5375,-2.5042,-2.4524,-2.4216,-2.3901,-2.3346,-2.3078,-2.315,-2.347,-2.3392,-2.3202,-2.3667,-2.4013,-2.4339,-2.4624,-2.5593,-2.6562,-2.684,-2.7265,-2.7625,-2.7625,-2.7625,-2.767,-2.7921,-2.8017,-2.8252,-2.9146,-2.9894,-3.0552,-3.1195,-3.1435,-3.1704,0.0,0.0,0.0,0.0,0.0,0.0,-3.1345,0.0,-3.1543,-3.2467,-3.1872,0.0,0.0,0.0,-3.7714,-3.6518,-3.5096,-3.4556,-3.4983,0.0,-3.2582,-3.2304,-3.0664,-3.04,-3.1447,-3.0342,-3.1017,-3.3283,-3.4839,-3.551,-3.551,-3.5514,-3.5504,-3.5534,-3.5923,-3.6144,-3.6258,-3.7433,-3.8494,-3.9446,-4.0434,-4.1348,-4.2016,-3.5948,0.0,-3.5116,0.0,-3.6163,-3.5379,-3.5142,-3.464,-3.3591,-3.1833,-3.1486,-3.1273,-3.0947,-3.0244,-2.9792,-2.9792,-2.9792,-2.9792,-2.9792,-2.9792,-2.9365,-2.8386,-2.8561,0.0,-2.6559,-2.6138,-2.5899,-2.5769,-2.5767,0.0,0.0,0.0,0.0,0.0,-2.4617,-2.4571,-2.4558,-2.4554,-2.4694,-2.4801,-2.4801,-2.4698,-2.4526,-2.4151,-2.3888,-2.3679,-2.3261,-2.3078,-2.3078,-2.3078,-2.3078,-2.3175,-2.3777,-2.3974,-2.3987,-2.421,-2.5195,-2.6218,-2.6469,-2.7045,-2.7625,-2.7625,-2.7625,-2.7625,-2.7625,-2.7625,-2.7769,-2.8457,-2.9131,-2.9714,-3.0148,-3.0627,-3.1091,-3.1422,0.0,0.0,0.0,-3.124,0.0,-3.0798,-3.0347,-3.0423,-3.1425,-3.0544,0.0,0.0,0.0,-3.7632,-3.507,-3.4419,-3.4094,0.0,0.0,0.0,-3.2413,-3.1018,-3.1009,-3.2312,-3.1748,-3.2903,-3.5521,-3.5524,-3.5489,-3.5504,-3.5504,-3.5504,-3.5534,-3.623,-3.6545,-3.6799,-3.8515,-3.9178,-3.9412,-4.0707,-4.1204,-4.117,-3.594,-3.5454,-3.4713,-3.4726,-3.4261,-3.3897,-3.3897,-3.3432,-3.2867,-3.2277,-3.1725,-3.0984,-2.993,-2.9804,-2.9792,-2.9792,-2.9792,-2.9792,-2.9792,-2.9792,-2.9528,0.0,0.0,-2.7595,-2.6546,-2.5398,-2.4555,-2.4041,0.0,0.0,-2.4062,0.0,-2.4797,-2.4784,-2.4223,-2.4028,-2.402,-2.4032,-2.4312,-2.4797,-2.4797,-2.4473,-2.4026,-2.4,-2.3653,-2.3138,-2.3078,-2.3078,-2.3078,-2.3078,-2.3078,-2.3078,-2.3138,-2.3138,-2.3261,-2.4086,-2.4831,-2.5544,-2.6312,-2.7045,-2.7625,-2.7625,-2.7625,-2.7625,-2.7625,-2.7625,-2.7769,-2.8457,-2.9131,-2.9579,-2.9594,-2.9609,-3.0028,-3.133,0.0,0.0,0.0,-3.1943,0.0,-3.1471,-3.2226,-3.2393,-3.1566,-3.3879,0.0,0.0,0.0,0.0,0.0,0.0,0.0,-3.4527,-3.4174,0.0,-3.3959,-3.2458,-3.167,-3.1755,-3.4249,-3.5453,-3.5521,-3.5532,-3.5504,-3.5504,-3.5504,-3.5504,-3.5554,-3.629,-3.6615,-3.6845,-3.9154,-4.0084,-4.0194,-4.0908,-4.1204,-4.1102,-3.5035,-3.4667,-3.4161,-3.4161,-3.401,-3.3646,-3.2867,-3.2604,-3.2152,-3.1248,-3.0972,-3.0595,-2.9867,-2.9792,-2.9792,0.0,-2.9792,-2.9792,0.0,-2.9792,-2.9528,-2.895,-2.8398,-2.777,-2.703,-2.5573,-2.4734,-2.4558,0.0,0.0,0.0,-2.4896,-2.4594,-2.4223,-2.4086,-2.3974,-2.3991,-2.3991,-2.4115,-2.421,-2.379,-2.3555,-2.3371,-2.3371,-2.3261,-2.3078,-2.3078,-2.3078,-2.3078,-2.3078,-2.3078,-2.3078,-2.3078,-2.3078,-2.315,-2.3384,-2.4408,-2.5445,-2.5669,-2.6672,-2.7625,-2.7625,-2.7625,-2.7625,-2.7625,-2.7625,-2.7685,-2.7859,-2.8442,-2.8906,-2.8906,-2.9624,-3.0342,-3.0761,-3.1046,0.0,-3.1779,0.0,-3.0971,-3.1429,-3.1762,-3.1794,-3.1549,-3.0646,0.0,0.0,0.0,0.0,0.0,0.0,0.0,0.0,-3.3456,0.0,-3.3017,-3.2581,-3.2596,-3.3308,-3.3905,-3.4689,-3.5532,-3.5514,-3.5504,-3.5504,-3.5504,-3.5782,-3.6275,-3.6492,-3.7247,-3.8246,-3.9007,-3.9628,-4.0202,-4.0897,-4.1204,-4.117,-3.4349,-3.4135,-3.3834,-3.3621,-3.3583,-3.3282,-3.2353,-3.2215,-3.1825,-3.0758,-3.062,-3.0407,-2.9854,-2.9792,0.0,-2.9792,-2.9792,-2.9792,-2.9792,-2.9792,-2.9528,-2.895,-2.8398,-2.7645,-2.6666,-2.5448,0.0,-2.4153,-2.4131,-2.4434,-2.5009,-2.4418,-2.4067,-2.3987,-2.3777,-2.3666,-2.3666,-2.3666,-2.3666,-2.3653,-2.3261,-2.3078,-2.3078,-2.3078,-2.3078,-2.3078,-2.3078,-2.3078,-2.3078,-2.3078,-2.3078,-2.3078,-2.3078,-2.3078,-2.3078,-2.3078,-2.4197,-2.5432,-2.5408,-2.6468,-2.7625,-2.7625,-2.7625,-2.7625,-2.7625,-2.7793,-2.798,-2.7979,-2.8502,-2.8966,-2.8966,-2.9624,-3.0238,-3.0462,-3.0866,-3.124,-3.1437,0.0,-3.0743,0.0,0.0,0.0,0.0,-2.9988,-3.0172,0.0,0.0,0.0,0.0,0.0,0.0,-3.3594,-3.3857,0.0,-3.3685,-3.3685,-3.3973,-3.4543,-3.4374,-3.4751,-3.5504,-3.5504,-3.5504,-3.5504,-3.5782,-3.6165,-3.6661,-3.7231,-3.8044,-3.8941,-3.9561,-3.9914,-4.0172,-4.0933,-4.1018,-4.0781,-3.3847,-3.3847,-3.3671,0.0,-3.3018,0.0,-3.2202,-3.2102,-3.1738,-3.0696,-3.0557,-3.0357,-2.9842,-2.9792,-2.9792,-2.9792,0.0,0.0,0.0,-2.9729,-2.9478,-2.89,-2.8348,-2.7306,-2.5749,-2.5121,-2.4268,-2.3078,-2.3078,-2.3384,-2.4013,-2.3394,-2.34,-2.3987,-2.3371,-2.3078,-2.3078,-2.3078,-2.3078,-2.3078,-2.3078,-2.3078,-2.3078,-2.3078,-2.3078,-2.3078,-2.3078,-2.3078,-2.3078,-2.3078,-2.3078,-2.3078,-2.3078,-2.3078,-2.3078,-2.3078,-2.4197,-2.5432,-2.5408,-2.6468,-2.7625,-2.7625,-2.7625,-2.7625,-2.7625,-2.8107,-2.8512,-2.8502,-2.9101,-2.9564,-2.952,-2.9624,-2.9894,-3.0417,-3.0552,-3.0776,-3.1375,-3.0941,-3.0791,0.0,0.0,0.0,0.0,-3.1531,-3.2631,0.0,0.0,0.0,0.0,0.0,-3.3932,-3.4472,-3.5145,-3.5504,-3.5504,-3.5504,-3.5504,-3.5504,-3.5504,-3.5504,-3.5554,-3.5554,-3.5619,-3.5668,-3.6399,-3.6722,-3.6888,-3.8342,-3.8908,-3.9152,-4.0555,-4.0696,-4.0155,-4.0865,-4.0679,-4.007,0.0,0.0,-3.3093,-3.2516,-3.2416,-3.2102,-3.1135,-3.0997,-3.0758,-3.008,-2.9993,-2.9942,-2.9804,-2.9792,-2.9792,-2.9792,-2.9792,-2.9603,-2.9164,-2.9139,-2.8888,-2.8323,-2.777,-2.7293,-2.6892,-2.5523,-2.4268,-2.3078,-2.3078,-2.3384,-2.4,-2.338,-2.3429,-2.3987,-2.3371,-2.3078,-2.3078,-2.3078,-2.3078,-2.3078,-2.3078,-2.3078,-2.3078,-2.3078,-2.3078,-2.3078,-2.3078,-2.3078,-2.3078,-2.3078,-2.3078,-2.3078,-2.3078,-2.3078,-2.3078,-2.3078,-2.4197,-2.5432,-2.5408,-2.6468,-2.7625,-2.7625,-2.7625,-2.7625,-2.7625,-2.7739,-2.7824,-2.7823,-2.8791,-2.943,-2.8921,-3.0058,-3.0941,-3.0567,-3.0941,-3.1165,-3.0806,-3.1061,-3.1309,0.0,-3.011,-2.9781,-3.1369,-3.1485,-3.2586,0.0,0.0,0.0,0.0,-3.5185,-3.4867,-3.4487,-3.5145,-3.5504,-3.5504,-3.5504,-3.5504,-3.5504,-3.5504,-3.5767,-3.6337,-3.6337,-3.6692,-3.7235,-3.7456,-3.7847,-3.8381,-3.8745,-3.9262,-3.985,-4.0223,-4.024,-4.0104,-4.0273,-4.024,-4.007,-3.3131,-3.2867,-3.2591,-3.2265,-3.2001,-3.1562,-3.0746,-3.062,-3.0419,-2.9867,-2.9792,-2.9792,-2.9792,-2.9792,-2.9691,-2.9415,-2.9641,-2.9553,-2.8963,-2.8925,-2.8561,-2.777,-2.7205,-2.6666,-2.6176,-2.5034,-2.4017,-2.3078,-2.3078,-2.3261,-2.358,-2.3261,-2.3261,-2.3568,-2.3261,-2.3078,-2.3078,-2.3078,-2.3078,-2.3078,-2.3078,-2.3078,-2.3078,-2.3078,-2.3078,-2.3078,-2.3078,-2.3078,-2.3078,-2.3078,-2.3078,-2.3078,-2.3078,-2.3078,-2.3078,-2.3078,-2.3974,-2.4997,-2.5313,-2.6235,-2.717,-2.753,-2.7625,-2.7625,-2.7625,-2.7861,-2.8041,-2.8047,-2.9077,-2.9894,-2.9535,-3.0597,-3.1347,-3.1031,-3.1031,-3.1046,-3.0986,-3.0776,-3.087,-3.1424,-3.0904,-3.0765,-3.1399,-3.1483,-3.2109,-3.3578,-3.3464,0.0,-3.5412,-3.5488,-3.5325,-3.4966,-3.531,-3.5504,-3.5504,-3.5504,-3.5668,-3.6006,-3.6006,-3.6399,-3.716,-3.716,-3.7397,-3.7822,-3.8149,-3.8525,-3.8908,-3.9315,-3.9731,-4.007,-4.007,-4.007,-4.007,-4.007,-4.007,-4.007,-3.2842,-3.2428,-3.2064,-3.1989,-3.1587,-3.1097,-3.057,-3.0495,-3.0319,-2.9854,-2.9792,-2.9792,-2.9792,-2.9792,-2.9566,-2.8976,-2.9377,-2.9377,-2.8725,-2.8687,-2.8222,-2.7205,-2.6628,-2.5887,-2.4958,-2.4318,-2.3715,-2.3078,-2.304,-2.304,-2.3078,-2.304,-2.304,-2.3078,-2.3078,-2.3078,-2.3078,-2.3078,-2.3078,-2.3078,-2.3078,-2.3078,-2.3078,-2.3078,-2.3078,-2.3078,-2.3078,-2.3078,-2.3078,-2.3078,-2.3078,-2.3078,-2.3078,-2.3078,-2.3078,-2.3078,-2.3679,-2.4478,-2.5184,-2.6025,-2.6811,-2.7419,-2.7625,-2.764,-2.775,-2.8127,-2.8485,-2.8697,-2.9629,-3.0413,-3.0477,-3.1061,-3.1511,-3.1601,-3.1106,-3.0821,-3.13,0.0,-3.0228,-3.1127,-3.1369,-3.1505,-3.1505,-3.1468,-3.1516,-3.1516,-3.3985,-3.5508,-3.5499,-3.5919,-3.5993,-3.5514,-3.5524,-3.5504,-3.5504,-3.5619,-3.6006,-3.6615,-3.6722,-3.7203,-3.7978,-3.7978,-3.8035,-3.8206,-3.8816,-3.9086,-3.9139,-3.9833,-4.007,-4.007,-4.007,-4.007,-4.007,-4.007,-4.007,-4.007,-3.1738,-3.1587,-3.1373,-3.0934,-3.0796,-3.0557,-3.0005,-2.9917,-2.9892,-2.9804,-2.9792,-2.9792,-2.9792,-2.9792,-2.9566,-2.8976,-2.9013,-2.8637,-2.7607,-2.7544,-2.7256,-2.6615,-2.6038,-2.5649,-2.5473,-2.4506,-2.3715,-2.3078,-2.265,-2.265,-2.3065,-2.265,-2.2662,-2.3078,-2.3078,-2.3078,-2.3078,-2.3078,-2.3078,-2.3078,-2.3078,-2.3078,-2.3078,-2.3078,-2.3078,-2.3078,-2.3078,-2.3078,-2.3078,-2.3078,-2.3078,-2.3078,-2.3078,-2.3078,-2.3078,-2.3078,-2.3679,-2.4439,-2.5189,-2.6387,-2.7434,-2.756,-2.7625,-2.7765,-2.8299,-2.8112,-2.8081,-2.9237,-2.9576,-2.99,-3.0428,-3.1061,-3.1719,-3.2273,-3.1809,-3.121,-3.0731,0.0,-3.0881,-2.9978,-3.0848,-3.1522,-3.1522,-3.1482,-3.1483,-3.1483,-3.3974,-3.5517,-3.5498,-3.7973,-3.8184,-3.5615,-3.5522,-3.5504,-3.5504,-3.6117,-3.6508,-3.6615,-3.7279,-3.8019,-3.8745,-3.8745,-3.9102,-3.9731,-3.985,-3.9901,-3.9901,-4.007,-4.007,-4.007,-4.007,-4.007,-4.007,-4.007,-4.007,-4.007,-3.1436,-3.1173,-3.0896,-3.0658,-3.0369,-3.0093,-2.9829,-2.9792,-2.9792,-2.9792,-2.9792,-2.9792,-2.9792,-2.9792,-2.944,-2.8561,-2.8486,-2.8009,-2.6917,-2.7118,-2.6904,-2.6038,-2.5473,-2.4895,-2.428,-2.3791,-2.3401,-2.3078,-2.2857,-2.2849,-2.3077,-2.2862,-2.2857,-2.3078,-2.3078,-2.3078,-2.3078,-2.3078,-2.3078,-2.3078,-2.3078,-2.3078,-2.3078,-2.3078,-2.2942,-2.2735,-2.2967,-2.2942,-2.2735,-2.2967,-2.3078,-2.3078,-2.3078,-2.3078,-2.3078,-2.3078,-2.3943,-2.5022,-2.5802,-2.7011,-2.8047,-2.7679,-2.7876,-2.8142,-2.8047,-2.8112,-2.8297,-2.891,-2.9594,-3.0177,-3.0432,-3.1061,-3.1691,-3.2407,-3.1644,0.0,0.0,-3.0956,-3.0522,-3.0627,-3.0559,-3.0741,-3.1422,-3.1528,-3.1483,-3.1509,-3.5502,-3.7963,-3.7976,-3.9326,-3.8681,-3.5615,-3.5477,-3.5668,-3.6117,-3.6446,-3.7008,-3.7815,-3.8246,-3.8816,-3.9542,-3.9542,-3.9731,-4.007,-4.007,-4.007,-4.007,-4.007,-4.007,-4.007,-4.007,-4.007,-4.007,-4.007,-4.007,-4.007,-3.1047,-3.0696,-3.0419,-3.0419,-3.0068,-2.9792,-2.9792,-2.9792,-2.9792,-2.9792,-2.9792,-2.9792,-2.9792,-2.9534,-2.8919,-2.7878,-2.7558,-2.6944,-2.5865,-2.6297,-2.6295,-2.5636,-2.4971,-2.4155,-2.3103,-2.3078,-2.3078,-2.3078,-2.2967,-2.3001,-2.3088,-2.2968,-2.2967,-2.3078,-2.3078,-2.3078,-2.3078,-2.3078,-2.3078,-2.3078,-2.3078,-2.3078,-2.3078,-2.3078,-2.2845,-2.2563,-2.2959,-2.282,-2.2552,-2.2955,-2.3078,-2.3078,-2.3078,-2.3078,-2.3078,-2.3078,-2.4173,-2.5593,-2.6484,-2.755,-2.8263,-2.7919,-2.8122,-2.8364,-2.8283,-2.8414,-2.8748,-2.9198,-2.9922,-3.0582,-3.0717,-3.118,-3.1691,-3.2407,0.0,0.0,0.0,-3.0986,-3.0357,-3.1195,-3.0514,-3.0421,-3.1399,-3.1485,-3.1789,-3.243,-3.718,-4.0106,-4.0115,-3.9429,-3.7949,-3.5536,-3.5649,-3.6054,-3.66,-3.6948,-3.7758,-3.8908,-3.9086,-3.9489,-4.007,-4.007,-4.007,-4.007,-4.007,-4.007,-4.007,-4.007,-4.007,-4.007,-4.007,-4.007,-4.007,-4.007,-4.007,-4.007,-3.0018,-2.988,-2.9854,-2.9854,-2.9817,-2.9792,-2.9792,-2.9792,-2.9792,-2.9792,-2.9792,-2.9792,-2.9792,-2.8858,-2.7825,-2.6772,-2.5766,-2.4808,-2.3801,-2.4155,-2.4796,-2.5598,-2.4607,-2.3766,-2.309,-2.3078,-2.3078,-2.3078,-2.2565,-2.2613,-2.3122,-2.26,-2.2637,-2.3078,-2.3078,-2.3078,-2.3078,-2.3078,-2.3078,-2.3078,-2.3078,-2.3078,-2.3078,-2.3078,-2.3065,-2.3069,-2.3111,-2.3057,-2.3053,-2.3065,-2.3078,-2.3078,-2.3078,-2.3078,-2.3078,-2.3078,-2.42,-2.5734,-2.7155,-2.759,-2.7799,-2.8382,-2.812,-2.8142,-2.9867,-2.941,-2.9129,-3.0902,-3.0891,-3.0672,-3.1332,-3.1437,-3.1691,-3.2407,0.0,0.0,-3.1541,-3.1422,-3.118,-3.0642,-3.1061,-3.1387,-3.1463,-3.1517,-3.2586,-3.5091,-3.8262,-4.0121,-4.0105,-3.7408,-3.5751,-3.5494,-3.615,-3.6554,-3.6615,-3.7987,-3.8799,-3.8908,-3.9662,-4.002,-4.007,-4.007,-4.007,-4.007,-4.007,-4.007,-4.007,-4.007,-4.007,-4.007,-4.007,-4.007,-4.007,-4.007,-4.007,-4.007,-2.9829,-2.9792,-2.9792,-2.9792,-2.9792,-2.9792,-2.9792,-2.9792,-2.9792,-2.9792,-2.9197,-2.8767,-2.8767,-2.7493,-2.637,-2.567,-2.4943,-2.4243,-2.3559,-2.3058,-2.3094,-2.3794,-2.3089,-2.2342,-2.1553,-2.2063,-2.2063,-2.1542,-2.1595,-2.1596,-2.154,-2.1632,-2.1862,-2.2358,-2.287,-2.3078,-2.3078,-2.3078,-2.3078,-2.3078,-2.3078,-2.3078,-2.3078,-2.3078,-2.287,-2.2648,-2.2988,-2.2916,-2.265,-2.2967,-2.3078,-2.3078,-2.3078,-2.3078,-2.3175,-2.3692,-2.4269,-2.4918,-2.5944,-2.7195,-2.8203,-2.8,-2.8397,-2.8929,-2.9241,-2.9583,-2.9968,-3.0743,-3.101,-3.1306,-3.1974,-3.1809,-3.1884,-3.2946,0.0,-3.1616,-3.2078,-3.2138,-3.2193,-3.2461,-3.1913,-3.1856,-3.2715,-3.3536,-3.4467,-3.5529,-3.6587,-3.727,-3.7234,-3.6107,-3.5806,-3.6428,-3.7042,-3.7338,-3.7338,-3.8398,-3.9139,-3.9662,-3.9952,-4.007,-4.007,-4.007,-4.007,-4.007,-4.007,-4.007,-4.007,-4.007,-4.007,-4.007,-4.007,-4.007,-4.007,-4.007,-4.007,-4.007,-2.9792,-2.9792,-2.9792,-2.9792,-2.9792,-2.9702,-2.9287,-2.9287,-2.9118,-2.8791,-2.8108,-2.7544,-2.738,-2.6165,-2.5065,-2.4437,-2.3688,-2.3145,-2.2585,-2.2088,-2.1911,-2.2208,-2.1759,-2.1244,-2.0815,-2.1244,-2.1175,-2.059,-2.0881,-2.0885,-2.059,-2.0857,-2.1353,-2.1946,-2.2468,-2.2857,-2.3078,-2.3078,-2.3078,-2.3078,-2.3078,-2.3078,-2.3078,-2.3078,-2.2857,-2.2565,-2.2955,-2.2857,-2.2637,-2.2967,-2.3078,-2.3078,-2.3078,-2.3078,-2.3261,-2.4086,-2.4279,-2.4435,-2.5229,-2.6624,-2.7835,-2.783,-2.8553,-2.9319,-2.9501,-2.9999,-3.0629,-3.1028,-3.1322,-3.1676,-3.2392,-3.1973,-3.1898,-3.3006,-3.2422,-3.2078,-3.2736,-3.2647,-3.2749,-3.3315,-3.3066,-3.2867,-3.2925,-3.4564,-3.5568,-3.5575,-3.5165,-3.494,-3.5064,-3.5685,-3.6224,-3.6847,-3.7679,-3.8149,-3.8149,-3.8924,-3.9542,-4.007,-4.007,-4.007,-4.007,-4.007,-4.007,-4.007,-4.007,-4.007,-4.007,-4.007,-4.007,-4.007,-4.007,-4.007,-4.007,-4.007,-4.007,-4.007,-2.9792,-2.9792,-2.9792,-2.9792,-2.9792,-2.9456,-2.8255,-2.8096,-2.7683,-2.6637,-2.6472,-2.6281,-2.5858,-2.4832,-2.3819,-2.2981,-2.1839,-2.1035,-2.0586,-2.0958,-2.1222,-2.1163,-2.0783,-2.075,-2.1163,-2.0772,-2.059,-2.059,-2.0579,-2.0579,-2.059,-2.059,-2.1077,-2.1874,-2.1874,-2.2358,-2.3078,-2.3078,-2.3078,-2.3078,-2.3078,-2.3078,-2.3078,-2.3078,-2.3078,-2.3078,-2.3078,-2.3078,-2.3078,-2.3078,-2.3078,-2.3078,-2.3138,-2.3078,-2.3261,-2.4086,-2.4296,-2.4434,-2.5195,-2.5759,-2.6562,-2.8039,-2.8473,-2.9131,-3.1076,-3.0998,-3.0896,-3.2196,-3.1931,-3.1676,-3.2392,-3.1988,-3.1764,-3.2422,-3.2527,-3.2751,-3.3395,-3.2931,-3.2572,-3.2811,-3.4576,-3.4643,-3.1835,-3.3963,-3.5503,-3.5511,-3.425,-3.3712,-3.42,-3.5999,-3.6908,-3.6615,-3.8101,-3.8908,-3.8908,-3.9731,-4.007,-4.007,-4.007,-4.007,-4.007,-4.007,-4.007,-4.007,-4.007,-4.007,-4.007,-4.007,-4.007,-4.007,-4.007,-4.007,-4.007,-4.007,-4.007,-4.007,-2.9792,-2.9792,-2.9792,-2.9792,-2.9792,-2.9456,-2.8255,-2.8096,-2.7634,-2.6163,-2.5387,-2.4712,-2.4229,-2.2959,-2.197,-2.171,-2.1174,-2.0576,-2.0137,-2.0197,-2.0296,-2.0317,-2.0191,-1.9902,-1.9371,-1.9596,-1.9365,-1.8787,-1.9038,-1.9038,-1.8777,-1.9068,-1.9865,-2.1037,-2.1631,-2.2372,-2.3078,-2.3078,-2.3078,-2.3078,-2.3078,-2.3078,-2.3078,-2.3078,-2.3078,-2.3078,-2.3078,-2.3078,-2.3078,-2.3078,-2.3078,-2.3163,-2.358,-2.3457,-2.3248,-2.3888,-2.379,-2.3621,-2.423,-2.5348,-2.6557,-2.7512,-2.8421,-2.9373,-3.0556,-3.1042,-3.1345,-3.1722,-3.1664,-3.187,-3.2976,-3.2646,-3.2437,-3.3095,-3.32,-3.311,-3.2841,-3.344,-3.412,-3.471,-3.4406,-3.4281,-3.4527,-3.5127,-3.5517,-3.5536,-3.5123,-3.4943,-3.513,-3.6136,-3.6966,-3.7456,-3.8398,-3.9139,-3.9731,-3.9952,-4.007,-4.007,-4.007,-4.007,-4.007,-4.007,-4.007,-4.007,-4.007,-4.007,-4.007,-4.007,-4.007,-4.007,-4.007,-4.007,-4.007,-4.007,-4.007,-4.007,-2.9792,-2.9792,-2.9624,-2.9197,-2.9118,-2.8609,-2.7023,-2.6689,-2.6046,-2.4641,-2.3804,-2.3125,-2.2664,-2.1929,-2.1348,-2.0996,-2.0723,-2.0449,-2.0185,-2.0176,-2.0176,-2.0176,-1.9995,-1.9616,-1.8896,-1.8841,-1.8529,-1.8008,-1.8258,-1.8268,-1.8008,-1.8272,-1.9175,-2.0655,-2.1152,-2.2039,-2.3078,-2.3078,-2.3078,-2.3078,-2.3078,-2.3078,-2.3078,-2.3078,-2.3078,-2.3078,-2.3078,-2.3078,-2.3078,-2.3078,-2.3261,-2.347,-2.358,-2.3554,-2.3452,-2.3611,-2.3371,-2.319,-2.3555,-2.4929,-2.6437,-2.7229,-2.8612,-2.9971,-3.0735,-3.121,-3.1646,-3.2184,-3.2077,-3.2311,-3.3651,-3.3336,-3.3125,-3.3784,-3.3888,-3.3739,-3.335,-3.3978,-3.474,-3.5457,-3.4319,-3.3638,-3.404,-3.4453,-3.4729,-3.4725,-3.5211,-3.5501,-3.5548,-3.6513,-3.7428,-3.8189,-3.8978,-3.961,-4.0087,-4.007,-4.007,-4.007,-4.007,-4.007,-4.007,-4.007,-4.007,-4.007,-4.007,-4.007,-4.007,-4.007,-4.007,-4.007,-4.007,-4.007,-4.007,-4.007,-4.007,-4.007,-2.9792,-2.9702,-2.9287,-2.8255,-2.8004,-2.7267,-2.5115,-2.4524,-2.3826,-2.263,-2.2129,-2.1709,-2.123,-2.1562,-2.1484,-2.0635,-2.0566,-2.0566,-2.0566,-2.0566,-2.0566,-2.0566,-2.0146,-1.9736,-1.9346,-1.8545,-1.8105,-1.8066,-1.8066,-1.8047,-1.8008,-1.8008,-1.8921,-2.0579,-2.0602,-2.1502,-2.3078,-2.3188,-2.3175,-2.3078,-2.3128,-2.3175,-2.3078,-2.3078,-2.3078,-2.3078,-2.3078,-2.3078,-2.3138,-2.3163,-2.3568,-2.3914,-2.3401,-2.3607,-2.3874,-2.3418,-2.3248,-2.3248,-2.3419,-2.4826,-2.6498,-2.7359,-2.9059,-3.0761,-3.139,-3.1482,-3.187,-3.306,-3.2865,-3.282,-3.4185,-3.3888,-3.3619,-3.4277,-3.4442,-3.4442,-3.4322,-3.4457,-3.48,-3.5336,-3.4288,-3.3051,-3.1987,-3.2856,-3.3514,-3.3607,-3.4789,-3.5548,-3.5711,-3.7012,-3.813,-3.8891,-3.9662,-4.007,-4.007,-4.007,-4.007,-4.007,-4.007,-4.007,-4.007,-4.007,-4.007,-4.007,-4.007,-4.007,-4.007,-4.007,-4.007,-4.007,-4.007,-4.007,-4.007,-4.007,-4.007,-4.007,-2.9624,-2.9106,-2.8426,-2.8176,-2.7452,-2.6378,-2.5041,-2.4703,-2.4064,-2.2266,-2.1943,-2.1582,-2.0801,-2.1113,-2.1162,-2.0605,-2.0566,-2.0566,-2.0566,-2.0566,-2.0566,-2.0566,-2.0146,-1.9873,-1.9785,-1.9277,-1.8848,-1.8496,-1.8496,-1.833,-1.8008,-1.8008,-1.8921,-2.059,-2.061,-2.1506,-2.3103,-2.3615,-2.3552,-2.3115,-2.3627,-2.354,-2.3078,-2.3078,-2.3078,-2.3078,-2.3078,-2.3078,-2.3163,-2.3666,-2.3888,-2.407,-2.4312,-2.4221,-2.4077,-2.4352,-2.4223,-2.4343,-2.5714,-2.6946,-2.8176,-2.938,-3.0456,-3.1287,-3.1437,-3.1482,-3.1571,-3.19,-3.1811,-3.2109,-3.3485,-3.3161,-3.2946,-3.3604,-3.4143,-3.4113,-3.308,-3.4292,-3.5093,-3.4531,-3.3878,-3.3818,-3.4577,-3.3935,-3.3756,-3.425,-3.5058,-3.5786,-3.641,-3.7302,-3.813,-3.8891,-3.9662,-4.007,-4.007,-4.007,-4.007,-4.007,-4.007,-4.007,-4.007,-4.007,-4.007,-4.007,-4.007,-4.007,-4.007,-4.007,-4.007,-4.007,-4.007,-4.007,-4.007,-4.007,-4.007,-4.007,-2.8131,-2.7706,-2.7197,-2.6603,-2.6036,-2.5294,-2.4125,-2.3866,-2.3328,-2.232,-2.2012,-2.1709,-2.125,-2.0881,-2.0335,-1.9434,-1.9799,-1.9963,-1.9854,-2.0323,-2.0566,-2.0566,-2.0342,-2.0225,-2.0225,-2.001,-1.9482,-1.8562,-1.8562,-1.8418,-1.8008,-1.8008,-1.8921,-2.059,-2.059,-2.1682,-2.3552,-2.3577,-2.3577,-2.3552,-2.3577,-2.3401,-2.3078,-2.3078,-2.2849,-2.2565,-2.2771,-2.2825,-2.2845,-2.2955,-2.3629,-2.436,-2.4058,-2.4168,-2.4468,-2.4886,-2.4864,-2.5065,-2.6658,-2.7992,-2.9043,-2.9723,-3.0661,-3.1482,-3.1482,-3.1482,-3.1556,-3.1943,-3.2258,-3.275,-3.3794,-3.3955,-3.3948,-3.3963,-3.4247,-3.4023,-3.2706,-3.3679,-3.4373,-3.3924,-3.3668,-3.3516,-3.3608,-3.4228,-3.4605,-3.4574,-3.5843,-3.6934,-3.7718,-3.8157,-3.8687,-3.9473,-3.9901,-4.007,-4.007,-3.9731,-3.9542,-3.9542,-3.9901,-4.007,-4.007,-4.007,-4.007,-4.007,-4.007,-4.007,-4.007,-4.007,-4.007,-4.007,-4.007,-4.007,-4.007,-4.007,-4.007,-4.007,-2.6371,-2.6251,-2.588,-2.4957,-2.4617,-2.4211,-2.3222,-2.2842,-2.2598,-2.2519,-2.2029,-2.1694,-2.1543,-2.0504,-1.9326,-1.8162,-1.885,-1.9246,-1.9074,-2.0039,-2.0566,-2.0566,-2.0566,-2.0527,-2.0449,-2.0449,-1.9893,-1.875,-1.875,-1.8496,-1.8008,-1.8008,-1.8921,-2.059,-2.059,-2.1788,-2.3828,-2.3439,-2.3552,-2.3966,-2.3577,-2.3364,-2.3215,-2.3094,-2.2565,-2.1923,-2.2143,-2.2301,-2.2482,-2.2128,-2.3289,-2.4597,-2.3614,-2.3928,-2.4739,-2.5231,-2.54,-2.5752,-2.7203,-2.8584,-2.958,-2.958,-3.0527,-3.1482,-3.1482,-3.1482,-3.1631,-3.2228,-3.2841,-3.3501,-3.4053,-3.4678,-3.4916,-3.4262,-3.4233,-3.3844,-3.2527,-3.3006,-3.3427,-3.3191,-3.3141,-3.2916,-3.2273,-3.4364,-3.5593,-3.5106,-3.6734,-3.8117,-3.8871,-3.8975,-3.9326,-4.0054,-3.9969,-3.9901,-3.9901,-3.9086,-3.869,-3.8745,-3.9385,-3.9782,-3.9901,-3.9901,-3.9952,-4.007,-4.007,-4.007,-4.007,-4.007,-4.007,-4.007,-4.007,-4.007,-4.007,-4.007,-4.007,-4.0054,-2.575,-2.5431,-2.4957,-2.4872,-2.3963,-2.3299,-2.3135,-2.3096,-2.292,-2.2559,-2.156,-2.068,-2.0334,-1.8979,-1.8145,-1.8316,-1.8772,-1.9155,-1.9362,-2.0112,-2.0566,-2.0566,-2.0566,-2.0391,-2.001,-2.0,-1.9736,-1.9199,-1.9199,-1.8789,-1.8008,-1.8008,-1.8921,-2.059,-2.059,-2.1588,-2.3215,-2.3703,-2.3929,-2.4029,-2.4431,-2.4305,-2.3816,-2.3013,-2.2416,-2.1804,-2.1133,-2.1626,-2.2654,-2.2628,-2.3573,-2.4681,-2.4061,-2.3965,-2.4377,-2.5594,-2.6113,-2.6675,-2.851,-2.9692,-3.035,-3.0327,-3.0902,-3.1482,-3.1482,-3.1482,-3.1497,-3.1644,-3.2193,-3.2658,-3.2766,-3.333,-3.3568,-3.2856,-3.326,-3.317,-3.1795,-3.2721,-3.3051,-3.1897,-3.1749,-3.2695,-3.4996,-3.5498,-3.5927,-3.6457,-3.7321,-3.8129,-3.8958,-3.8989,-3.9326,-4.0054,-3.9437,-3.9086,-3.9086,-3.8302,-3.7921,-3.7921,-3.8035,-3.843,-3.9086,-3.9086,-3.9437,-4.007,-4.007,-4.007,-4.007,-4.007,-4.007,-4.007,-4.007,-4.007,-4.007,-4.007,-4.007,-3.9986,-2.4167,-2.4077,-2.3887,-2.3887,-2.3464,-2.2862,-2.2217,-2.212,-2.1789,-2.0899,-2.0237,-1.9686,-1.9522,-1.8132,-1.7141,-1.6907,-1.7788,-1.8533,-1.9138,-2.0106,-2.0566,-2.0566,-2.0566,-2.0361,-1.9922,-1.9912,-1.959,-1.8926,-1.8926,-1.8613,-1.8008,-1.8008,-1.8921,-2.059,-2.059,-2.1717,-2.364,-2.3891,-2.418,-2.4417,-2.41,-2.366,-2.3186,-2.225,-2.13,-2.0324,-1.9441,-2.0293,-2.1809,-2.1635,-2.2821,-2.4266,-2.3665,-2.3729,-2.427,-2.5827,-2.6357,-2.686,-2.891,-2.9985,-3.0514,-3.0466,-3.1016,-3.1482,-3.1482,-3.1482,-3.1482,-3.1482,-3.2657,-3.3516,-3.3125,-3.3898,-3.4375,-3.3739,-3.3544,-3.3261,-3.2734,-3.2852,-3.2634,-3.1627,-3.2827,-3.4327,-3.5652,-3.6707,-3.7376,-3.7461,-3.8502,-3.9244,-3.9597,-3.9193,-3.9104,-3.942,-3.8707,-3.8318,-3.8318,-3.7499,-3.7144,-3.7144,-3.7144,-3.7774,-3.8908,-3.8908,-3.9315,-4.007,-4.007,-4.007,-4.007,-4.007,-4.007,-4.007,-4.007,-4.007,-4.007,-4.007,-4.007,-4.002]}]]